ftp/pub/palmer/observations_modified/2017/November/AR171123_BASE.txt

Download

Sample DateTime	Unit Id	WS Avg 2min	WD Avg 2min	WGS 10min	WGD 10min	Air Temp	Rel Humidity	Dew Point	Pyranometer	Quantum	Air Pressure	Snow Level	Rainfall	PW Current	Visibility	CBase 1	CBase 2	CBase 3	Vert Vis
2017/11/23 00:00:00	BASE	0.00	230	M	M	-2.3	100	-2.3	24	57	981.8	NA	0.0000	-SN BR	9999	2790	0	0	0
2017/11/23 00:01:00	BASE	0.00	229	M	M	-2.3	100	-2.3	25	58	981.8	NA	0.0000	-SN BR	9999	2760	0	0	0
2017/11/23 00:02:00	BASE	0.00	225	M	M	-2.3	100	-2.3	26	59	981.8	NA	0.0000	-SN BR	9999	2720	0	0	0
2017/11/23 00:03:00	BASE	0.00	221	M	M	-2.3	100	-2.3	26	60	981.8	NA	0.0000	-SN BR	9999	2720	0	0	0
2017/11/23 00:04:00	BASE	0.00	213	M	M	-2.3	100	-2.3	27	60	981.8	NA	0.0000	-SN BR	9999	2760	0	0	0
2017/11/23 00:05:00	BASE	0.00	206	M	M	-2.3	100	-2.3	27	61	981.8	NA	0.0000	-SN BR	9999	2760	0	0	0
2017/11/23 00:06:00	BASE	0.00	206	M	M	-2.3	100	-2.3	27	61	981.8	NA	0.0000	-SN BR	9999	2760	0	0	0
2017/11/23 00:07:00	BASE	0.00	206	M	M	-2.3	100	-2.3	27	60	981.8	NA	0.0000	-SN	9999	2790	0	0	0
2017/11/23 00:08:00	BASE	0.00	204	M	M	-2.3	100	-2.3	27	60	981.8	NA	0.0000	-SN	9999	2760	0	0	0
2017/11/23 00:09:00	BASE	0.00	200	M	M	-2.3	100	-2.3	27	59	981.8	NA	0.0000	-SN	9999	2790	0	0	0
2017/11/23 00:10:00	BASE	0.00	199	M	M	-2.3	100	-2.3	26	59	981.8	NA	0.0000	-SN	9999	2820	0	0	0
2017/11/23 00:11:00	BASE	0.00	203	M	M	-2.3	100	-2.3	26	58	981.8	NA	0.0000		9999	2760	0	0	0
2017/11/23 00:12:00	BASE	0.00	211	M	M	-2.3	100	-2.3	26	57	981.8	NA	0.0000		9999	2720	0	0	0
2017/11/23 00:13:00	BASE	0.00	213	M	M	-2.3	100	-2.3	25	56	981.8	NA	0.0000		9999	2660	0	0	0
2017/11/23 00:14:00	BASE	0.09	212	1.03	209	-2.4	100	-2.4	25	56	981.8	NA	0.0000		9999	2690	0	0	0
2017/11/23 00:15:00	BASE	0.09	216	1.03	209	-2.4	100	-2.4	26	56	981.7	NA	0.0000		9999	2690	0	0	0
2017/11/23 00:16:00	BASE	0.00	220	1.03	209	-2.4	100	-2.4	26	56	981.7	NA	0.0000		9999	2590	0	0	0
2017/11/23 00:17:00	BASE	0.00	217	1.03	209	-2.4	100	-2.4	26	56	981.7	NA	0.0000		9999	2590	0	0	0
2017/11/23 00:18:00	BASE	0.00	215	1.03	209	-2.4	100	-2.4	26	56	981.7	NA	0.0000		9999	2560	0	0	0
2017/11/23 00:19:00	BASE	0.00	210	1.03	209	-2.4	100	-2.4	26	56	981.7	NA	0.0000		9999	2620	0	0	0
2017/11/23 00:20:00	BASE	0.00	199	1.03	209	-2.4	100	-2.4	26	55	981.7	NA	0.0000		9999	2620	0	0	0
2017/11/23 00:21:00	BASE	0.00	194	1.03	209	-2.4	100	-2.4	26	55	981.7	NA	0.0000		9999	2590	3150	0	0
2017/11/23 00:22:00	BASE	0.00	194	1.03	209	-2.4	100	-2.4	25	54	981.7	NA	0.0000		9999	2620	0	0	0
2017/11/23 00:23:00	BASE	0.00	194	1.03	209	-2.4	100	-2.4	25	53	981.7	NA	0.0000		9999	2590	0	0	0
2017/11/23 00:24:00	BASE	0.00	194	M	M	-2.4	100	-2.4	24	51	981.6	NA	0.0000		9999	2950	0	0	0
2017/11/23 00:25:00	BASE	0.00	194	M	M	-2.4	100	-2.4	23	50	981.6	NA	0.0000		9999	3020	0	0	0
2017/11/23 00:26:00	BASE	0.00	194	M	M	-2.4	100	-2.4	22	48	981.6	NA	0.0000		9999	3050	0	0	0
2017/11/23 00:27:00	BASE	0.00	194	M	M	-2.4	100	-2.4	22	47	981.6	NA	0.0000		9999	3050	0	0	0
2017/11/23 00:28:00	BASE	0.00	194	M	M	-2.3	100	-2.3	21	45	981.6	NA	0.0000		9999	2950	0	0	0
2017/11/23 00:29:00	BASE	0.00	194	M	M	-2.3	100	-2.3	21	44	981.6	NA	0.0000		9999	3020	0	0	0
2017/11/23 00:30:00	BASE	0.00	194	M	M	-2.3	100	-2.3	20	43	981.6	NA	0.0000		9999	2950	0	0	0
2017/11/23 00:31:00	BASE	0.00	194	M	M	-2.3	100	-2.3	19	41	981.6	NA	0.0000		9999	2560	3020	0	0
2017/11/23 00:32:00	BASE	0.00	194	M	M	-2.3	100	-2.3	18	39	981.6	NA	0.0000		8000	1510	2560	0	0
2017/11/23 00:33:00	BASE	0.00	194	M	M	-2.3	100	-2.3	17	38	981.6	NA	0.0000	-SN	6000	1510	2300	0	0
2017/11/23 00:34:00	BASE	0.00	194	M	M	-2.3	100	-2.3	17	37	981.6	NA	0.0000	-SN	9999	1510	2300	0	0
2017/11/23 00:35:00	BASE	0.00	194	M	M	-2.3	100	-2.3	16	36	981.6	NA	0.0000	-SN	9999	1510	2300	2850	0
2017/11/23 00:36:00	BASE	0.00	186	M	M	-2.3	100	-2.3	16	35	981.6	NA	0.0000	-SN	9999	1510	2330	0	0
2017/11/23 00:37:00	BASE	0.00	178	M	M	-2.3	100	-2.3	15	33	981.6	NA	0.0000	-SN	9999	1410	2400	0	0
2017/11/23 00:38:00	BASE	0.00	177	M	M	-2.3	100	-2.3	14	32	981.6	NA	0.0000	-SN	9999	1150	2460	0	0
2017/11/23 00:39:00	BASE	0.00	177	M	M	-2.3	100	-2.3	13	30	981.6	NA	0.0000	-SN	9999	1120	2400	0	0
2017/11/23 00:40:00	BASE	0.00	177	M	M	-2.3	100	-2.3	12	28	981.6	NA	0.0000	-SN	9999	1080	2460	0	0
2017/11/23 00:41:00	BASE	0.00	177	M	M	-2.3	100	-2.3	12	26	981.6	NA	0.0000	-SN	9999	1050	2430	0	0
2017/11/23 00:42:00	BASE	0.00	177	M	M	-2.3	100	-2.3	11	25	981.6	NA	0.0000	-SN	9999	1050	0	0	0
2017/11/23 00:43:00	BASE	0.00	177	M	M	-2.2	100	-2.2	10	24	981.6	NA	0.0000	-SN	9999	1020	0	0	0
2017/11/23 00:44:00	BASE	0.00	177	M	M	-2.2	100	-2.2	10	23	981.6	NA	0.0000	-SN	9999	980	0	0	0
2017/11/23 00:45:00	BASE	0.00	177	M	M	-2.2	100	-2.2	9	22	981.6	NA	0.0000		9999	950	0	0	0
2017/11/23 00:46:00	BASE	0.00	177	M	M	-2.2	100	-2.2	9	21	981.6	NA	0.0000	-SN	9999	920	0	0	0
2017/11/23 00:47:00	BASE	0.00	177	M	M	-2.2	100	-2.2	8	20	981.6	NA	0.0000	-SN	9999	920	0	0	0
2017/11/23 00:48:00	BASE	0.00	177	M	M	-2.2	100	-2.2	8	19	981.6	NA	0.0000	-SN	9999	950	0	0	0
2017/11/23 00:49:00	BASE	0.00	177	M	M	-2.2	100	-2.2	7	18	981.6	NA	0.0000	-SN	7000	980	0	0	0
2017/11/23 00:50:00	BASE	0.00	177	M	M	-2.2	100	-2.2	7	17	981.6	NA	0.0000	-SN	9999	950	0	0	0
2017/11/23 00:51:00	BASE	0.00	177	M	M	-2.2	100	-2.2	7	16	981.6	NA	0.0000	-SN	9999	950	0	0	0
2017/11/23 00:52:00	BASE	0.00	177	M	M	-2.3	100	-2.3	6	15	981.6	NA	0.0000	-SN	9999	950	0	0	0
2017/11/23 00:53:00	BASE	0.00	177	M	M	-2.3	100	-2.3	6	15	981.6	NA	0.0000	-SN	9999	850	0	0	0
2017/11/23 00:54:00	BASE	0.00	177	M	M	-2.3	100	-2.3	5	14	981.6	NA	0.0000	-SN	9999	850	0	0	0
2017/11/23 00:55:00	BASE	0.00	185	M	M	-2.3	100	-2.3	5	13	981.6	NA	0.0000	-SN	9999	890	0	0	0
2017/11/23 00:56:00	BASE	0.00	201	M	M	-2.4	100	-2.4	5	12	981.6	NA	0.0000	-SN	9999	850	0	0	0
2017/11/23 00:57:00	BASE	0.00	208	M	M	-2.4	100	-2.4	4	12	981.6	NA	0.0000	-SN	9999	850	0	0	0
2017/11/23 00:58:00	BASE	0.00	205	M	M	-2.4	100	-2.4	4	11	981.6	NA	0.0000	-SN	9999	820	0	0	0
2017/11/23 00:59:00	BASE	0.00	202	M	M	-2.4	100	-2.4	4	11	981.6	NA	0.0000	-SN	9999	850	0	0	0
2017/11/23 01:00:00	BASE	0.00	202	M	M	-2.3	100	-2.3	4	10	981.6	NA	0.0000	-SN	9999	850	0	0	0
2017/11/23 01:01:00	BASE	0.00	201	M	M	-2.3	100	-2.3	4	10	981.6	NA	0.0000	-SN	9999	820	0	0	0
2017/11/23 01:02:00	BASE	0.00	199	M	M	-2.3	100	-2.3	3	10	981.6	NA	0.0000	-SN	9999	850	0	0	0
2017/11/23 01:03:00	BASE	0.00	195	M	M	-2.3	100	-2.3	3	9	981.6	NA	0.0000	-SN	9999	850	0	0	0
2017/11/23 01:04:00	BASE	0.00	200	M	M	-2.3	100	-2.3	3	9	981.6	NA	0.0000	-SN	9999	850	0	0	0
2017/11/23 01:05:00	BASE	0.00	200	M	M	-2.3	100	-2.3	3	9	981.6	NA	0.0000	-SN	9999	890	0	0	0
2017/11/23 01:06:00	BASE	0.00	202	M	M	-2.3	100	-2.3	3	9	981.6	NA	0.0000	-SN	9999	820	0	0	0
2017/11/23 01:07:00	BASE	0.00	206	M	M	-2.4	100	-2.4	3	9	981.6	NA	0.0000	-SN	9999	850	0	0	0
2017/11/23 01:08:00	BASE	0.00	194	M	M	-2.4	100	-2.4	3	9	981.6	NA	0.0000	-SN	9999	850	0	0	0
2017/11/23 01:09:00	BASE	0.00	185	M	M	-2.4	100	-2.4	3	9	981.6	NA	0.0000	-SN	9999	820	0	0	0
2017/11/23 01:10:00	BASE	0.00	194	M	M	-2.4	100	-2.4	3	9	981.6	NA	0.0000	-SN	9999	820	0	0	0
2017/11/23 01:11:00	BASE	0.00	202	M	M	-2.4	100	-2.4	3	9	981.6	NA	0.0000	-SN	9999	820	0	0	0
2017/11/23 01:12:00	BASE	0.00	199	M	M	-2.4	100	-2.4	3	8	981.6	NA	0.0000	-SN	9999	790	0	0	0
2017/11/23 01:13:00	BASE	0.00	197	M	M	-2.4	100	-2.4	3	8	981.6	NA	0.0000	-SN	9999	750	0	0	0
2017/11/23 01:14:00	BASE	0.00	197	M	M	-2.4	100	-2.4	3	8	981.6	NA	0.0000	-SN	9999	790	0	0	0
2017/11/23 01:15:00	BASE	0.00	197	M	M	-2.4	100	-2.4	3	8	981.6	NA	0.0000	-SN	9999	790	0	0	0
2017/11/23 01:16:00	BASE	0.00	197	M	M	-2.4	100	-2.4	3	8	981.6	NA	0.0000	-SN	9000	690	0	0	0
2017/11/23 01:17:00	BASE	0.00	197	M	M	-2.4	100	-2.4	3	8	981.6	NA	0.0000	-SN	9999	690	0	0	0
2017/11/23 01:18:00	BASE	0.00	197	M	M	-2.4	100	-2.4	3	8	981.6	NA	0.0000	-SN	9999	720	0	0	0
2017/11/23 01:19:00	BASE	0.00	197	M	M	-2.4	100	-2.4	3	8	981.6	NA	0.0000	-SN	9999	620	0	0	0
2017/11/23 01:20:00	BASE	0.00	197	M	M	-2.4	100	-2.4	3	8	981.6	NA	0.0000	-SN	9999	750	0	0	0
2017/11/23 01:21:00	BASE	0.00	197	M	M	-2.3	100	-2.3	3	8	981.6	NA	0.0000	-SN	9000	690	0	0	0
2017/11/23 01:22:00	BASE	0.00	197	M	M	-2.3	100	-2.3	3	7	981.6	NA	0.0000	-SN BR	7000	590	0	0	0
2017/11/23 01:23:00	BASE	0.00	197	M	M	-2.2	100	-2.2	3	7	981.6	NA	0.0000	-SN BR	9999	620	0	0	0
2017/11/23 01:24:00	BASE	0.00	197	M	M	-2.1	100	-2.1	3	7	981.6	NA	0.0000	-SN	9999	690	0	0	0
2017/11/23 01:25:01	BASE	0.00	219	M	M	-2.1	100	-2.1	3	7	981.6	NA	0.0000	-SN	9999	620	0	0	0
2017/11/23 01:26:00	BASE	0.00	273	M	M	-2.2	100	-2.2	3	7	981.6	NA	0.0000	-SN	9999	560	0	0	0
2017/11/23 01:27:00	BASE	0.00	293	M	M	-2.2	100	-2.2	3	7	981.6	NA	0.0000	-SN	9999	560	0	0	0
2017/11/23 01:28:00	BASE	0.00	290	M	M	-2.3	100	-2.3	3	6	981.6	NA	0.0000	-SN	9999	490	0	0	0
2017/11/23 01:29:00	BASE	0.00	292	M	M	-2.3	100	-2.3	3	6	981.6	NA	0.0000	-SN	9999	560	0	0	0
2017/11/23 01:30:00	BASE	0.00	296	M	M	-2.3	100	-2.3	3	6	981.6	NA	0.0000	-SN	9999	520	0	0	0
2017/11/23 01:31:00	BASE	0.00	292	M	M	-2.3	100	-2.3	3	6	981.6	NA	0.0000	-SN	9999	490	0	0	0
2017/11/23 01:32:00	BASE	0.00	289	M	M	-2.4	100	-2.4	3	6	981.6	NA	0.0000	-SN	9999	460	1180	0	0
2017/11/23 01:33:00	BASE	0.00	292	M	M	-2.4	100	-2.4	3	6	981.6	NA	0.0000		9999	460	0	0	0
2017/11/23 01:34:00	BASE	0.00	298	M	M	-2.3	100	-2.3	2	5	981.6	NA	0.0000		9999	1080	0	0	0
2017/11/23 01:35:00	BASE	0.00	298	M	M	-2.4	100	-2.4	2	5	981.6	NA	0.0000		9999	890	0	0	0
2017/11/23 01:36:00	BASE	0.00	297	M	M	-2.4	100	-2.4	2	5	981.6	NA	0.0000	-SN	9999	720	0	0	0
2017/11/23 01:37:00	BASE	0.00	297	M	M	-2.3	100	-2.3	2	4	981.6	NA	0.0000	-SN	9999	720	0	0	0
2017/11/23 01:38:00	BASE	0.00	303	M	M	-2.3	100	-2.3	2	4	981.6	NA	0.0000	-SN	9999	720	0	0	0
2017/11/23 01:39:00	BASE	0.00	308	M	M	-2.3	100	-2.3	2	4	981.6	NA	0.0000	-SN	9999	660	0	0	0
2017/11/23 01:40:00	BASE	0.00	307	M	M	-2.3	100	-2.3	2	4	981.6	NA	0.0000	-SN	9999	660	0	0	0
2017/11/23 01:41:00	BASE	0.00	307	M	M	-2.3	100	-2.3	2	4	981.6	NA	0.0000	-SN	9999	620	0	0	0
2017/11/23 01:42:00	BASE	0.00	307	M	M	-2.3	100	-2.3	2	4	981.6	NA	0.0000	-SN	9999	620	0	0	0
2017/11/23 01:43:00	BASE	0.00	314	M	M	-2.3	100	-2.3	2	4	981.6	NA	0.0000	-SN	9999	620	0	0	0
2017/11/23 01:44:00	BASE	0.00	324	M	M	-2.3	100	-2.3	2	4	981.6	NA	0.0000	-SN	8000	590	0	0	0
2017/11/23 01:45:00	BASE	0.00	324	M	M	-2.3	100	-2.3	2	4	981.6	NA	0.0000	-SN	9999	560	0	0	0
2017/11/23 01:46:00	BASE	0.00	330	M	M	-2.3	100	-2.3	2	4	981.5	NA	0.0000	-SN	9999	560	1150	0	0
2017/11/23 01:47:00	BASE	0.00	341	M	M	-2.3	100	-2.3	2	4	981.6	NA	0.0000	-SN	9999	520	0	0	0
2017/11/23 01:48:00	BASE	0.00	340	M	M	-2.3	100	-2.3	2	3	981.6	NA	0.0000	-SN	9999	520	0	0	0
2017/11/23 01:49:00	BASE	0.00	330	M	M	-2.3	100	-2.3	2	3	981.6	NA	0.0000	-SN	9999	490	1150	0	0
2017/11/23 01:50:00	BASE	0.00	322	M	M	-2.3	100	-2.3	2	3	981.6	NA	0.0000	-SN	9999	490	0	0	0
2017/11/23 01:51:00	BASE	0.00	318	M	M	-2.3	100	-2.3	2	3	981.6	NA	0.0000	-SN	9999	460	0	0	0
2017/11/23 01:52:00	BASE	0.00	319	M	M	-2.3	100	-2.3	2	3	981.6	NA	0.0000	-SN	6000	460	0	0	0
2017/11/23 01:53:00	BASE	0.00	319	M	M	-2.3	100	-2.3	2	3	981.6	NA	0.0000	-SN	9000	460	0	0	0
2017/11/23 01:54:00	BASE	0.00	319	M	M	-2.3	100	-2.3	2	3	981.6	NA	0.0000	-SN	9999	430	0	0	0
2017/11/23 01:55:00	BASE	0.00	319	M	M	-2.3	100	-2.3	1	3	981.5	NA	0.0000	-SN BR	6000	430	0	0	0
2017/11/23 01:56:00	BASE	0.00	319	M	M	-2.4	100	-2.4	1	2	981.6	NA	0.0000	-SN BR	9999	430	0	0	0
2017/11/23 01:57:00	BASE	0.00	319	M	M	-2.4	100	-2.4	1	2	981.6	NA	0.0000	-SN BR	9999	390	0	0	0
2017/11/23 01:58:00	BASE	0.00	319	M	M	-2.4	100	-2.4	1	2	981.6	NA	0.0000	-SN BR	9999	390	0	0	0
2017/11/23 01:59:00	BASE	0.00	314	M	M	-2.4	100	-2.4	1	2	981.6	NA	0.0000	-SN BR	9999	390	0	0	0
2017/11/23 02:00:00	BASE	0.00	310	M	M	-2.4	100	-2.4	1	2	981.6	NA	0.0000	-SN BR	9999	390	0	0	0
2017/11/23 02:01:00	BASE	0.00	309	M	M	-2.4	100	-2.4	1	2	981.6	NA	0.0000	-SN BR	9999	390	0	0	0
2017/11/23 02:02:00	BASE	0.00	305	M	M	-2.4	100	-2.4	1	2	981.6	NA	0.0000	-SN BR	9999	390	0	0	0
2017/11/23 02:03:00	BASE	0.00	302	M	M	-2.4	100	-2.4	1	2	981.6	NA	0.0000	-SN	9999	390	0	0	0
2017/11/23 02:04:00	BASE	0.00	302	M	M	-2.3	100	-2.3	1	2	981.6	NA	0.0000	-SN	9999	390	0	0	0
2017/11/23 02:05:00	BASE	0.00	304	M	M	-2.3	100	-2.3	1	2	981.6	NA	0.0000	-SN	9999	360	0	0	0
2017/11/23 02:06:00	BASE	0.00	312	M	M	-2.3	100	-2.3	1	1	981.6	NA	0.0000	-SN	9999	360	0	0	0
2017/11/23 02:07:00	BASE	0.00	318	M	M	-2.2	100	-2.2	1	1	981.6	NA	0.0000	-SN	9999	360	0	0	0
2017/11/23 02:08:00	BASE	0.00	318	M	M	-2.2	100	-2.2	1	1	981.6	NA	0.0000	-SN	9999	330	0	0	0
2017/11/23 02:09:00	BASE	0.00	318	M	M	-2.3	100	-2.3	1	1	981.6	NA	0.0000	-SN	9999	330	0	0	0
2017/11/23 02:10:00	BASE	0.00	317	M	M	-2.3	100	-2.3	1	1	981.6	NA	0.0000	-SN	9999	330	0	0	0
2017/11/23 02:11:00	BASE	0.00	304	M	M	-2.3	100	-2.3	1	1	981.6	NA	0.0000	-SN	9999	330	0	0	0
2017/11/23 02:12:00	BASE	0.00	293	M	M	-2.3	100	-2.3	1	1	981.6	NA	0.0000	-SN	9000	330	0	0	0
2017/11/23 02:13:00	BASE	0.00	294	M	M	-2.4	100	-2.4	1	1	981.6	NA	0.0000	-SN	9999	330	0	0	0
2017/11/23 02:14:00	BASE	0.00	295	M	M	-2.3	100	-2.3	0	1	981.6	NA	0.0000	-SN	9999	330	0	0	0
2017/11/23 02:15:00	BASE	0.00	294	M	M	-2.3	100	-2.3	0	1	981.6	NA	0.0000	-SN	9999	300	0	0	0
2017/11/23 02:16:00	BASE	0.00	294	M	M	-2.3	100	-2.3	0	1	981.6	NA	0.0000	-SN	9000	300	0	0	0
2017/11/23 02:17:00	BASE	0.00	298	M	M	-2.3	100	-2.3	0	1	981.6	NA	0.0000	-SN	9000	300	0	0	0
2017/11/23 02:18:00	BASE	0.09	307	1.03	316	-2.4	100	-2.4	0	1	981.6	NA	0.0000	-SN BR	9999	300	0	0	0
2017/11/23 02:19:00	BASE	0.09	304	1.03	316	-2.3	100	-2.3	0	1	981.6	NA	0.0000	-SN BR	8000	300	0	0	0
2017/11/23 02:20:00	BASE	0.00	299	1.03	316	-2.4	100	-2.4	0	1	981.6	NA	0.0000	-SN BR	9999	260	0	0	0
2017/11/23 02:21:00	BASE	0.00	301	1.03	316	-2.4	100	-2.4	0	1	981.6	NA	0.0000	-SN BR	9999	260	1210	0	0
2017/11/23 02:22:00	BASE	0.23	299	1.13	302	-2.4	100	-2.4	0	1	981.6	NA	0.0000	-SN BR	9000	260	1180	0	0
2017/11/23 02:23:00	BASE	0.60	299	1.18	297	-2.4	100	-2.4	0	1	981.6	NA	0.0000	-SN BR	8000	260	0	0	0
2017/11/23 02:24:00	BASE	0.85	305	1.23	304	-2.4	100	-2.4	0	1	981.6	NA	0.0000	-SN BR	9999	260	1180	0	0
2017/11/23 02:25:00	BASE	0.52	307	1.23	304	-2.4	100	-2.4	0	1	981.6	NA	0.0000	-SN BR	9999	260	0	0	0
2017/11/23 02:26:00	BASE	0.20	302	1.29	278	-2.4	100	-2.4	0	1	981.6	NA	0.0000	-SN BR	9000	260	1250	0	0
2017/11/23 02:27:00	BASE	0.62	293	1.29	278	-2.4	100	-2.4	0	1	981.6	NA	0.0000	-SN BR	9000	260	1210	0	0
2017/11/23 02:28:00	BASE	0.51	289	1.29	278	-2.4	100	-2.4	0	1	981.6	NA	0.0000	-SN BR	9000	260	1150	0	0
2017/11/23 02:29:00	BASE	0.33	289	1.29	278	-2.4	100	-2.4	0	1	981.5	NA	0.0000	-SN BR	9000	260	1150	0	0
2017/11/23 02:30:00	BASE	0.96	289	1.39	289	-2.4	100	-2.4	0	1	981.5	NA	0.0000	-SN BR	8000	300	0	0	0
2017/11/23 02:31:00	BASE	1.33	289	1.39	289	-2.4	100	-2.4	0	0	981.5	NA	0.0000	-SN BR	8000	300	0	0	0
2017/11/23 02:32:00	BASE	1.34	292	1.44	296	-2.4	100	-2.4	0	0	981.5	NA	0.0000	-SN BR	9999	300	0	0	0
2017/11/23 02:33:00	BASE	1.36	295	1.44	290	-2.5	100	-2.5	0	0	981.5	NA	0.0000	-SN BR	9999	300	0	0	0
2017/11/23 02:34:00	BASE	1.40	293	1.54	291	-2.5	100	-2.5	0	0	981.5	NA	0.0000	-SN BR	9999	300	0	0	0
2017/11/23 02:35:00	BASE	1.45	291	1.65	288	-2.5	100	-2.5	0	0	981.6	NA	0.0000	-SN BR	9999	330	0	0	0
2017/11/23 02:36:00	BASE	1.41	293	1.65	288	-2.5	100	-2.5	0	0	981.6	NA	0.0000	-SN BR	9999	300	0	0	0
2017/11/23 02:37:00	BASE	1.37	294	1.65	288	-2.5	100	-2.5	0	0	981.6	NA	0.0000	-SN	9999	330	1440	0	0
2017/11/23 02:38:00	BASE	1.41	295	1.65	288	-2.5	100	-2.5	0	0	981.5	NA	0.0000	-SN	9999	300	1310	0	0
2017/11/23 02:39:00	BASE	1.36	296	1.65	288	-2.5	100	-2.5	0	0	981.5	NA	0.0000	-SN	9999	300	1280	0	0
2017/11/23 02:40:00	BASE	1.31	297	1.65	288	-2.5	100	-2.5	0	0	981.5	NA	0.0000	-SN	9999	300	0	0	0
2017/11/23 02:41:00	BASE	1.35	299	1.65	288	-2.5	100	-2.5	0	0	981.5	NA	0.0000	-SN	9999	330	1380	0	0
2017/11/23 02:42:00	BASE	1.37	301	1.65	288	-2.5	100	-2.5	0	0	981.5	NA	0.0000	-SN	9999	300	1440	0	0
2017/11/23 02:43:00	BASE	1.40	302	1.65	288	-2.5	100	-2.5	0	0	981.5	NA	0.0000	-SN	9999	330	1410	0	0
2017/11/23 02:44:00	BASE	1.40	304	1.65	288	-2.5	100	-2.5	0	0	981.5	NA	0.0000	-SN	9999	330	1380	0	0
2017/11/23 02:45:00	BASE	1.39	305	1.59	293	-2.5	100	-2.5	0	0	981.5	NA	0.0000	-SN	9999	330	0	0	0
2017/11/23 02:46:00	BASE	1.38	304	1.59	293	-2.5	100	-2.5	0	0	981.5	NA	0.0000	-SN	9999	360	0	0	0
2017/11/23 02:47:00	BASE	1.37	303	1.54	302	-2.5	100	-2.5	0	0	981.5	NA	0.0000	-SN	9999	360	0	0	0
2017/11/23 02:48:00	BASE	1.39	303	1.54	302	-2.5	100	-2.5	0	0	981.5	NA	0.0000	-SN	9999	360	0	0	0
2017/11/23 02:49:00	BASE	1.39	301	1.54	303	-2.4	100	-2.4	0	0	981.5	NA	0.0000	-SN	8000	360	0	0	0
2017/11/23 02:50:00	BASE	1.41	300	1.59	298	-2.4	100	-2.4	0	0	981.5	NA	0.0000	-SN BR	9000	360	0	0	0
2017/11/23 02:51:00	BASE	1.46	301	1.59	305	-2.4	100	-2.4	0	0	981.5	NA	0.0000	-SN	9999	360	0	0	0
2017/11/23 02:52:00	BASE	1.49	304	1.65	304	-2.4	100	-2.4	0	0	981.5	NA	0.0000	-SN	9999	360	0	0	0
2017/11/23 02:53:00	BASE	1.44	303	1.70	303	-2.4	100	-2.4	0	0	981.4	NA	0.0000	-SN	9999	360	0	0	0
2017/11/23 02:54:00	BASE	1.38	302	1.70	303	-2.4	100	-2.4	0	0	981.4	NA	0.0000	-SN	9999	360	0	0	0
2017/11/23 02:55:00	BASE	1.46	303	1.70	303	-2.4	100	-2.4	0	0	981.4	NA	0.0000	-SN	9999	360	0	0	0
2017/11/23 02:56:00	BASE	1.49	303	1.70	303	-2.4	100	-2.4	0	0	981.4	NA	0.0000	-SN	9999	360	1350	0	0
2017/11/23 02:57:00	BASE	1.41	308	1.70	303	-2.4	100	-2.4	0	0	981.4	NA	0.0000	-SN	9999	360	1310	0	0
2017/11/23 02:58:00	BASE	1.42	317	1.70	303	-2.4	100	-2.4	0	0	981.4	NA	0.0000	-SN	9999	330	1280	0	0
2017/11/23 02:59:00	BASE	1.41	322	1.70	303	-2.4	100	-2.4	0	0	981.4	NA	0.0000	-SN	9999	330	1280	0	0
2017/11/23 03:00:00	BASE	1.32	315	1.70	303	-2.3	100	-2.3	0	0	981.4	NA	0.0000	-SN	9999	360	1150	0	0
2017/11/23 03:01:00	BASE	1.37	314	1.70	303	-2.3	100	-2.3	0	0	981.5	NA	0.0000	-SN	9999	360	0	0	0
2017/11/23 03:02:00	BASE	1.48	315	1.70	303	-2.3	100	-2.3	0	0	981.4	NA	0.0000	-SN	9999	360	1120	0	0
2017/11/23 03:03:00	BASE	1.57	314	1.70	318	-2.3	100	-2.3	0	0	981.5	NA	0.0000	-SN	9999	360	0	0	0
2017/11/23 03:04:00	BASE	1.68	316	1.85	313	-2.3	100	-2.3	0	0	981.5	NA	0.0000	-SN	9999	390	0	0	0
2017/11/23 03:05:00	BASE	1.71	313	1.85	311	-2.4	100	-2.4	0	0	981.5	NA	0.0000	-SN	9999	430	0	0	0
2017/11/23 03:06:00	BASE	1.74	310	1.95	308	-2.4	100	-2.4	0	0	981.5	NA	0.0000	-SN	9999	430	0	0	0
2017/11/23 03:07:00	BASE	1.79	308	2.06	309	-2.4	100	-2.4	0	0	981.5	NA	0.0000	-SN	9999	430	0	0	0
2017/11/23 03:08:00	BASE	1.89	307	2.11	307	-2.4	100	-2.4	0	0	981.5	NA	0.0000	-SN	9999	430	0	0	0
2017/11/23 03:09:00	BASE	1.93	306	2.11	307	-2.4	100	-2.4	0	0	981.5	NA	0.0000	-SN	9999	460	0	0	0
2017/11/23 03:10:00	BASE	1.93	307	2.16	304	-2.3	100	-2.3	0	0	981.5	NA	0.0000	-SN	9999	460	0	0	0
2017/11/23 03:11:00	BASE	1.95	309	2.16	304	-2.4	100	-2.4	0	0	981.5	NA	0.0000	-SN	9999	390	0	0	0
2017/11/23 03:12:00	BASE	2.02	312	2.21	314	-2.4	100	-2.4	0	0	981.4	NA	0.0000		9999	390	0	0	0
2017/11/23 03:13:00	BASE	2.04	313	2.21	314	-2.4	100	-2.4	0	0	981.4	NA	0.0000	-SN	9999	390	0	0	0
2017/11/23 03:14:00	BASE	1.93	312	2.21	314	-2.4	100	-2.4	0	0	981.4	NA	0.0000	-SN	9999	390	0	0	0
2017/11/23 03:15:00	BASE	1.88	312	2.21	314	-2.4	100	-2.4	0	0	981.4	NA	0.0000	-SN	9999	360	1540	0	0
2017/11/23 03:16:00	BASE	1.92	314	2.21	314	-2.3	100	-2.3	0	0	981.4	NA	0.0000	-SN	9999	360	1480	0	0
2017/11/23 03:17:00	BASE	1.86	313	2.21	314	-2.3	100	-2.3	0	0	981.4	NA	0.0000	-SN	9999	330	1410	0	0
2017/11/23 03:18:00	BASE	1.85	308	2.21	314	-2.3	100	-2.3	0	0	981.4	NA	0.0000	-SN	9999	330	1410	0	0
2017/11/23 03:19:00	BASE	2.01	308	2.21	314	-2.3	100	-2.3	0	0	981.4	NA	0.0000	-SN	9999	330	0	0	0
2017/11/23 03:20:00	BASE	2.04	308	2.37	308	-2.3	100	-2.3	0	0	981.4	NA	0.0000	-SN	9999	330	1410	0	0
2017/11/23 03:21:00	BASE	2.14	306	2.42	307	-2.3	100	-2.3	0	0	981.4	NA	0.0000	-SN	9999	330	1380	0	0
2017/11/23 03:22:00	BASE	2.20	308	2.42	307	-2.3	100	-2.3	0	0	981.4	NA	0.0000	-SN	9999	330	0	0	0
2017/11/23 03:23:00	BASE	2.21	311	2.52	317	-2.3	100	-2.3	0	0	981.4	NA	0.0000	-SN	9999	330	0	0	0
2017/11/23 03:24:00	BASE	2.29	315	2.52	316	-2.3	100	-2.3	0	0	981.4	NA	0.0000	-SN	9999	330	1310	0	0
2017/11/23 03:25:00	BASE	2.33	316	2.52	316	-2.3	100	-2.3	0	0	981.4	NA	0.0000		9999	330	1310	0	0
2017/11/23 03:26:00	BASE	2.30	317	2.52	316	-2.3	100	-2.3	0	0	981.4	NA	0.0000		9999	330	1380	0	0
2017/11/23 03:27:00	BASE	2.16	320	2.52	316	-2.3	100	-2.3	0	0	981.4	NA	0.0000		9999	300	1380	0	0
2017/11/23 03:28:00	BASE	2.12	324	2.52	316	-2.3	100	-2.3	0	0	981.4	NA	0.0000	-SN	9999	330	1380	0	0
2017/11/23 03:29:00	BASE	2.18	325	2.52	316	-2.4	100	-2.4	0	0	981.4	NA	0.0000	-SN	9999	330	0	0	0
2017/11/23 03:30:00	BASE	2.19	324	2.52	316	-2.4	100	-2.4	0	0	981.4	NA	0.0000	-SN	9999	330	0	0	0
2017/11/23 03:31:00	BASE	2.18	322	2.52	316	-2.4	100	-2.4	0	0	981.4	NA	0.0000	-SN	9999	330	0	0	0
2017/11/23 03:32:00	BASE	2.13	322	2.52	316	-2.4	100	-2.4	0	0	981.4	NA	0.0000	-SN	9999	300	0	0	0
2017/11/23 03:33:00	BASE	2.03	321	2.52	316	-2.4	100	-2.4	0	0	981.4	NA	0.0000	-SN	8000	300	0	0	0
2017/11/23 03:34:00	BASE	1.97	316	2.47	316	-2.3	100	-2.3	0	0	981.4	NA	0.0000	-SN	7000	300	0	0	0
2017/11/23 03:35:00	BASE	2.07	310	2.47	312	-2.3	100	-2.3	0	0	981.4	NA	0.0000	-SN	7000	300	1410	0	0
2017/11/23 03:36:00	BASE	2.16	309	2.47	312	-2.3	100	-2.3	0	0	981.4	NA	0.0000	-SN	7000	330	1350	0	0
2017/11/23 03:37:00	BASE	2.11	308	2.47	312	-2.3	100	-2.3	0	0	981.4	NA	0.0000	-SN BR	9999	330	1280	0	0
2017/11/23 03:38:00	BASE	2.10	307	2.47	312	-2.3	100	-2.3	0	0	981.4	NA	0.0000	-SN BR	9000	360	1250	0	0
2017/11/23 03:39:00	BASE	2.17	306	2.47	312	-2.3	100	-2.3	0	0	981.4	NA	0.0000	-SN BR	8000	360	0	0	0
2017/11/23 03:40:00	BASE	2.33	305	2.57	303	-2.3	100	-2.3	0	0	981.4	NA	0.0000	-SN BR	9999	390	0	0	0
2017/11/23 03:41:00	BASE	2.42	302	2.57	303	-2.3	100	-2.3	0	0	981.3	NA	0.0000	-SN BR	9999	360	0	0	0
2017/11/23 03:42:00	BASE	2.39	300	2.57	303	-2.4	100	-2.4	0	0	981.3	NA	0.0000	-SN BR	9000	360	0	0	0
2017/11/23 03:43:00	BASE	2.30	301	2.57	303	-2.4	100	-2.4	0	0	981.2	NA	0.0000	-SN BR	9999	360	0	0	0
2017/11/23 03:44:00	BASE	2.27	307	2.57	303	-2.3	100	-2.3	0	0	981.2	NA	0.0000	-SN BR	9999	330	0	0	0
2017/11/23 03:45:00	BASE	2.42	310	2.62	309	-2.3	100	-2.3	0	0	981.2	NA	0.0000	-SN BR	9999	330	0	0	0
2017/11/23 03:46:00	BASE	2.45	309	2.62	309	-2.3	100	-2.3	0	0	981.2	NA	0.0000	-SN	9999	330	0	0	0
2017/11/23 03:47:00	BASE	2.50	306	2.78	302	-2.3	100	-2.3	0	0	981.2	NA	0.0000	-SN	9999	300	0	0	0
2017/11/23 03:48:00	BASE	2.63	302	2.93	301	-2.3	100	-2.3	0	0	981.2	NA	0.0000	-SN	9999	260	0	0	0
2017/11/23 03:49:00	BASE	2.61	301	2.93	301	-2.3	100	-2.3	0	0	981.2	NA	0.0000	-SN	9999	0	0	0	1610
2017/11/23 03:50:00	BASE	2.64	302	2.93	300	-2.3	100	-2.3	0	0	981.2	NA	0.0000	-SN	9999	230	0	0	0
2017/11/23 03:51:00	BASE	2.86	305	3.24	303	-2.3	100	-2.3	0	0	981.2	NA	0.0000	-SN	9999	260	0	0	0
2017/11/23 03:52:00	BASE	3.06	310	3.24	315	-2.3	100	-2.3	0	0	981.2	NA	0.0000	-SN	9999	0	0	0	1670
2017/11/23 03:53:00	BASE	3.14	314	3.24	315	-2.3	100	-2.3	0	0	981.2	NA	0.0000	-SN	9999	260	0	0	0
2017/11/23 03:54:00	BASE	3.09	316	3.24	315	-2.3	100	-2.3	0	0	981.2	NA	0.0000	-SN	9999	260	0	0	0
2017/11/23 03:55:00	BASE	3.08	314	3.45	309	-2.3	100	-2.3	0	0	981.2	NA	0.0000	-SN	9999	300	0	0	0
2017/11/23 03:56:00	BASE	3.17	312	3.45	309	-2.3	100	-2.3	0	0	981.2	NA	0.0000	-SN	9999	300	1410	0	0
2017/11/23 03:57:00	BASE	3.17	312	3.45	309	-2.3	100	-2.3	0	0	981.2	NA	0.0000	-SN	9999	330	1410	0	0
2017/11/23 03:58:00	BASE	3.00	317	3.45	309	-2.3	100	-2.3	0	0	981.2	NA	0.0000	-SN	9999	330	0	0	0
2017/11/23 03:59:00	BASE	2.96	322	3.45	321	-2.3	100	-2.3	0	0	981.2	NA	0.0000	-SN	9999	360	0	0	0
2017/11/23 04:00:00	BASE	3.10	323	3.70	323	-2.3	100	-2.3	0	0	981.2	NA	0.0000	-SN	9999	390	0	0	0
2017/11/23 04:01:00	BASE	3.46	322	3.86	321	-2.3	100	-2.3	0	0	981.2	NA	0.0000	-SN	9999	390	0	0	0
2017/11/23 04:02:00	BASE	3.73	320	3.91	319	-2.3	100	-2.3	0	0	981.2	NA	0.0000	-SN	9999	430	0	0	0
2017/11/23 04:03:00	BASE	3.82	320	4.01	319	-2.3	100	-2.3	0	0	981.2	NA	0.0000		9999	390	0	0	0
2017/11/23 04:04:00	BASE	3.87	320	4.01	320	-2.3	100	-2.3	0	0	981.2	NA	0.0000		9999	390	0	0	0
2017/11/23 04:05:00	BASE	3.70	319	4.01	320	-2.3	100	-2.3	0	0	981.2	NA	0.0000		9999	390	0	0	0
2017/11/23 04:06:00	BASE	3.52	317	4.01	320	-2.3	100	-2.3	0	0	981.2	NA	0.0000		9999	390	0	0	0
2017/11/23 04:07:00	BASE	3.63	315	4.12	318	-2.3	100	-2.3	0	0	981.2	NA	0.0000		9999	390	0	0	0
2017/11/23 04:08:00	BASE	3.76	316	4.12	318	-2.3	100	-2.3	0	0	981.2	NA	0.0000		9999	390	0	0	0
2017/11/23 04:09:00	BASE	3.98	317	4.32	318	-2.3	100	-2.3	0	0	981.2	NA	0.0000		9999	390	0	0	0
2017/11/23 04:10:00	BASE	4.22	318	4.37	315	-2.3	100	-2.3	0	0	981.2	NA	0.0000		9999	390	0	0	0
2017/11/23 04:11:00	BASE	4.16	318	4.37	315	-2.3	100	-2.3	0	0	981.2	NA	0.0000		9999	390	0	0	0
2017/11/23 04:12:00	BASE	4.11	318	4.37	315	-2.4	100	-2.4	0	0	981.2	NA	0.0000		9999	390	0	0	0
2017/11/23 04:13:00	BASE	4.02	319	4.37	315	-2.3	100	-2.3	0	0	981.2	NA	0.0000		9999	390	0	0	0
2017/11/23 04:14:00	BASE	3.93	320	4.37	315	-2.3	100	-2.3	0	0	981.2	NA	0.0000		9999	430	0	0	0
2017/11/23 04:15:00	BASE	4.09	321	4.53	320	-2.3	100	-2.3	0	0	981.2	NA	0.0000		9999	390	0	0	0
2017/11/23 04:16:00	BASE	4.16	322	4.53	320	-2.3	100	-2.3	0	0	981.2	NA	0.0000		9999	390	0	0	0
2017/11/23 04:17:00	BASE	4.00	323	4.53	320	-2.3	100	-2.3	0	0	981.2	NA	0.0000		9999	560	0	0	0
2017/11/23 04:18:00	BASE	4.01	325	4.53	320	-2.3	100	-2.3	0	0	981.2	NA	0.0000		9999	520	0	0	0
2017/11/23 04:19:00	BASE	3.96	325	4.53	320	-2.3	100	-2.3	0	0	981.2	NA	0.0000		9999	560	0	0	0
2017/11/23 04:20:00	BASE	3.87	325	4.53	320	-2.3	100	-2.3	0	0	981.2	NA	0.0000		9999	560	0	0	0
2017/11/23 04:21:00	BASE	4.05	327	4.68	325	-2.3	100	-2.3	0	0	981.2	NA	0.0000		9999	560	0	0	0
2017/11/23 04:22:00	BASE	4.08	324	4.84	324	-2.3	100	-2.3	0	0	981.2	NA	0.0000		9999	520	0	0	0
2017/11/23 04:23:00	BASE	4.35	324	4.89	327	-2.2	100	-2.2	0	0	981.2	NA	0.0000		9999	460	0	0	0
2017/11/23 04:24:00	BASE	4.28	323	4.89	327	-2.2	100	-2.2	0	0	981.2	NA	0.0000		9999	490	0	0	0
2017/11/23 04:25:00	BASE	3.78	320	4.89	327	-2.2	100	-2.2	0	0	981.2	NA	0.0000		9999	460	0	0	0
2017/11/23 04:26:00	BASE	3.71	320	4.89	327	-2.2	100	-2.2	0	0	981.2	NA	0.0000		9999	460	0	0	0
2017/11/23 04:27:00	BASE	3.88	321	4.89	327	-2.3	100	-2.3	0	0	981.2	NA	0.0000		9999	460	0	0	0
2017/11/23 04:28:00	BASE	4.06	319	4.89	327	-2.3	100	-2.3	0	0	981.2	NA	0.0000		9999	460	0	0	0
2017/11/23 04:29:00	BASE	3.95	315	4.89	327	-2.3	100	-2.3	0	0	981.2	NA	0.0000		9999	460	0	0	0
2017/11/23 04:30:00	BASE	3.77	313	4.89	327	-2.3	100	-2.3	0	0	981.2	NA	0.0000		9999	430	0	0	0
2017/11/23 04:31:00	BASE	3.57	314	4.89	327	-2.3	100	-2.3	0	0	981.2	NA	0.0000	UP	9999	430	0	0	0
2017/11/23 04:32:00	BASE	3.83	312	4.89	327	-2.3	100	-2.3	0	0	981.2	NA	0.0000	UP	9999	430	0	0	0
2017/11/23 04:33:00	BASE	4.02	315	4.68	314	-2.2	100	-2.2	0	0	981.2	NA	0.0000	UP	9999	430	0	0	0
2017/11/23 04:34:00	BASE	4.05	315	4.78	308	-2.2	100	-2.2	0	0	981.1	NA	0.0000	UP	9999	390	0	0	0
2017/11/23 04:35:00	BASE	4.03	312	4.78	308	-2.2	100	-2.2	0	0	981.1	NA	0.0000	UP	9999	460	0	0	0
2017/11/23 04:36:00	BASE	3.72	311	4.78	308	-2.2	100	-2.2	0	0	981.2	NA	0.0000	UP	9999	460	0	0	0
2017/11/23 04:37:00	BASE	3.62	308	4.78	308	-2.2	100	-2.2	0	0	981.1	NA	0.0000	UP	9999	460	0	0	0
2017/11/23 04:38:00	BASE	3.73	310	4.78	308	-2.2	100	-2.2	0	0	981.1	NA	0.0000	UP	9999	390	0	0	0
2017/11/23 04:39:00	BASE	3.68	317	4.78	308	-2.2	100	-2.2	0	0	981.0	NA	0.0000	UP	9999	390	0	0	0
2017/11/23 04:40:00	BASE	3.45	317	4.78	308	-2.1	100	-2.1	0	0	981.0	NA	0.0000		9999	390	0	0	0
2017/11/23 04:41:00	BASE	3.43	305	4.78	308	-2.1	100	-2.1	0	0	981.0	NA	0.0000		9999	390	0	0	0
2017/11/23 04:42:00	BASE	3.40	298	4.78	308	-2.1	100	-2.1	0	0	981.0	NA	0.0000		9999	390	0	0	0
2017/11/23 04:43:00	BASE	3.14	301	4.78	308	-2.0	100	-2.0	0	0	981.0	NA	0.0000		9999	390	0	0	0
2017/11/23 04:44:00	BASE	3.14	309	4.32	305	-2.0	100	-2.0	0	0	981.0	NA	0.0000		9999	360	0	0	0
2017/11/23 04:45:00	BASE	3.06	312	4.32	305	-2.0	100	-2.0	0	0	981.0	NA	0.0000		9999	360	0	0	0
2017/11/23 04:46:00	BASE	2.64	300	4.32	305	-2.0	100	-2.0	0	0	981.0	NA	0.0000		9999	390	0	0	0
2017/11/23 04:47:00	BASE	2.19	291	4.32	305	-2.0	100	-2.0	0	0	981.0	NA	0.0000		9999	360	0	0	0
2017/11/23 04:48:00	BASE	2.12	287	4.01	323	-2.0	100	-2.0	0	0	981.0	NA	0.0000		9999	360	0	0	0
2017/11/23 04:49:00	BASE	2.26	263	3.96	312	-2.0	100	-2.0	0	0	981.0	NA	0.0000		9999	460	0	0	0
2017/11/23 04:50:00	BASE	1.97	251	3.96	312	-1.9	100	-1.9	0	0	981.0	NA	0.0000		9999	490	0	0	0
2017/11/23 04:51:00	BASE	1.81	254	3.96	312	-1.9	100	-1.9	0	0	981.0	NA	0.0000	UP	9999	460	0	0	0
2017/11/23 04:52:00	BASE	2.16	246	3.96	312	-1.9	100	-1.9	0	0	981.0	NA	0.0000	UP	9999	460	0	0	0
2017/11/23 04:53:00	BASE	2.52	251	3.96	312	-1.9	100	-1.9	0	0	981.0	NA	0.0000	UP	9999	430	0	0	0
2017/11/23 04:54:00	BASE	2.49	260	3.29	262	-1.9	100	-1.9	0	0	981.0	NA	0.0000	UP	9999	430	0	0	0
2017/11/23 04:55:00	BASE	2.86	257	3.86	233	-1.9	100	-1.9	0	0	981.0	NA	0.0000	UP	9999	490	0	0	0
2017/11/23 04:56:00	BASE	2.95	256	3.86	233	-1.9	100	-1.9	0	0	981.0	NA	0.0000	UP	9999	590	0	0	0
2017/11/23 04:57:00	BASE	2.65	257	3.86	233	-1.9	100	-1.9	0	0	981.0	NA	0.0000	UP	9999	520	0	0	0
2017/11/23 04:58:00	BASE	2.41	253	3.86	233	-1.9	100	-1.9	0	0	981.0	NA	0.0000	UP	9999	520	0	0	0
2017/11/23 04:59:00	BASE	2.03	249	3.86	233	-1.8	100	-1.8	0	0	981.0	NA	0.0000	UP	9999	560	0	0	0
2017/11/23 05:00:00	BASE	2.40	251	3.86	233	-1.8	100	-1.8	0	0	981.0	NA	0.0000	UP	9999	490	0	0	0
2017/11/23 05:01:00	BASE	2.80	252	3.86	233	-1.8	100	-1.8	0	0	981.0	NA	0.0000	UP	9999	460	0	0	0
2017/11/23 05:02:00	BASE	2.86	244	3.91	233	-1.8	100	-1.8	0	0	981.0	NA	0.0000	UP	9999	460	0	0	0
2017/11/23 05:03:00	BASE	2.81	242	3.91	233	-1.8	100	-1.8	0	0	981.0	NA	0.0000	UP	9999	490	0	0	0
2017/11/23 05:04:00	BASE	2.45	247	3.91	233	-1.8	100	-1.8	0	0	981.0	NA	0.0000	UP	9999	460	0	0	0
2017/11/23 05:05:00	BASE	2.29	250	3.91	233	-1.8	100	-1.8	0	0	981.0	NA	0.0000	UP	9999	490	0	0	0
2017/11/23 05:06:00	BASE	2.23	247	3.91	233	-1.8	100	-1.8	0	0	981.0	NA	0.0000	UP	9999	390	0	0	0
2017/11/23 05:07:00	BASE	2.16	248	3.91	233	-1.8	100	-1.8	0	0	981.0	NA	0.0000	UP	9999	430	0	0	0
2017/11/23 05:08:00	BASE	2.03	252	3.91	233	-1.8	100	-1.8	0	0	981.0	NA	0.0000	UP	9999	390	0	0	0
2017/11/23 05:09:00	BASE	1.95	254	3.91	233	-1.8	100	-1.8	0	0	981.0	NA	0.0000	UP	9999	390	0	0	0
2017/11/23 05:10:00	BASE	1.67	252	3.91	233	-1.8	100	-1.8	0	0	981.0	NA	0.0000		9999	430	0	0	0
2017/11/23 05:11:00	BASE	1.89	244	3.91	233	-1.8	100	-1.8	0	0	981.0	NA	0.0000		9999	460	0	0	0
2017/11/23 05:12:00	BASE	2.47	242	4.94	232	-1.7	100	-1.7	0	0	981.0	NA	0.0000		9999	490	0	0	0
2017/11/23 05:13:00	BASE	3.43	241	4.99	230	-1.7	100	-1.7	0	0	981.0	NA	0.0000		9999	520	0	0	0
2017/11/23 05:14:00	BASE	4.13	232	4.99	230	-1.7	100	-1.7	0	0	981.0	NA	0.0000		9999	490	0	0	0
2017/11/23 05:15:00	BASE	4.06	230	4.99	230	-1.7	100	-1.7	0	0	981.0	NA	0.0000		9999	660	0	0	0
2017/11/23 05:16:00	BASE	4.04	228	4.99	230	-1.6	100	-1.6	0	0	981.0	NA	0.0000		9999	620	0	0	0
2017/11/23 05:17:00	BASE	3.78	231	4.99	230	-1.6	100	-1.6	0	0	981.0	NA	0.0000		9999	560	0	0	0
2017/11/23 05:18:00	BASE	3.88	235	4.99	230	-1.6	100	-1.6	0	0	981.0	NA	0.0000		9999	520	0	0	0
2017/11/23 05:19:00	BASE	4.13	235	4.99	230	-1.6	100	-1.6	0	0	981.0	NA	0.0000		9999	490	0	0	0
2017/11/23 05:20:00	BASE	4.14	236	4.99	230	-1.6	100	-1.6	0	0	981.0	NA	0.0000		9999	520	0	0	0
2017/11/23 05:21:00	BASE	4.16	239	5.30	234	-1.6	100	-1.6	0	0	981.0	NA	0.0000		9999	560	0	0	0
2017/11/23 05:22:00	BASE	4.55	240	5.81	241	-1.6	100	-1.6	0	0	980.9	NA	0.0000		9999	560	0	0	0
2017/11/23 05:23:00	BASE	5.04	235	5.97	230	-1.6	100	-1.6	0	0	980.9	NA	0.0000		9999	560	0	0	0
2017/11/23 05:24:00	BASE	5.42	235	6.48	236	-1.6	100	-1.6	0	1	980.9	NA	0.0000		9999	520	2170	0	0
2017/11/23 05:25:00	BASE	5.27	234	6.48	236	-1.6	100	-1.6	0	0	980.9	NA	0.0000		9999	460	2170	0	0
2017/11/23 05:26:00	BASE	4.78	233	6.48	236	-1.6	100	-1.6	0	1	980.9	NA	0.0000		9999	490	0	0	0
2017/11/23 05:27:00	BASE	5.11	237	6.48	236	-1.6	100	-1.6	0	0	980.9	NA	0.0000		9999	620	2200	0	0
2017/11/23 05:28:00	BASE	5.48	236	6.48	236	-1.6	100	-1.6	0	1	980.9	NA	0.0000		9999	490	0	0	0
2017/11/23 05:29:00	BASE	5.55	235	6.48	236	-1.6	100	-1.6	0	1	980.9	NA	0.0000		9999	1740	0	0	0
2017/11/23 05:30:00	BASE	5.37	236	6.48	236	-1.7	100	-1.7	0	1	980.9	NA	0.0000		9999	850	0	0	0
2017/11/23 05:31:00	BASE	5.50	237	6.69	235	-1.7	100	-1.7	0	1	980.9	NA	0.0000		9999	360	980	0	0
2017/11/23 05:32:00	BASE	6.07	237	6.94	234	-1.7	100	-1.7	0	1	980.9	NA	0.0000		9999	260	920	0	0
2017/11/23 05:33:00	BASE	5.97	234	6.94	234	-1.7	100	-1.7	0	1	980.9	NA	0.0000		8000	390	1840	0	0
2017/11/23 05:34:00	BASE	6.01	233	7.31	229	-1.7	100	-1.7	0	1	980.9	NA	0.0000		9999	390	1770	0	0
2017/11/23 05:35:00	BASE	6.40	232	7.31	221	-1.7	100	-1.7	0	1	980.9	NA	0.0000		9999	720	1670	0	0
2017/11/23 05:36:00	BASE	6.66	229	7.77	230	-1.7	100	-1.7	0	1	980.9	NA	0.0000		9999	620	0	0	0
2017/11/23 05:37:00	BASE	6.66	228	7.77	230	-1.8	100	-1.8	0	1	980.9	NA	0.0000		9999	1670	0	0	0
2017/11/23 05:38:00	BASE	6.48	228	7.77	230	-1.8	100	-1.8	0	1	980.9	NA	0.0000		9999	430	0	0	0
2017/11/23 05:39:00	BASE	5.91	228	7.77	230	-1.8	100	-1.8	0	1	980.9	NA	0.0000		9999	430	0	0	0
2017/11/23 05:40:00	BASE	5.30	229	7.77	230	-1.8	100	-1.8	0	1	980.8	NA	0.0000		9999	300	0	0	0
2017/11/23 05:41:00	BASE	5.49	231	7.77	230	-1.8	100	-1.8	0	1	980.9	NA	0.0000	UP	9000	260	850	0	0
2017/11/23 05:42:00	BASE	5.28	231	7.77	230	-1.8	100	-1.8	0	1	980.9	NA	0.0000	UP	5000	0	0	0	1280
2017/11/23 05:43:00	BASE	4.86	230	7.77	230	-1.8	100	-1.8	0	1	980.9	NA	0.0000	UP BR	4200	0	0	0	1180
2017/11/23 05:44:00	BASE	4.88	229	7.77	230	-1.8	100	-1.8	0	1	980.9	NA	0.0000	UP BR	3100	0	0	0	1210
2017/11/23 05:45:00	BASE	4.71	229	7.77	230	-1.8	100	-1.8	0	1	980.9	NA	0.0000	UP BR	4400	0	0	0	1310
2017/11/23 05:46:00	BASE	4.82	231	7.05	227	-1.8	100	-1.8	0	1	980.8	NA	0.0000	UP BR	6000	330	2030	0	0
2017/11/23 05:47:00	BASE	5.12	231	7.00	230	-1.8	100	-1.8	0	1	980.9	NA	0.0000	UP BR	8000	660	1610	0	0
2017/11/23 05:48:00	BASE	5.15	233	6.38	235	-1.8	100	-1.8	0	1	980.9	NA	0.0000	UP BR	9999	460	0	0	0
2017/11/23 05:49:00	BASE	5.47	234	6.22	233	-1.8	100	-1.8	0	1	980.9	NA	0.0000	UP BR	9999	300	950	0	0
2017/11/23 05:50:00	BASE	5.62	232	6.22	233	-1.8	100	-1.8	0	1	980.9	NA	0.0000	UP BR	9999	360	0	0	0
2017/11/23 05:51:00	BASE	5.07	232	6.12	232	-1.8	100	-1.8	0	1	980.8	NA	0.0000	UP BR	9999	300	0	0	0
2017/11/23 05:52:00	BASE	4.93	232	6.12	232	-1.8	100	-1.8	0	1	980.8	NA	0.0000	UP BR	9999	390	0	0	0
2017/11/23 05:53:00	BASE	5.25	230	6.12	232	-1.8	100	-1.8	0	1	980.8	NA	0.0000	UP BR	9999	590	0	0	0
2017/11/23 05:54:00	BASE	5.23	228	6.38	222	-1.8	100	-1.8	0	1	980.8	NA	0.0000	UP BR	9999	300	0	0	0
2017/11/23 05:55:00	BASE	5.13	227	6.38	222	-1.8	100	-1.8	0	1	980.8	NA	0.0000	UP BR	9999	520	0	0	0
2017/11/23 05:56:00	BASE	5.09	229	6.38	222	-1.8	100	-1.8	0	1	980.8	NA	0.0000	UP	9999	590	0	0	0
2017/11/23 05:57:00	BASE	5.67	233	7.36	233	-1.8	100	-1.8	0	1	980.8	NA	0.0000	UP	9999	590	0	0	0
2017/11/23 05:58:00	BASE	6.28	235	7.36	233	-1.8	100	-1.8	0	1	980.8	NA	0.0000	UP	9999	620	0	0	0
2017/11/23 05:59:00	BASE	6.74	235	7.87	236	-1.8	100	-1.8	0	1	980.8	NA	0.0000	UP	9999	620	0	0	0
2017/11/23 06:00:00	BASE	6.84	234	7.87	236	-1.8	100	-1.8	0	1	980.8	NA	0.0000	UP	9999	620	0	0	0
2017/11/23 06:01:00	BASE	6.39	235	7.87	236	-1.8	100	-1.8	0	1	980.8	NA	0.0000	UP	9999	620	0	0	0
2017/11/23 06:02:00	BASE	6.42	236	7.87	236	-1.8	100	-1.8	0	1	980.8	NA	0.0000	UP	9999	560	0	0	0
2017/11/23 06:03:00	BASE	7.03	235	8.59	227	-1.8	100	-1.8	0	1	980.7	NA	0.0000	UP	9999	590	0	0	0
2017/11/23 06:04:00	BASE	7.60	234	8.59	227	-1.8	100	-1.8	0	1	980.7	NA	0.0000	UP	9999	660	0	0	0
2017/11/23 06:05:00	BASE	7.41	234	8.59	227	-1.8	100	-1.8	0	1	980.8	NA	0.0000		9999	560	0	0	0
2017/11/23 06:06:00	BASE	7.41	233	8.64	225	-1.8	100	-1.8	0	1	980.7	NA	0.0000		9999	490	0	0	0
2017/11/23 06:07:01	BASE	7.38	231	8.64	225	-1.8	100	-1.8	0	1	980.7	NA	0.0000		9999	620	0	0	0
2017/11/23 06:08:00	BASE	7.17	233	8.64	225	-1.8	100	-1.8	0	2	980.7	NA	0.0000		9999	690	0	0	0
2017/11/23 06:09:00	BASE	7.48	234	8.64	225	-1.8	100	-1.8	1	2	980.7	NA	0.0000		9999	620	0	0	0
2017/11/23 06:10:00	BASE	7.18	231	8.64	225	-1.8	100	-1.8	1	2	980.8	NA	0.0000		9999	620	0	0	0
2017/11/23 06:11:01	BASE	6.80	229	8.69	225	-1.8	100	-1.8	1	2	980.7	NA	0.0000		9999	660	0	0	0
2017/11/23 06:12:00	BASE	7.66	230	8.95	226	-1.8	100	-1.8	1	2	980.7	NA	0.0000		9999	660	0	0	0
2017/11/23 06:13:00	BASE	7.88	232	8.95	226	-1.9	100	-1.9	1	2	980.7	NA	0.0000		9999	690	0	0	0
2017/11/23 06:14:00	BASE	6.70	234	8.95	226	-1.9	100	-1.9	1	2	980.8	NA	0.0000		9999	620	0	0	0
2017/11/23 06:15:00	BASE	6.25	234	8.95	226	-1.9	100	-1.9	1	2	980.8	NA	0.0000		9999	590	0	0	0
2017/11/23 06:16:00	BASE	6.68	230	8.95	226	-1.9	100	-1.9	1	2	980.8	NA	0.0000		9999	660	0	0	0
2017/11/23 06:17:00	BASE	6.62	229	8.95	226	-1.9	100	-1.9	1	2	980.7	NA	0.0000		9999	690	0	0	0
2017/11/23 06:18:00	BASE	6.49	233	8.95	226	-1.8	100	-1.8	1	2	980.7	NA	0.0000		9999	660	0	0	0
2017/11/23 06:19:00	BASE	6.92	232	8.95	226	-1.8	100	-1.8	1	3	980.7	NA	0.0000		9999	590	0	0	0
2017/11/23 06:20:00	BASE	7.20	231	8.95	226	-1.8	100	-1.8	1	3	980.7	NA	0.0000		9999	590	0	0	0
2017/11/23 06:21:00	BASE	7.40	232	9.05	233	-1.8	100	-1.8	1	3	980.7	NA	0.0000		9999	690	0	0	0
2017/11/23 06:22:00	BASE	7.64	233	9.05	233	-1.8	100	-1.8	1	3	980.7	NA	0.0000		9999	690	0	0	0
2017/11/23 06:23:00	BASE	7.97	233	9.05	233	-1.8	100	-1.8	1	3	980.7	NA	0.0000		9999	690	0	0	0
2017/11/23 06:24:00	BASE	8.20	233	9.05	233	-1.9	100	-1.9	1	3	980.7	NA	0.0000		9999	690	0	0	0
2017/11/23 06:25:00	BASE	7.99	232	9.05	233	-1.9	100	-1.9	1	3	980.7	NA	0.0000		9999	660	0	0	0
2017/11/23 06:26:00	BASE	7.80	233	9.05	233	-1.9	100	-1.9	1	3	980.7	NA	0.0000		9999	690	0	0	0
2017/11/23 06:27:00	BASE	7.70	236	9.26	237	-1.9	100	-1.9	1	3	980.6	NA	0.0000		9999	590	0	0	0
2017/11/23 06:28:00	BASE	7.63	234	9.26	237	-1.9	100	-1.9	1	3	980.7	NA	0.0000		9999	590	0	0	0
2017/11/23 06:29:00	BASE	7.12	231	9.26	237	-1.9	100	-1.9	1	3	980.7	NA	0.0000		9999	590	0	0	0
2017/11/23 06:30:00	BASE	7.03	233	9.26	237	-1.9	100	-1.9	1	3	980.7	NA	0.0000		9999	330	0	0	0
2017/11/23 06:31:00	BASE	7.82	233	9.26	237	-1.9	100	-1.9	1	4	980.6	NA	0.0000		9999	360	0	0	0
2017/11/23 06:32:01	BASE	8.17	231	9.26	237	-1.9	100	-1.9	1	4	980.7	NA	0.0000	UP	9999	360	0	0	0
2017/11/23 06:33:01	BASE	7.95	230	9.26	237	-1.9	100	-1.9	1	4	980.6	NA	0.0000	UP	9999	590	0	0	0
2017/11/23 06:34:01	BASE	7.75	232	9.26	237	-1.9	100	-1.9	1	4	980.6	NA	0.0000	UP	9999	590	0	0	0
2017/11/23 06:35:00	BASE	8.02	230	9.41	224	-1.9	100	-1.9	1	5	980.6	NA	0.0000	UP	9999	590	0	0	0
2017/11/23 06:36:00	BASE	7.81	229	9.41	224	-1.9	100	-1.9	1	5	980.6	NA	0.0000	UP	9999	590	0	0	0
2017/11/23 06:37:00	BASE	7.75	229	9.41	224	-1.9	100	-1.9	1	5	980.6	NA	0.0000	UP	9999	690	1380	0	0
2017/11/23 06:38:00	BASE	8.00	228	9.41	224	-1.9	100	-1.9	1	5	980.6	NA	0.0000	UP	9999	660	0	0	0
2017/11/23 06:39:01	BASE	7.97	229	9.41	224	-1.9	100	-1.9	1	5	980.6	NA	0.0000	UP	9999	660	0	0	0
2017/11/23 06:40:00	BASE	7.92	230	9.41	224	-1.9	100	-1.9	2	6	980.6	NA	0.0000	UP	9999	590	0	0	0
2017/11/23 06:41:00	BASE	7.79	230	9.41	224	-1.9	100	-1.9	1	6	980.6	NA	0.0000	UP	9999	590	0	0	0
2017/11/23 06:42:00	BASE	7.80	228	9.41	224	-1.9	100	-1.9	1	5	980.6	NA	0.0000		9999	620	0	0	0
2017/11/23 06:43:01	BASE	7.64	229	9.41	224	-1.9	100	-1.9	1	5	980.6	NA	0.0000		9999	620	0	0	0
2017/11/23 06:44:01	BASE	7.52	231	9.41	224	-1.9	100	-1.9	1	6	980.6	NA	0.0000		9999	560	0	0	0
2017/11/23 06:45:01	BASE	7.88	232	9.41	225	-1.9	100	-1.9	1	6	980.6	NA	0.0000		9999	660	0	0	0
2017/11/23 06:46:01	BASE	7.83	231	9.41	225	-1.9	100	-1.9	1	6	980.6	NA	0.0000		9999	660	0	0	0
2017/11/23 06:47:01	BASE	7.83	231	9.67	234	-1.9	100	-1.9	1	6	980.6	NA	0.0000		9999	690	0	0	0
2017/11/23 06:48:01	BASE	8.95	232	10.34	229	-1.9	100	-1.9	2	6	980.5	NA	0.0000		9999	720	0	0	0
2017/11/23 06:49:01	BASE	8.80	228	10.34	229	-1.9	100	-1.9	2	7	980.6	NA	0.0000		9999	720	0	0	0
2017/11/23 06:50:01	BASE	8.22	228	10.34	229	-1.9	100	-1.9	2	8	980.6	NA	0.0000		9999	720	0	0	0
2017/11/23 06:51:01	BASE	8.37	228	10.34	229	-1.9	100	-1.9	2	8	980.5	NA	0.0000		9999	720	0	0	0
2017/11/23 06:52:01	BASE	8.60	226	10.34	229	-1.9	100	-1.9	2	8	980.5	NA	0.0000		9999	720	0	0	0
2017/11/23 06:53:01	BASE	8.33	228	10.34	229	-1.9	100	-1.9	2	9	980.6	NA	0.0000		9999	720	0	0	0
2017/11/23 06:54:01	BASE	8.27	230	10.34	229	-1.9	100	-1.9	2	9	980.5	NA	0.0000		9999	690	0	0	0
2017/11/23 06:55:01	BASE	8.75	230	10.60	231	-1.9	100	-1.9	2	9	980.5	NA	0.0000		9999	720	0	0	0
2017/11/23 06:56:01	BASE	9.14	232	10.60	231	-1.9	100	-1.9	2	9	980.5	NA	0.0000		9999	720	0	0	0
2017/11/23 06:57:01	BASE	9.49	232	10.60	231	-1.9	100	-1.9	2	9	980.4	NA	0.0000		9999	750	0	0	0
2017/11/23 06:58:01	BASE	9.21	229	10.60	231	-1.9	100	-1.9	2	9	980.5	NA	0.0000		9999	690	0	0	0
2017/11/23 06:59:01	BASE	8.76	228	10.60	231	-1.9	100	-1.9	2	9	980.5	NA	0.0000		9999	690	0	0	0
2017/11/23 07:00:01	BASE	8.11	229	10.60	231	-1.9	100	-1.9	2	9	980.5	NA	0.0000		9999	620	0	0	0
2017/11/23 07:01:01	BASE	7.49	229	10.60	231	-1.9	100	-1.9	2	10	980.6	NA	0.0000		9999	660	0	0	0
2017/11/23 07:02:01	BASE	7.85	230	10.60	231	-1.9	100	-1.9	3	10	980.5	NA	0.0000		9999	620	0	0	0
2017/11/23 07:03:01	BASE	8.96	230	10.60	231	-1.9	100	-1.9	2	10	980.5	NA	0.0000		9999	720	0	0	0
2017/11/23 07:04:01	BASE	8.85	229	10.60	231	-1.9	100	-1.9	2	9	980.6	NA	0.0000		9999	690	0	0	0
2017/11/23 07:05:01	BASE	8.65	231	10.55	232	-1.9	100	-1.9	2	10	980.6	NA	0.0000		9999	690	0	0	0
2017/11/23 07:06:01	BASE	8.84	230	10.44	231	-2.0	100	-2.0	3	10	980.6	NA	0.0000		9999	620	0	0	0
2017/11/23 07:07:01	BASE	8.80	228	10.44	231	-2.0	100	-2.0	3	10	980.6	NA	0.0000		9999	660	0	0	0
2017/11/23 07:08:01	BASE	8.44	229	10.44	231	-2.0	100	-2.0	3	10	980.6	NA	0.0000		9999	720	0	0	0
2017/11/23 07:09:01	BASE	7.35	231	10.44	231	-2.0	100	-2.0	3	10	980.6	NA	0.0000		9999	590	0	0	0
2017/11/23 07:10:01	BASE	7.79	233	10.44	231	-2.0	100	-2.0	3	10	980.6	NA	0.0000		9999	490	0	0	0
2017/11/23 07:11:01	BASE	8.83	232	10.44	231	-2.0	100	-2.0	3	10	980.6	NA	0.0000		9999	520	0	0	0
2017/11/23 07:12:01	BASE	8.34	232	10.44	231	-2.0	100	-2.0	3	10	980.6	NA	0.0000		9999	490	0	0	0
2017/11/23 07:13:01	BASE	8.30	232	9.93	231	-2.0	100	-2.0	3	11	980.6	NA	0.0000		9999	560	0	0	0
2017/11/23 07:14:01	BASE	8.99	232	10.19	229	-2.0	100	-2.0	3	11	980.6	NA	0.0000		9999	490	0	0	0
2017/11/23 07:15:01	BASE	9.57	229	10.91	228	-2.0	100	-2.0	3	11	980.6	NA	0.0000		9999	460	0	0	0
2017/11/23 07:16:01	BASE	9.21	228	10.91	228	-2.0	100	-2.0	4	12	980.6	NA	0.0000		9999	430	0	0	0
2017/11/23 07:17:01	BASE	8.47	227	10.91	228	-2.0	100	-2.0	4	13	980.6	NA	0.0000		9999	460	0	0	0
2017/11/23 07:18:01	BASE	8.15	228	10.91	228	-2.0	100	-2.0	4	13	980.6	NA	0.0000		9999	490	0	0	0
2017/11/23 07:19:01	BASE	7.56	231	10.91	228	-2.0	100	-2.0	4	14	980.6	NA	0.0000		9999	460	0	0	0
2017/11/23 07:20:01	BASE	7.38	232	10.91	228	-2.0	100	-2.0	5	14	980.7	NA	0.0000		9999	590	0	0	0
2017/11/23 07:21:01	BASE	8.16	233	10.91	228	-2.0	100	-2.0	5	15	980.6	NA	0.0000		9999	560	0	0	0
2017/11/23 07:22:01	BASE	9.33	232	10.91	228	-2.0	100	-2.0	6	16	980.6	NA	0.0000		9999	590	0	0	0
2017/11/23 07:23:01	BASE	9.45	231	11.01	228	-2.0	100	-2.0	6	17	980.6	NA	0.0000		9999	590	0	0	0
2017/11/23 07:24:01	BASE	8.95	230	11.01	228	-2.0	100	-2.0	7	19	980.6	NA	0.0000		9999	590	0	0	0
2017/11/23 07:25:01	BASE	8.69	228	11.01	228	-2.0	100	-2.0	7	19	980.6	NA	0.0000		9999	560	0	0	0
2017/11/23 07:26:01	BASE	8.62	229	11.01	228	-2.0	100	-2.0	7	19	980.6	NA	0.0000		9999	660	0	0	0
2017/11/23 07:27:01	BASE	8.75	230	11.01	228	-2.0	100	-2.0	7	19	980.6	NA	0.0000		9999	590	0	0	0
2017/11/23 07:28:01	BASE	8.61	232	11.01	228	-2.0	100	-2.0	7	19	980.5	NA	0.0000		9999	590	0	0	0
2017/11/23 07:29:01	BASE	8.94	229	11.01	228	-2.0	100	-2.0	7	20	980.6	NA	0.0000		9999	620	0	0	0
2017/11/23 07:30:01	BASE	9.47	226	11.01	228	-2.0	100	-2.0	7	20	980.6	NA	0.0000		9999	620	0	0	0
2017/11/23 07:31:01	BASE	9.19	227	11.01	228	-2.1	100	-2.1	7	18	980.6	NA	0.0000		9999	590	0	0	0
2017/11/23 07:32:01	BASE	8.65	230	11.01	228	-2.1	100	-2.1	6	18	980.5	NA	0.0000		9999	560	0	0	0
2017/11/23 07:33:01	BASE	8.30	231	10.60	224	-2.1	100	-2.1	6	17	980.6	NA	0.0000		9999	560	0	0	0
2017/11/23 07:34:01	BASE	8.43	231	10.60	224	-2.1	100	-2.1	6	17	980.5	NA	0.0000		9999	520	0	0	0
2017/11/23 07:35:01	BASE	8.49	233	10.60	224	-2.1	100	-2.1	6	17	980.5	NA	0.0000		9999	520	0	0	0
2017/11/23 07:36:01	BASE	8.56	235	10.60	224	-2.1	100	-2.1	7	18	980.5	NA	0.0000		9999	460	0	0	0
2017/11/23 07:37:01	BASE	8.62	233	10.60	224	-2.1	100	-2.1	7	19	980.5	NA	0.0000		9999	460	0	0	0
2017/11/23 07:38:01	BASE	9.40	229	11.32	223	-2.1	100	-2.1	7	19	980.4	NA	0.0000		9999	430	0	0	0
2017/11/23 07:39:01	BASE	10.02	228	11.32	223	-2.1	100	-2.1	7	19	980.5	NA	0.0000		9999	390	0	0	0
2017/11/23 07:40:01	BASE	9.61	228	11.32	223	-2.1	100	-2.1	8	21	980.4	NA	0.0000		9999	460	0	0	0
2017/11/23 07:41:01	BASE	9.06	229	11.32	223	-2.2	100	-2.2	8	22	980.5	NA	0.0000		9999	590	0	0	0
2017/11/23 07:42:01	BASE	9.16	229	11.32	223	-2.2	100	-2.2	8	23	980.5	NA	0.0000		9999	460	0	0	0
2017/11/23 07:43:01	BASE	9.12	230	11.32	223	-2.2	100	-2.2	9	24	980.5	NA	0.0000		9999	490	0	0	0
2017/11/23 07:44:01	BASE	9.04	229	11.32	223	-2.2	100	-2.2	10	25	980.4	NA	0.0000		9999	590	0	0	0
2017/11/23 07:45:01	BASE	9.04	229	11.32	223	-2.2	100	-2.2	10	26	980.5	NA	0.0000		9999	460	0	0	0
2017/11/23 07:46:01	BASE	8.02	232	11.32	223	-2.2	100	-2.2	10	26	980.5	NA	0.0000		9999	460	0	0	0
2017/11/23 07:47:01	BASE	8.02	233	11.32	223	-2.2	100	-2.2	11	29	980.4	NA	0.0000		9999	430	0	0	0
2017/11/23 07:48:01	BASE	8.62	231	11.11	232	-2.2	100	-2.2	11	28	980.5	NA	0.0000		9999	560	0	0	0
2017/11/23 07:49:01	BASE	8.63	228	11.06	233	-2.2	100	-2.2	10	28	980.4	NA	0.0000		9999	430	0	0	0
2017/11/23 07:50:01	BASE	8.03	227	11.06	233	-2.1	100	-2.1	11	28	980.4	NA	0.0000		9999	430	0	0	0
2017/11/23 07:51:01	BASE	7.71	229	11.06	233	-2.1	100	-2.1	11	28	980.4	NA	0.0000		9999	390	0	0	0
2017/11/23 07:52:01	BASE	8.44	230	10.55	234	-2.2	100	-2.2	11	29	980.4	NA	0.0000		9999	390	0	0	0
2017/11/23 07:53:01	BASE	8.93	232	10.55	234	-2.2	100	-2.2	12	31	980.4	NA	0.0000		9999	390	0	0	0
2017/11/23 07:54:01	BASE	9.12	231	10.34	227	-2.2	100	-2.2	13	34	980.4	NA	0.0000		9999	390	1310	0	0
2017/11/23 07:55:01	BASE	8.75	228	10.34	227	-2.2	100	-2.2	12	32	980.4	NA	0.0000		9999	360	0	0	0
2017/11/23 07:56:01	BASE	8.52	228	10.34	227	-2.2	100	-2.2	12	31	980.4	NA	0.0000		8000	360	1280	0	0
2017/11/23 07:57:01	BASE	8.46	228	10.34	227	-2.2	100	-2.2	12	30	980.4	NA	0.0000		8000	360	0	0	0
2017/11/23 07:58:01	BASE	8.33	228	10.34	227	-2.2	100	-2.2	12	31	980.4	NA	0.0000		8000	430	0	0	0
2017/11/23 07:59:01	BASE	8.81	225	10.55	226	-2.2	100	-2.2	12	32	980.3	NA	0.0000		9999	430	0	0	0
2017/11/23 08:00:01	BASE	8.81	224	10.55	226	-2.2	100	-2.2	13	33	980.3	NA	0.0000		9999	430	0	0	0
2017/11/23 08:01:01	BASE	8.91	227	10.55	226	-2.2	100	-2.2	13	33	980.3	NA	0.0000	BR	6000	390	0	0	0
2017/11/23 08:02:01	BASE	9.11	227	10.55	226	-2.2	100	-2.2	14	35	980.3	NA	0.0000	BR	6000	360	0	0	0
2017/11/23 08:03:01	BASE	8.67	225	10.55	226	-2.2	100	-2.2	14	35	980.4	NA	0.0000	BR	5000	360	0	0	0
2017/11/23 08:04:01	BASE	8.32	224	10.55	226	-2.2	100	-2.2	14	36	980.3	NA	0.0000	BR	5000	390	1280	0	0
2017/11/23 08:05:01	BASE	8.58	225	10.55	226	-2.2	100	-2.2	14	36	980.3	NA	0.0000	UP BR	8000	390	0	0	0
2017/11/23 08:06:01	BASE	8.59	228	10.55	226	-2.2	100	-2.2	15	38	980.3	NA	0.0000	UP BR	9999	360	0	0	0
2017/11/23 08:07:01	BASE	8.54	226	10.55	226	-2.2	100	-2.2	15	39	980.3	NA	0.0000	UP BR	9000	360	1350	0	0
2017/11/23 08:08:01	BASE	9.13	224	10.91	231	-2.2	100	-2.2	16	41	980.3	NA	0.0000	UP BR	9000	360	1310	0	0
2017/11/23 08:09:01	BASE	9.06	226	10.91	231	-2.2	100	-2.2	16	41	980.3	NA	0.0000	UP BR	9000	390	1250	0	0
2017/11/23 08:10:01	BASE	8.29	225	10.91	231	-2.3	100	-2.3	16	40	980.3	NA	0.0000	UP BR	9999	430	1280	0	0
2017/11/23 08:11:01	BASE	7.71	224	10.91	231	-2.3	100	-2.3	16	40	980.3	NA	0.0000	UP BR	9999	520	0	0	0
2017/11/23 08:12:01	BASE	7.61	226	10.91	231	-2.3	100	-2.3	16	42	980.3	NA	0.0000	UP BR	9999	560	0	0	0
2017/11/23 08:13:01	BASE	8.62	227	10.91	231	-2.3	100	-2.3	17	43	980.3	NA	0.0000	UP BR	9999	560	1380	0	0
2017/11/23 08:14:01	BASE	9.12	227	10.91	231	-2.3	100	-2.3	18	46	980.3	NA	0.0000	UP	9999	560	1350	0	0
2017/11/23 08:15:01	BASE	9.30	226	10.91	231	-2.3	100	-2.3	18	47	980.3	NA	0.0000	UP	9999	590	1440	0	0
2017/11/23 08:16:01	BASE	9.00	222	10.91	231	-2.3	100	-2.3	19	49	980.3	NA	0.0000	UP	9999	560	1380	0	0
2017/11/23 08:17:01	BASE	8.10	223	10.91	231	-2.3	100	-2.3	21	53	980.3	NA	0.0000	UP	9999	520	1150	0	0
2017/11/23 08:18:01	BASE	8.08	225	10.34	226	-2.3	100	-2.3	21	53	980.2	NA	0.0000	UP	9999	750	1380	0	0
2017/11/23 08:19:01	BASE	7.98	226	10.34	226	-2.3	100	-2.3	23	56	980.3	NA	0.0000	UP	9000	520	1380	0	0
2017/11/23 08:20:01	BASE	7.68	226	10.34	226	-2.3	100	-2.3	23	57	980.3	NA	0.0000	UP	8000	750	0	0	0
2017/11/23 08:21:01	BASE	7.86	226	10.34	226	-2.3	100	-2.3	22	55	980.3	NA	0.0000	UP	9000	590	1350	0	0
2017/11/23 08:22:01	BASE	8.04	228	10.34	226	-2.3	100	-2.3	22	55	980.2	NA	0.0000	UP	8000	560	0	0	0
2017/11/23 08:23:01	BASE	8.52	228	10.34	226	-2.3	100	-2.3	22	56	980.2	NA	0.0000	UP BR	6000	390	0	0	0
2017/11/23 08:24:01	BASE	8.69	230	10.34	226	-2.3	100	-2.3	22	56	980.3	NA	0.0000	UP BR	5000	390	1310	0	0
2017/11/23 08:25:01	BASE	8.55	231	10.03	220	-2.3	100	-2.3	20	52	980.2	NA	0.0000	UP BR	4900	360	1440	0	0
2017/11/23 08:26:01	BASE	8.47	230	10.03	220	-2.3	100	-2.3	20	52	980.3	NA	0.0000	UP BR	4500	390	0	0	0
2017/11/23 08:27:01	BASE	8.46	226	10.13	220	-2.3	100	-2.3	20	52	980.3	NA	0.0000	UP BR	5000	390	0	0	0
2017/11/23 08:28:01	BASE	8.35	223	10.13	220	-2.3	100	-2.3	22	56	980.3	NA	0.0000	UP BR	6000	430	0	0	0
2017/11/23 08:29:01	BASE	7.91	225	10.13	220	-2.3	100	-2.3	23	57	980.2	NA	0.0000	UP BR	7000	660	0	0	0
2017/11/23 08:30:01	BASE	8.10	225	10.13	220	-2.3	100	-2.3	23	57	980.2	NA	0.0000	UP BR	7000	690	0	0	0
2017/11/23 08:31:01	BASE	8.54	226	10.13	220	-2.3	100	-2.3	24	61	980.2	NA	0.0000	UP BR	9000	690	0	0	0
2017/11/23 08:32:01	BASE	8.70	227	10.13	220	-2.3	100	-2.3	26	64	980.2	NA	0.0000	UP BR	9999	790	0	0	0
2017/11/23 08:33:01	BASE	9.11	225	10.44	225	-2.3	100	-2.3	29	72	980.2	NA	0.0000	UP BR	9999	750	0	0	0
2017/11/23 08:34:01	BASE	8.75	225	10.44	225	-2.4	100	-2.4	30	73	980.2	NA	0.0000	UP BR	9999	890	0	0	0
2017/11/23 08:35:01	BASE	7.54	228	10.44	225	-2.4	100	-2.4	30	74	980.2	NA	0.0000	UP BR	9999	750	1510	0	0
2017/11/23 08:36:01	BASE	7.07	228	10.44	225	-2.4	100	-2.4	29	72	980.2	NA	0.0000	UP BR	9999	750	1800	0	0
2017/11/23 08:37:01	BASE	7.90	226	10.44	225	-2.3	100	-2.3	29	73	980.2	NA	0.0000	UP BR	9999	790	1610	0	0
2017/11/23 08:38:01	BASE	9.07	225	10.44	225	-2.3	100	-2.3	29	73	980.2	NA	0.0000	UP BR	9999	1540	0	0	0
2017/11/23 08:39:01	BASE	8.76	223	10.44	225	-2.3	100	-2.3	29	72	980.2	NA	0.0000	UP	9999	890	1570	0	0
2017/11/23 08:40:01	BASE	8.10	225	10.44	225	-2.4	100	-2.4	28	70	980.2	NA	0.0000		9999	790	1610	0	0
2017/11/23 08:41:01	BASE	7.67	229	10.44	225	-2.4	100	-2.4	27	68	980.2	NA	0.0000		9999	890	1640	0	0
2017/11/23 08:42:01	BASE	7.50	226	10.44	225	-2.4	100	-2.4	27	68	980.2	NA	0.0000		9999	980	0	0	0
2017/11/23 08:43:01	BASE	7.86	224	10.13	223	-2.3	100	-2.3	27	68	980.2	NA	0.0000		9999	890	1610	0	0
2017/11/23 08:44:01	BASE	8.42	225	10.13	223	-2.3	100	-2.3	29	73	980.2	NA	0.0000		9999	850	0	0	0
2017/11/23 08:45:01	BASE	8.42	223	10.13	223	-2.3	100	-2.3	30	75	980.2	NA	0.0000		9999	850	1540	0	0
2017/11/23 08:46:01	BASE	7.71	222	10.13	223	-2.3	100	-2.3	32	78	980.2	NA	0.0000		9999	890	1610	0	0
2017/11/23 08:47:01	BASE	8.22	223	11.01	220	-2.3	100	-2.3	33	81	980.1	NA	0.0000		9999	1670	0	0	0
2017/11/23 08:48:01	BASE	8.72	222	11.01	220	-2.3	100	-2.3	35	85	980.2	NA	0.0000		9999	920	1800	0	0
2017/11/23 08:49:01	BASE	8.44	228	11.01	220	-2.4	100	-2.4	38	91	980.1	NA	0.0000		9999	820	2030	0	0
2017/11/23 08:50:01	BASE	8.29	228	11.01	220	-2.4	100	-2.4	40	95	980.1	NA	0.0000		9999	2100	0	0	0
2017/11/23 08:51:01	BASE	8.87	224	11.01	220	-2.4	100	-2.4	41	98	980.1	NA	0.0000		9999	2230	0	0	0
2017/11/23 08:52:01	BASE	9.43	222	11.01	220	-2.4	100	-2.4	41	98	980.1	NA	0.0000		9999	2260	0	0	0
2017/11/23 08:53:01	BASE	9.37	222	11.01	220	-2.4	100	-2.4	41	100	980.2	NA	0.0000		9999	920	2260	0	0
2017/11/23 08:54:01	BASE	8.99	223	11.01	220	-2.4	100	-2.4	41	100	980.2	NA	0.0000		9999	2260	0	0	0
2017/11/23 08:55:01	BASE	8.23	226	11.01	220	-2.4	100	-2.4	40	97	980.2	NA	0.0000		9999	2300	0	0	0
2017/11/23 08:56:01	BASE	8.76	228	11.01	220	-2.4	100	-2.4	40	97	980.1	NA	0.0000		9999	890	1800	2330	0
2017/11/23 08:57:01	BASE	8.81	228	10.85	217	-2.4	100	-2.4	42	101	980.2	NA	0.0000		9999	850	1840	0	0
2017/11/23 08:58:01	BASE	8.16	228	10.85	217	-2.4	100	-2.4	42	102	980.2	NA	0.0000		9999	890	1800	0	0
2017/11/23 08:59:01	BASE	8.91	229	10.85	217	-2.4	100	-2.4	43	105	980.1	NA	0.0000		9999	850	2460	0	0
2017/11/23 09:00:01	BASE	9.40	226	10.85	217	-2.4	100	-2.4	44	107	980.1	NA	0.0000		9999	950	2560	0	0
2017/11/23 09:01:01	BASE	8.61	225	10.80	231	-2.4	100	-2.4	44	108	980.2	NA	0.0000		9999	1900	2460	0	0
2017/11/23 09:02:01	BASE	8.23	228	10.80	231	-2.4	100	-2.4	45	109	980.1	NA	0.0000		9999	2360	0	0	0
2017/11/23 09:03:01	BASE	8.89	229	10.80	231	-2.4	100	-2.4	47	113	980.1	NA	0.0000		9999	2030	0	0	0
2017/11/23 09:04:01	BASE	8.74	227	10.80	231	-2.4	100	-2.4	48	115	980.1	NA	0.0000		9999	2070	0	0	0
2017/11/23 09:05:01	BASE	8.14	228	10.80	231	-2.4	100	-2.4	49	117	980.1	NA	0.0000		9999	920	2360	0	0
2017/11/23 09:06:01	BASE	8.38	230	11.11	225	-2.4	100	-2.4	50	120	980.1	NA	0.0000		9999	980	2360	0	0
2017/11/23 09:07:01	BASE	8.64	233	11.11	225	-2.4	100	-2.4	50	121	980.1	NA	0.0000		9999	950	2360	0	0
2017/11/23 09:08:01	BASE	8.59	232	11.11	225	-2.4	100	-2.4	51	123	980.1	NA	0.0000		9999	950	2460	0	0
2017/11/23 09:09:01	BASE	8.22	230	11.11	225	-2.4	100	-2.4	51	123	980.2	NA	0.0000		9999	2070	2490	0	0
2017/11/23 09:10:01	BASE	8.18	231	11.11	225	-2.4	100	-2.4	51	123	980.1	NA	0.0000		9999	1050	2490	0	0
2017/11/23 09:11:01	BASE	9.06	232	11.11	225	-2.4	100	-2.4	51	123	980.1	NA	0.0000		9999	980	2460	0	0
2017/11/23 09:12:01	BASE	9.42	230	11.11	225	-2.4	100	-2.4	51	123	980.1	NA	0.0000		9999	1020	1900	2560	0
2017/11/23 09:13:01	BASE	9.09	232	11.11	225	-2.4	100	-2.4	51	123	980.1	NA	0.0000		9999	950	2000	2490	0
2017/11/23 09:14:01	BASE	8.80	235	11.11	225	-2.4	100	-2.4	50	123	980.1	NA	0.0000		9999	1020	2620	0	0
2017/11/23 09:15:01	BASE	8.93	233	11.11	225	-2.4	100	-2.4	48	118	980.1	NA	0.0000		9999	890	2490	0	0
2017/11/23 09:16:01	BASE	8.83	232	10.34	227	-2.4	100	-2.4	47	117	980.1	NA	0.0000		9999	890	1350	2620	0
2017/11/23 09:17:01	BASE	8.34	234	10.34	227	-2.4	100	-2.4	49	121	980.1	NA	0.0000		9999	950	1440	0	0
2017/11/23 09:18:01	BASE	8.41	235	10.34	227	-2.4	100	-2.4	48	120	980.1	NA	0.0000		9999	1120	1970	0	0
2017/11/23 09:19:01	BASE	8.69	235	10.34	227	-2.4	100	-2.4	50	124	980.1	NA	0.0000		9999	1020	2760	0	0
2017/11/23 09:20:01	BASE	8.77	235	10.34	227	-2.4	100	-2.4	52	128	980.1	NA	0.0000		9999	890	2300	2720	0
2017/11/23 09:21:00	BASE	8.99	232	10.34	227	-2.4	100	-2.4	53	129	980.1	NA	0.0000		9999	1020	2300	0	0
2017/11/23 09:22:00	BASE	8.81	233	10.13	230	-2.4	100	-2.4	54	132	980.1	NA	0.0000		9999	980	2360	0	0
2017/11/23 09:23:00	BASE	8.88	236	10.19	234	-2.4	100	-2.4	55	135	980.1	NA	0.0000		9999	980	2430	0	0
2017/11/23 09:24:00	BASE	9.10	235	10.19	234	-2.5	100	-2.5	58	141	980.1	NA	0.0000		9999	1050	2530	0	0
2017/11/23 09:25:00	BASE	8.33	234	10.19	234	-2.5	100	-2.5	60	145	980.1	NA	0.0000		9999	950	2620	0	0
2017/11/23 09:26:00	BASE	7.80	233	10.19	234	-2.5	100	-2.5	63	152	980.1	NA	0.0000		9999	980	2620	0	0
2017/11/23 09:27:00	BASE	8.34	234	10.19	234	-2.5	100	-2.5	65	158	980.0	NA	0.0000		9999	1050	2620	0	0
2017/11/23 09:28:00	BASE	8.39	234	10.19	234	-2.5	100	-2.5	69	165	980.1	NA	0.0000		9999	2690	0	0	0
2017/11/23 09:29:00	BASE	7.87	233	10.19	234	-2.5	100	-2.5	72	173	980.0	NA	0.0000		9999	2760	0	0	0
2017/11/23 09:30:00	BASE	7.95	231	10.19	234	-2.5	100	-2.5	77	183	980.0	NA	0.0000		9999	1080	2820	0	0
2017/11/23 09:31:00	BASE	8.13	229	10.19	234	-2.5	100	-2.5	80	190	980.0	NA	0.0000		9999	2850	0	0	0
2017/11/23 09:32:00	BASE	7.79	228	10.19	234	-2.5	100	-2.5	83	196	980.0	NA	0.0000		9999	2920	0	0	0
2017/11/23 09:33:00	BASE	7.84	227	9.77	231	-2.5	100	-2.5	85	201	980.0	NA	0.0000		9999	2990	4100	7480	0
2017/11/23 09:34:00	BASE	8.31	228	9.77	231	-2.5	100	-2.5	85	200	980.0	NA	0.0000		9999	2920	3940	0	0
2017/11/23 09:35:00	BASE	7.95	231	9.77	231	-2.5	100	-2.5	84	200	980.0	NA	0.0000		9999	2890	0	0	0
2017/11/23 09:36:00	BASE	7.67	231	9.77	231	-2.5	100	-2.5	88	208	980.0	NA	0.0000		9999	2850	0	0	0
2017/11/23 09:37:00	BASE	8.16	230	9.36	235	-2.5	100	-2.5	93	218	980.0	NA	0.0000		9999	1120	2850	0	0
2017/11/23 09:38:00	BASE	8.06	234	9.21	235	-2.5	100	-2.5	98	227	980.0	NA	0.0000		9999	2920	0	0	0
2017/11/23 09:39:00	BASE	8.01	236	9.47	229	-2.5	100	-2.5	101	234	980.0	NA	0.0000		9999	1050	2890	0	0
2017/11/23 09:40:00	BASE	8.81	234	10.08	233	-2.5	100	-2.5	104	240	980.0	NA	0.0000		9999	1050	2950	0	0
2017/11/23 09:41:00	BASE	8.81	232	10.08	233	-2.5	100	-2.5	106	245	980.0	NA	0.0000		9999	2950	0	0	0
2017/11/23 09:42:00	BASE	7.89	232	10.08	233	-2.6	100	-2.6	107	247	980.1	NA	0.0000		9999	1210	3020	0	0
2017/11/23 09:43:00	BASE	7.07	233	10.08	233	-2.6	100	-2.6	109	251	980.0	NA	0.0000		9999	1050	3020	0	0
2017/11/23 09:44:00	BASE	7.34	233	10.08	233	-2.6	100	-2.6	109	253	980.0	NA	0.0000		9999	1150	3080	0	0
2017/11/23 09:45:00	BASE	7.90	232	10.08	233	-2.6	100	-2.6	109	253	980.0	NA	0.0000		9999	7480	0	0	0
2017/11/23 09:46:00	BASE	7.85	232	10.08	233	-2.6	100	-2.6	108	251	980.0	NA	0.0000		9999	3080	3480	7450	0
2017/11/23 09:47:00	BASE	7.78	232	10.08	233	-2.5	100	-2.5	106	248	980.0	NA	0.0000		9999	3150	7480	0	0
2017/11/23 09:48:00	BASE	7.94	232	10.08	233	-2.5	100	-2.5	107	249	980.0	NA	0.0000		9999	2920	0	0	0
2017/11/23 09:49:00	BASE	8.10	233	10.08	233	-2.5	100	-2.5	106	249	980.0	NA	0.0000		9999	2990	0	0	0
2017/11/23 09:50:00	BASE	7.96	234	9.36	228	-2.5	100	-2.5	105	247	980.0	NA	0.0000		9999	2920	0	0	0
2017/11/23 09:51:00	BASE	7.52	237	9.21	237	-2.6	100	-2.6	104	245	980.0	NA	0.0000		9999	2920	0	0	0
2017/11/23 09:52:00	BASE	7.19	238	9.21	237	-2.6	100	-2.6	102	242	980.0	NA	0.0000		9999	2990	0	0	0
2017/11/23 09:53:00	BASE	7.09	236	9.21	237	-2.6	100	-2.6	100	238	980.0	NA	0.0000		9999	2990	0	0	0
2017/11/23 09:54:00	BASE	6.65	236	9.21	237	-2.6	100	-2.6	97	233	980.0	NA	0.0000		9999	2990	0	0	0
2017/11/23 09:55:00	BASE	6.35	239	9.21	237	-2.6	100	-2.6	95	228	980.0	NA	0.0000		9999	980	2990	0	0
2017/11/23 09:56:00	BASE	6.97	239	9.05	237	-2.5	100	-2.5	92	222	980.0	NA	0.0000		9999	1180	2820	0	0
2017/11/23 09:57:00	BASE	7.36	239	9.05	237	-2.5	100	-2.5	90	219	980.0	NA	0.0000		9999	2790	0	0	0
2017/11/23 09:58:00	BASE	7.61	238	8.95	235	-2.5	100	-2.5	90	219	980.0	NA	0.0000		9999	2820	21490	0	0
2017/11/23 09:59:00	BASE	7.13	238	8.95	235	-2.5	100	-2.5	91	221	980.0	NA	0.0000		9999	2820	0	0	0
2017/11/23 10:00:00	BASE	6.87	237	8.75	239	-2.5	100	-2.5	92	224	980.0	NA	0.0000		9999	2920	0	0	0
2017/11/23 10:01:00	BASE	7.36	234	8.75	239	-2.5	100	-2.5	94	228	979.9	NA	0.0000		9999	2990	0	0	0
2017/11/23 10:02:00	BASE	6.92	236	8.75	239	-2.5	100	-2.5	96	233	980.0	NA	0.0000		9999	3050	0	0	0
2017/11/23 10:03:00	BASE	6.54	236	8.75	239	-2.5	100	-2.5	100	241	979.9	NA	0.0000		9999	1120	3120	0	0
2017/11/23 10:04:00	BASE	6.41	235	8.75	239	-2.5	100	-2.5	105	252	979.9	NA	0.0000		9999	3150	0	0	0
2017/11/23 10:05:00	BASE	6.60	238	8.75	239	-2.5	100	-2.5	111	264	979.9	NA	0.0000		9999	3150	0	0	0
2017/11/23 10:06:00	BASE	6.91	240	8.75	239	-2.6	100	-2.6	117	276	979.9	NA	0.0000		9999	3180	0	0	0
2017/11/23 10:07:00	BASE	6.77	238	8.75	239	-2.6	100	-2.6	123	289	979.9	NA	0.0000		9999	1080	3150	0	0
2017/11/23 10:08:00	BASE	6.63	239	8.08	242	-2.6	100	-2.6	129	301	979.9	NA	0.0000		9999	3150	0	0	0
2017/11/23 10:09:00	BASE	6.44	240	8.08	242	-2.6	100	-2.6	131	307	979.9	NA	0.0000		9999	1350	3220	0	0
2017/11/23 10:10:00	BASE	6.35	241	8.08	242	-2.6	100	-2.6	132	310	979.9	NA	0.0000		9999	3120	0	0	0
2017/11/23 10:11:00	BASE	6.32	242	8.28	240	-2.6	100	-2.6	132	310	979.9	NA	0.0000		9999	3220	0	0	0
2017/11/23 10:12:00	BASE	6.86	241	8.28	240	-2.6	100	-2.6	132	311	979.8	NA	0.0000		9999	3180	0	0	0
2017/11/23 10:13:00	BASE	6.88	236	8.28	240	-2.6	100	-2.6	134	314	979.8	NA	0.0000		9999	3250	0	0	0
2017/11/23 10:14:00	BASE	6.19	233	8.28	240	-2.6	100	-2.6	135	318	979.9	NA	0.0000		9999	3180	0	0	0
2017/11/23 10:15:00	BASE	6.65	235	8.33	238	-2.6	100	-2.6	136	319	979.9	NA	0.0000		9999	3280	7320	0	0
2017/11/23 10:16:00	BASE	6.68	238	8.33	238	-2.6	100	-2.6	136	319	979.8	NA	0.0000		9999	3450	6790	7280	0
2017/11/23 10:17:00	BASE	7.08	238	8.39	233	-2.6	100	-2.6	137	321	979.8	NA	0.0000		9999	3280	6820	0	0
2017/11/23 10:18:00	BASE	8.24	236	8.90	235	-2.6	100	-2.6	138	324	979.8	NA	0.0000		9999	3350	6660	0	0
2017/11/23 10:19:00	BASE	7.75	235	8.90	235	-2.6	100	-2.6	139	327	979.8	NA	0.0000		9999	3350	6760	0	0
2017/11/23 10:20:00	BASE	6.38	237	8.90	235	-2.6	100	-2.6	140	330	979.8	NA	0.0000		9999	3380	0	0	0
2017/11/23 10:21:00	BASE	6.31	240	8.90	235	-2.6	100	-2.6	142	334	979.8	NA	0.0000		9999	3380	0	0	0
2017/11/23 10:22:00	BASE	6.80	238	8.90	235	-2.6	100	-2.6	144	339	979.8	NA	0.0000		9999	3380	0	0	0
2017/11/23 10:23:00	BASE	6.05	237	8.90	235	-2.6	100	-2.6	147	346	979.8	NA	0.0000		9999	3410	0	0	0
2017/11/23 10:24:00	BASE	5.63	237	8.90	235	-2.6	100	-2.6	151	353	979.8	NA	0.0000		9999	3480	0	0	0
2017/11/23 10:25:00	BASE	6.19	239	8.90	235	-2.6	100	-2.6	151	356	979.8	NA	0.0000		9999	3450	6890	0	0
2017/11/23 10:26:00	BASE	6.23	239	8.90	235	-2.6	100	-2.6	151	355	979.8	NA	0.0000		9999	3410	0	0	0
2017/11/23 10:27:00	BASE	5.67	236	8.90	235	-2.6	100	-2.6	150	353	979.8	NA	0.0000		9999	3510	7190	0	0
2017/11/23 10:28:00	BASE	6.34	234	8.44	236	-2.6	100	-2.6	148	350	979.8	NA	0.0000		9999	1050	3480	7020	0
2017/11/23 10:29:00	BASE	6.97	238	8.44	236	-2.6	100	-2.6	147	347	979.8	NA	0.0000		9999	3540	7020	0	0
2017/11/23 10:30:00	BASE	6.29	239	8.44	236	-2.6	100	-2.6	146	345	979.8	NA	0.0000		9999	7480	0	0	0
2017/11/23 10:31:00	BASE	5.72	238	8.44	236	-2.6	100	-2.6	145	343	979.8	NA	0.0000		9999	980	7480	0	0
2017/11/23 10:32:00	BASE	5.62	238	8.44	236	-2.6	100	-2.6	142	338	979.8	NA	0.0000		9999	7870	0	0	0
2017/11/23 10:33:00	BASE	5.34	241	8.44	236	-2.7	100	-2.7	143	339	979.8	NA	0.0000		9999	980	7810	0	0
2017/11/23 10:34:00	BASE	5.62	241	8.44	236	-2.7	100	-2.7	146	345	979.8	NA	0.0000		9999	7910	0	0	0
2017/11/23 10:35:00	BASE	5.21	242	8.44	236	-2.7	100	-2.7	151	355	979.8	NA	0.0000		9999	7870	0	0	0
2017/11/23 10:36:00	BASE	4.75	243	8.44	236	-2.7	100	-2.7	154	362	979.8	NA	0.0000		9999	7870	0	0	0
2017/11/23 10:37:00	BASE	6.19	240	8.44	236	-2.7	100	-2.7	151	358	979.8	NA	0.0000		9999	2430	7840	0	0
2017/11/23 10:38:00	BASE	6.73	241	7.82	239	-2.7	100	-2.7	143	343	979.8	NA	0.0000		9999	2400	0	0	0
2017/11/23 10:39:00	BASE	6.46	239	7.87	236	-2.7	100	-2.7	140	337	979.8	NA	0.0000		9999	2400	8070	0	0
2017/11/23 10:40:00	BASE	6.72	242	8.03	244	-2.7	100	-2.7	140	337	979.7	NA	0.0000		9999	2400	7940	0	0
2017/11/23 10:41:00	BASE	7.37	241	8.08	240	-2.8	100	-2.8	141	340	979.7	NA	0.0000		9999	2490	8010	0	0
2017/11/23 10:42:00	BASE	7.20	233	8.08	240	-2.8	100	-2.8	147	351	979.7	NA	0.0000		9999	8010	0	0	0
2017/11/23 10:43:00	BASE	6.03	234	8.08	240	-2.8	100	-2.8	150	358	979.7	NA	0.0000		9999	2430	7970	0	0
2017/11/23 10:44:00	BASE	5.32	241	8.08	240	-2.8	100	-2.8	156	370	979.7	NA	0.0000		9999	2430	7940	0	0
2017/11/23 10:45:00	BASE	5.63	244	8.08	240	-2.8	100	-2.8	157	373	979.7	NA	0.0000		9999	2400	0	0	0
2017/11/23 10:46:00	BASE	6.13	240	8.08	240	-2.8	100	-2.8	159	377	979.7	NA	0.0000		9999	2400	0	0	0
2017/11/23 10:47:00	BASE	5.58	238	8.08	240	-2.8	100	-2.8	163	387	979.7	NA	0.0000		9999	2430	0	0	0
2017/11/23 10:48:00	BASE	5.12	243	8.08	240	-2.7	100	-2.7	164	390	979.7	NA	0.0000		9999	2400	0	0	0
2017/11/23 10:49:00	BASE	4.55	248	8.08	240	-2.7	100	-2.7	165	391	979.7	NA	0.0000		9999	2400	0	0	0
2017/11/23 10:50:00	BASE	4.16	248	8.08	240	-2.7	100	-2.7	165	392	979.7	NA	0.0000		9999	2460	8140	0	0
2017/11/23 10:51:00	BASE	4.35	247	7.61	233	-2.7	100	-2.7	170	402	979.7	NA	0.0000		9999	2430	0	0	0
2017/11/23 10:52:00	BASE	4.33	250	7.05	243	-2.7	100	-2.7	171	405	979.7	NA	0.0000		9999	1210	2430	0	0
2017/11/23 10:53:00	BASE	4.22	249	7.05	243	-2.7	100	-2.7	176	414	979.7	NA	0.0000		9999	1120	2430	0	0
2017/11/23 10:54:00	BASE	4.33	249	7.05	243	-2.7	100	-2.7	182	428	979.7	NA	0.0000		9999	2400	0	0	0
2017/11/23 10:55:00	BASE	3.96	254	6.74	234	-2.7	100	-2.7	187	440	979.7	NA	0.0000		9999	1250	2430	0	0
2017/11/23 10:56:00	BASE	3.46	259	6.02	240	-2.7	100	-2.7	189	442	979.7	NA	0.0000		9999	950	2490	0	0
2017/11/23 10:57:00	BASE	3.83	261	6.02	240	-2.7	100	-2.7	199	461	979.7	NA	0.0000		9999	1150	2560	0	0
2017/11/23 10:58:00	BASE	4.11	264	5.66	249	-2.6	100	-2.6	202	469	979.7	NA	0.0000		9999	890	2530	0	0
2017/11/23 10:59:00	BASE	4.57	265	5.66	249	-2.6	100	-2.6	186	438	979.6	NA	0.0000		9999	1120	2530	0	0
2017/11/23 11:00:00	BASE	4.94	263	5.66	249	-2.6	100	-2.6	180	427	979.7	NA	0.0000		9999	1020	0	0	0
2017/11/23 11:01:00	BASE	4.81	259	5.66	249	-2.6	100	-2.6	166	403	979.7	NA	0.0000		9999	1020	0	0	0
2017/11/23 11:02:00	BASE	4.91	257	6.17	256	-2.6	100	-2.6	174	418	979.6	NA	0.0000		9999	890	0	0	0
2017/11/23 11:03:00	BASE	5.21	259	6.43	257	-2.6	100	-2.6	184	438	979.6	NA	0.0000		9999	890	0	0	0
2017/11/23 11:04:00	BASE	5.59	259	6.74	254	-2.6	100	-2.6	190	451	979.6	NA	0.0000		9999	1080	0	0	0
2017/11/23 11:05:00	BASE	5.97	258	6.84	257	-2.7	100	-2.7	190	450	979.6	NA	0.0000		9999	1210	22470	24350	0
2017/11/23 11:06:00	BASE	5.71	259	6.84	257	-2.7	100	-2.7	192	453	979.6	NA	0.0000		9999	1080	2660	0	0
2017/11/23 11:07:00	BASE	5.20	260	6.84	257	-2.7	100	-2.7	187	445	979.6	NA	0.0000		9999	1150	2530	0	0
2017/11/23 11:08:00	BASE	5.06	259	6.84	257	-2.7	100	-2.7	203	475	979.6	NA	0.0000		9999	950	2690	0	0
2017/11/23 11:09:00	BASE	4.89	259	6.84	257	-2.7	100	-2.7	220	510	979.6	NA	0.0000		9999	850	2660	0	0
2017/11/23 11:10:00	BASE	4.22	261	6.84	257	-2.7	100	-2.7	228	526	979.6	NA	0.0000		9999	850	2620	0	0
2017/11/23 11:11:00	BASE	3.90	262	6.84	257	-2.7	100	-2.7	237	543	979.6	NA	0.0000		9999	790	1310	0	0
2017/11/23 11:12:00	BASE	4.01	259	6.84	257	-2.7	100	-2.7	236	544	979.5	NA	0.0000		9999	1050	2660	0	0
2017/11/23 11:13:00	BASE	4.27	257	6.84	257	-2.6	100	-2.6	231	532	979.5	NA	0.0000		9999	850	2690	0	0
2017/11/23 11:14:00	BASE	3.93	255	6.84	257	-2.6	100	-2.6	232	535	979.5	NA	0.0000		9999	790	2660	0	0
2017/11/23 11:15:00	BASE	3.33	255	6.38	256	-2.6	100	-2.6	227	524	979.5	NA	0.0000		9999	850	2690	0	0
2017/11/23 11:16:00	BASE	3.98	257	6.17	258	-2.7	100	-2.7	212	497	979.5	NA	0.0000		9999	850	0	0	0
2017/11/23 11:17:00	BASE	4.44	261	6.17	258	-2.7	100	-2.7	190	453	979.5	NA	0.0000		9999	790	0	0	0
2017/11/23 11:18:00	BASE	4.39	265	5.50	260	-2.6	100	-2.6	179	431	979.4	NA	0.0000		9999	720	0	0	0
2017/11/23 11:19:00	BASE	4.37	264	5.30	260	-2.6	100	-2.6	187	449	979.5	NA	0.0000		9999	750	0	0	0
2017/11/23 11:20:00	BASE	4.46	262	5.45	259	-2.6	100	-2.6	172	419	979.4	NA	0.0000		9999	750	2690	0	0
2017/11/23 11:21:00	BASE	4.76	265	5.61	267	-2.6	100	-2.6	186	445	979.4	NA	0.0000		9999	790	0	0	0
2017/11/23 11:22:00	BASE	4.94	266	6.02	264	-2.6	100	-2.6	188	451	979.3	NA	0.0000		9999	750	2690	0	0
2017/11/23 11:23:00	BASE	4.83	264	6.02	264	-2.7	100	-2.7	188	452	979.3	NA	0.0000		9999	890	0	0	0
2017/11/23 11:24:00	BASE	4.43	261	6.02	264	-2.7	100	-2.7	184	445	979.3	NA	0.0000		9999	850	0	0	0
2017/11/23 11:25:00	BASE	4.62	261	6.02	264	-2.7	100	-2.7	196	468	979.3	NA	0.0000		9999	820	0	0	0
2017/11/23 11:26:00	BASE	4.55	262	6.02	264	-2.7	100	-2.7	198	472	979.3	NA	0.0000		9999	850	0	0	0
2017/11/23 11:27:00	BASE	3.93	262	6.02	264	-2.7	100	-2.7	191	460	979.3	NA	0.0000		9999	820	0	0	0
2017/11/23 11:28:00	BASE	3.88	263	6.02	264	-2.7	100	-2.7	178	433	979.3	NA	0.0000		9999	820	0	0	0
2017/11/23 11:29:00	BASE	4.16	264	6.02	264	-2.7	100	-2.7	176	430	979.3	NA	0.0000		9999	790	0	0	0
2017/11/23 11:30:00	BASE	4.44	262	6.02	264	-2.7	100	-2.7	187	450	979.3	NA	0.0000		9999	850	0	0	0
2017/11/23 11:31:00	BASE	4.29	260	6.02	264	-2.7	100	-2.7	189	454	979.2	NA	0.0000		9999	850	0	0	0
2017/11/23 11:32:00	BASE	3.78	259	5.71	250	-2.6	100	-2.6	198	472	979.2	NA	0.0000		9999	820	0	0	0
2017/11/23 11:33:00	BASE	3.33	260	5.71	250	-2.6	100	-2.6	199	474	979.2	NA	0.0000		9999	950	0	0	0
2017/11/23 11:34:00	BASE	3.01	262	5.71	250	-2.6	100	-2.6	188	454	979.2	NA	0.0000		9999	790	0	0	0
2017/11/23 11:35:00	BASE	3.52	264	5.40	266	-2.6	100	-2.6	183	444	979.2	NA	0.0000		9999	820	2620	0	0
2017/11/23 11:36:00	BASE	3.63	264	5.40	266	-2.6	100	-2.6	174	426	979.2	NA	0.0000		9999	790	0	0	0
2017/11/23 11:37:00	BASE	3.51	265	5.40	266	-2.6	100	-2.6	173	423	979.2	NA	0.0000		9999	750	0	0	0
2017/11/23 11:38:00	BASE	3.42	266	5.40	266	-2.7	100	-2.7	176	431	979.2	NA	0.0000		9999	750	0	0	0
2017/11/23 11:39:00	BASE	3.30	267	5.40	266	-2.7	100	-2.7	182	443	979.2	NA	0.0000		9999	850	20540	0	0
2017/11/23 11:40:00	BASE	3.72	269	4.78	266	-2.7	100	-2.7	182	443	979.2	NA	0.0000		9999	820	0	0	0
2017/11/23 11:41:00	BASE	3.55	266	4.68	260	-2.6	100	-2.6	192	463	979.2	NA	0.0000		9999	850	0	0	0
2017/11/23 11:42:00	BASE	3.11	259	4.68	260	-2.6	100	-2.6	199	478	979.2	NA	0.0000		9999	790	1280	0	0
2017/11/23 11:43:00	BASE	2.83	258	4.68	260	-2.6	100	-2.6	207	495	979.2	NA	0.0000		9999	790	0	0	0
2017/11/23 11:44:00	BASE	3.11	260	4.68	260	-2.6	100	-2.6	223	527	979.2	NA	0.0000		9999	850	0	0	0
2017/11/23 11:45:00	BASE	3.29	265	4.68	260	-2.6	100	-2.6	225	533	979.2	NA	0.0000		9999	890	2720	0	0
2017/11/23 11:46:00	BASE	3.34	268	4.37	266	-2.6	100	-2.6	225	532	979.2	NA	0.0000		9999	850	0	0	0
2017/11/23 11:47:00	BASE	3.65	267	4.58	264	-2.5	100	-2.5	232	547	979.2	NA	0.0000		9999	920	0	0	0
2017/11/23 11:48:00	BASE	3.89	262	4.58	264	-2.5	100	-2.5	231	546	979.1	NA	0.0000		9999	890	0	0	0
2017/11/23 11:49:00	BASE	3.77	260	4.58	264	-2.5	100	-2.5	223	530	979.1	NA	0.0000		9999	920	2760	0	0
2017/11/23 11:50:00	BASE	3.43	264	4.58	264	-2.5	100	-2.5	233	548	979.1	NA	0.0000		9999	890	2660	0	0
2017/11/23 11:51:00	BASE	3.37	267	4.58	264	-2.5	100	-2.5	232	547	979.1	NA	0.0000		9999	1020	2720	0	0
2017/11/23 11:52:00	BASE	3.75	269	4.58	270	-2.5	100	-2.5	232	548	979.1	NA	0.0000		9999	920	2690	0	0
2017/11/23 11:53:00	BASE	4.08	268	4.68	270	-2.5	100	-2.5	233	550	979.1	NA	0.0000		9999	920	2690	0	0
2017/11/23 11:54:00	BASE	3.94	269	4.68	270	-2.5	100	-2.5	239	562	979.1	NA	0.0000		9999	980	2720	18900	0
2017/11/23 11:55:00	BASE	3.89	268	4.68	270	-2.5	100	-2.5	249	581	979.1	NA	0.0000		9999	890	2760	0	0
2017/11/23 11:56:00	BASE	3.91	265	4.78	260	-2.5	100	-2.5	258	599	979.1	NA	0.0000		9999	1050	2760	0	0
2017/11/23 11:57:00	BASE	3.99	261	4.78	260	-2.5	100	-2.5	268	621	979.1	NA	0.0000		9999	950	2790	0	0
2017/11/23 11:58:00	BASE	4.22	256	4.78	254	-2.5	100	-2.5	285	657	979.1	NA	0.0000		9999	1020	0	0	0
2017/11/23 11:59:00	BASE	4.22	255	4.94	255	-2.5	100	-2.5	282	653	979.1	NA	0.0000		9999	950	2820	0	0
2017/11/23 12:00:00	BASE	4.22	259	5.35	253	-2.5	100	-2.5	267	624	979.0	NA	0.0000		9999	890	0	0	0
2017/11/23 12:01:00	BASE	4.46	260	5.35	253	-2.5	100	-2.5	254	599	979.0	NA	0.0000		9999	920	0	0	0
2017/11/23 12:02:00	BASE	4.73	259	5.81	254	-2.4	100	-2.4	253	599	979.0	NA	0.0000		9999	920	0	0	0
2017/11/23 12:03:00	BASE	5.08	259	5.81	254	-2.4	100	-2.4	241	576	979.0	NA	0.0000		9999	1020	2890	0	0
2017/11/23 12:04:00	BASE	5.10	259	5.81	254	-2.4	100	-2.4	225	542	979.0	NA	0.0000		9999	1150	0	0	0
2017/11/23 12:05:00	BASE	4.40	256	5.81	254	-2.4	100	-2.4	225	543	979.0	NA	0.0000		9999	920	0	0	0
2017/11/23 12:06:00	BASE	4.18	255	5.81	254	-2.4	100	-2.4	223	540	979.0	NA	0.0000		9999	1050	0	0	0
2017/11/23 12:07:00	BASE	4.12	257	5.81	254	-2.4	100	-2.4	215	525	978.9	NA	0.0000		9999	980	0	0	0
2017/11/23 12:08:00	BASE	3.51	256	5.81	254	-2.4	100	-2.4	214	522	979.0	NA	0.0000		9999	950	1380	0	0
2017/11/23 12:09:00	BASE	3.36	257	5.81	254	-2.4	100	-2.4	211	517	979.0	NA	0.0000		9999	950	0	0	0
2017/11/23 12:10:00	BASE	3.70	257	5.81	254	-2.4	100	-2.4	211	517	978.9	NA	0.0000		9999	950	18440	0	0
2017/11/23 12:11:00	BASE	4.21	253	5.81	254	-2.4	100	-2.4	210	515	978.9	NA	0.0000		9999	950	1410	0	0
2017/11/23 12:12:00	BASE	4.13	253	5.66	265	-2.4	100	-2.4	200	497	978.9	NA	0.0000		9999	980	0	0	0
2017/11/23 12:13:00	BASE	3.66	249	5.45	253	-2.4	100	-2.4	189	474	978.9	NA	0.0000		9999	950	0	0	0
2017/11/23 12:14:00	BASE	3.95	241	5.71	235	-2.4	100	-2.4	179	452	978.8	NA	0.0000		9999	980	0	0	0
2017/11/23 12:15:00	BASE	4.34	242	5.71	235	-2.4	100	-2.4	172	434	978.8	NA	0.0000		9999	1050	0	0	0
2017/11/23 12:16:00	BASE	4.46	240	5.71	235	-2.4	100	-2.4	169	427	978.7	NA	0.0000		9999	920	0	0	0
2017/11/23 12:17:00	BASE	4.31	239	5.71	235	-2.4	100	-2.4	166	421	978.7	NA	0.0000		9999	890	0	0	0
2017/11/23 12:18:00	BASE	4.66	240	6.07	237	-2.4	100	-2.4	171	430	978.7	NA	0.0000		9999	920	0	0	0
2017/11/23 12:19:00	BASE	5.48	242	6.48	242	-2.4	100	-2.4	172	431	978.7	NA	0.0000		9999	980	0	0	0
2017/11/23 12:20:00	BASE	5.49	243	6.74	239	-2.4	100	-2.4	182	451	978.7	NA	0.0000		9999	950	0	0	0
2017/11/23 12:21:00	BASE	5.84	239	7.05	240	-2.4	100	-2.4	191	470	978.7	NA	0.0000		9999	950	0	0	0
2017/11/23 12:22:00	BASE	6.26	238	7.05	240	-2.4	100	-2.4	195	479	978.7	NA	0.0000		9999	1280	0	0	0
2017/11/23 12:23:00	BASE	5.53	241	7.05	240	-2.4	100	-2.4	202	495	978.7	NA	0.0000		9999	1050	0	0	0
2017/11/23 12:24:00	BASE	5.45	239	7.05	240	-2.4	100	-2.4	202	496	978.7	NA	0.0000		9999	1080	2170	0	0
2017/11/23 12:25:00	BASE	6.12	237	7.05	240	-2.4	100	-2.4	199	489	978.7	NA	0.0000		9999	920	22380	0	0
2017/11/23 12:26:00	BASE	5.39	244	7.05	240	-2.4	100	-2.4	187	466	978.7	NA	0.0000		9999	820	0	0	0
2017/11/23 12:27:00	BASE	4.24	253	7.05	240	-2.4	100	-2.4	166	424	978.7	NA	0.0000		9999	890	0	0	0
2017/11/23 12:28:00	BASE	4.25	256	7.05	240	-2.4	100	-2.4	149	388	978.6	NA	0.0000		9999	890	0	0	0
2017/11/23 12:29:00	BASE	4.23	256	7.05	240	-2.4	100	-2.4	156	400	978.6	NA	0.0000		9999	890	1570	0	0
2017/11/23 12:30:00	BASE	3.79	250	7.05	240	-2.4	100	-2.4	180	449	978.6	NA	0.0000		9999	980	1350	0	0
2017/11/23 12:31:00	BASE	3.82	246	6.74	231	-2.4	100	-2.4	199	487	978.6	NA	0.0000		9999	1020	0	0	0
2017/11/23 12:32:00	BASE	4.08	246	6.74	231	-2.4	100	-2.4	221	531	978.6	NA	0.0000		9999	890	0	0	0
2017/11/23 12:33:00	BASE	4.58	242	6.74	231	-2.3	100	-2.3	249	590	978.6	NA	0.0000		9999	1480	0	0	0
2017/11/23 12:34:00	BASE	4.98	240	6.58	247	-2.3	100	-2.3	272	639	978.6	NA	0.0000		9999	1380	0	0	0
2017/11/23 12:35:00	BASE	5.21	243	6.58	247	-2.3	100	-2.3	268	635	978.6	NA	0.0000		9999	1380	0	0	0
2017/11/23 12:36:00	BASE	5.48	242	6.58	247	-2.4	100	-2.4	238	577	978.6	NA	0.0000		9999	1350	0	0	0
2017/11/23 12:37:00	BASE	5.11	245	6.58	247	-2.4	100	-2.4	227	553	978.5	NA	0.0000		9999	1020	0	0	0
2017/11/23 12:38:00	BASE	5.56	246	6.89	246	-2.5	100	-2.5	231	561	978.5	NA	0.0000		9999	1050	0	0	0
2017/11/23 12:39:00	BASE	6.16	241	6.89	246	-2.5	100	-2.5	228	556	978.5	NA	0.0000		9999	1210	22870	0	0
2017/11/23 12:40:00	BASE	5.42	241	6.89	246	-2.5	100	-2.6	221	542	978.5	NA	0.0000		9999	1150	0	0	0
2017/11/23 12:41:00	BASE	5.02	241	6.89	246	-2.5	100	-2.6	222	544	978.5	NA	0.0000		9999	1050	20600	22930	0
2017/11/23 12:42:00	BASE	5.20	239	6.89	246	-2.5	99	-2.6	227	553	978.5	NA	0.0000		9999	1080	0	0	0
2017/11/23 12:43:00	BASE	5.18	237	6.89	246	-2.5	99	-2.6	235	569	978.5	NA	0.0000		9999	1150	0	0	0
2017/11/23 12:44:00	BASE	4.74	238	6.89	246	-2.5	99	-2.6	241	582	978.5	NA	0.0000		9999	1380	0	0	0
2017/11/23 12:45:00	BASE	4.40	241	6.89	246	-2.4	99	-2.6	237	576	978.5	NA	0.0000		9999	1570	0	0	0
2017/11/23 12:46:00	BASE	4.65	241	6.89	246	-2.4	99	-2.6	240	581	978.5	NA	0.0000		9999	1570	0	0	0
2017/11/23 12:47:00	BASE	4.36	242	6.89	246	-2.4	99	-2.6	248	600	978.5	NA	0.0000		9999	1570	0	0	0
2017/11/23 12:48:00	BASE	4.64	238	6.64	242	-2.4	99	-2.6	249	602	978.4	NA	0.0000		9999	1570	0	0	0
2017/11/23 12:49:00	BASE	5.22	235	6.02	237	-2.4	99	-2.6	248	601	978.4	NA	0.0000		9999	1570	0	0	0
2017/11/23 12:50:00	BASE	5.03	237	6.02	237	-2.4	99	-2.6	236	575	978.4	NA	0.0000		9999	1540	0	0	0
2017/11/23 12:51:00	BASE	4.49	239	6.02	237	-2.4	99	-2.6	244	588	978.4	NA	0.0000		9999	1570	0	0	0
2017/11/23 12:52:00	BASE	3.75	242	5.92	239	-2.4	98	-2.7	263	631	978.4	NA	0.0000		9999	1610	0	0	0
2017/11/23 12:53:00	BASE	4.15	242	5.81	233	-2.5	98	-2.7	208	521	978.4	NA	0.0000		9999	1610	0	0	0
2017/11/23 12:54:00	BASE	4.45	238	5.81	233	-2.5	98	-2.7	204	510	978.4	NA	0.0000		9999	0	0	0	0
2017/11/23 12:55:00	BASE	3.84	243	5.81	233	-2.5	98	-2.7	240	591	978.4	NA	0.0000		9999	1210	0	0	0
2017/11/23 12:56:00	BASE	4.32	243	6.17	236	-2.5	98	-2.7	556	1216	978.3	NA	0.0000		9999	0	0	0	0
2017/11/23 12:57:00	BASE	5.31	238	6.17	236	-2.5	98	-2.7	432	978	978.4	NA	0.0000		9999	1640	0	0	0
2017/11/23 12:58:00	BASE	5.09	242	6.17	236	-2.5	98	-2.7	196	492	978.3	NA	0.0000		9999	1640	0	0	0
2017/11/23 12:59:00	BASE	4.76	243	6.17	236	-2.5	98	-2.7	219	533	978.3	NA	0.0000		9999	0	0	0	0
2017/11/23 13:00:00	BASE	4.78	238	6.17	236	-2.5	98	-2.8	277	652	978.3	NA	0.0000		9999	1640	2100	0	0
2017/11/23 13:01:00	BASE	4.45	244	6.17	236	-2.5	98	-2.8	269	639	978.3	NA	0.0000		9999	1350	0	0	0
2017/11/23 13:02:00	BASE	4.03	252	6.17	236	-2.4	97	-2.8	273	644	978.3	NA	0.0000		9999	1610	0	0	0
2017/11/23 13:03:00	BASE	4.02	249	6.17	236	-2.5	97	-2.8	340	775	978.3	NA	0.0000		9999	1710	0	0	0
2017/11/23 13:04:00	BASE	4.24	245	6.17	236	-2.5	97	-2.9	402	909	978.4	NA	0.0000		9999	1710	0	0	0
2017/11/23 13:05:00	BASE	4.31	240	6.17	236	-2.4	97	-2.9	325	762	978.4	NA	0.0000		9999	1740	0	0	0
2017/11/23 13:06:00	BASE	4.28	231	6.07	242	-2.4	96	-2.9	302	713	978.4	NA	0.0000		9999	1870	0	0	0
2017/11/23 13:07:00	BASE	4.22	230	5.71	244	-2.4	96	-2.9	311	732	978.3	NA	0.0000		9999	1900	0	0	0
2017/11/23 13:08:00	BASE	4.38	233	5.61	241	-2.3	96	-2.9	307	723	978.3	NA	0.0000		9999	2030	15880	23100	0
2017/11/23 13:09:00	BASE	4.30	232	5.45	237	-2.3	95	-2.9	300	710	978.3	NA	0.0000		9999	2170	0	0	0
2017/11/23 13:10:00	BASE	3.86	231	5.45	237	-2.3	95	-3.0	296	701	978.3	NA	0.0000		9999	2200	0	0	0
2017/11/23 13:11:00	BASE	3.94	231	5.04	235	-2.2	94	-3.1	307	721	978.3	NA	0.0000		9999	2260	0	0	0
2017/11/23 13:12:00	BASE	3.91	230	5.04	235	-2.2	94	-3.1	328	765	978.3	NA	0.0000		9999	2230	0	0	0
2017/11/23 13:13:00	BASE	3.36	228	5.04	235	-2.2	93	-3.2	326	762	978.2	NA	0.0000		9999	2360	0	0	0
2017/11/23 13:14:00	BASE	2.97	228	5.04	235	-2.1	93	-3.2	322	753	978.2	NA	0.0000		9999	2360	0	0	0
2017/11/23 13:15:00	BASE	3.03	226	5.04	235	-2.1	92	-3.1	335	780	978.2	NA	0.0000		9999	2260	0	0	0
2017/11/23 13:16:00	BASE	3.12	229	5.04	235	-2.0	92	-3.1	339	790	978.2	NA	0.0000		9999	2330	0	0	0
2017/11/23 13:17:00	BASE	2.98	240	5.04	235	-2.0	92	-3.1	328	768	978.2	NA	0.0000		9999	2230	3540	0	0
2017/11/23 13:18:00	BASE	2.81	245	4.89	230	-2.0	92	-3.1	324	757	978.2	NA	0.0000		9999	2260	0	0	0
2017/11/23 13:19:00	BASE	3.22	242	4.42	234	-2.0	92	-3.1	332	772	978.2	NA	0.0000		9999	2590	0	0	0
2017/11/23 13:20:00	BASE	3.48	239	4.42	234	-2.0	92	-3.1	347	803	978.2	NA	0.0000		9999	3510	0	0	0
2017/11/23 13:21:00	BASE	2.90	240	4.42	234	-2.0	92	-3.1	357	822	978.1	NA	0.0000		9999	3480	0	0	0
2017/11/23 13:22:00	BASE	2.64	244	4.42	234	-2.0	92	-3.1	363	833	978.2	NA	0.0000		9999	3410	0	0	0
2017/11/23 13:23:00	BASE	3.04	241	4.42	234	-2.0	92	-3.1	370	849	978.1	NA	0.0000		9999	3380	0	0	0
2017/11/23 13:24:00	BASE	3.07	235	4.42	234	-2.0	92	-3.2	377	864	978.1	NA	0.0000		9999	3580	0	0	0
2017/11/23 13:25:00	BASE	2.92	238	4.42	234	-2.0	92	-3.2	382	877	978.1	NA	0.0000		9999	3450	0	0	0
2017/11/23 13:26:00	BASE	2.98	241	4.42	234	-2.1	92	-3.2	378	871	978.1	NA	0.0000		9999	1350	0	0	0
2017/11/23 13:27:00	BASE	2.76	241	4.42	234	-2.0	92	-3.1	379	873	978.1	NA	0.0000		9999	1210	2560	0	0
2017/11/23 13:28:00	BASE	2.62	236	4.42	234	-2.0	93	-3.0	376	868	978.0	NA	0.0000		9999	2490	0	0	0
2017/11/23 13:29:00	BASE	2.83	230	4.32	235	-2.0	93	-2.9	383	882	978.0	NA	0.0000		9999	2430	3350	0	0
2017/11/23 13:30:00	BASE	3.01	233	3.70	238	-2.0	94	-2.8	396	909	978.0	NA	0.0000		9999	2430	0	0	0
2017/11/23 13:31:00	BASE	3.19	237	4.63	236	-1.9	94	-2.8	394	907	977.9	NA	0.0000		9999	1280	2490	3540	0
2017/11/23 13:32:00	BASE	3.46	239	4.63	234	-1.9	94	-2.7	394	904	977.9	NA	0.0000		9999	1120	0	0	0
2017/11/23 13:33:00	BASE	3.54	241	4.63	234	-1.9	95	-2.6	401	919	977.9	NA	0.0000		9999	3280	0	0	0
2017/11/23 13:34:00	BASE	3.77	243	5.04	230	-1.9	95	-2.6	420	957	977.9	NA	0.0000		9999	4040	0	0	0
2017/11/23 13:35:00	BASE	4.01	240	5.04	230	-1.9	95	-2.5	453	1022	977.9	NA	0.0000		9999	3670	0	0	0
2017/11/23 13:36:00	BASE	3.79	244	5.04	230	-1.8	96	-2.5	492	1103	977.9	NA	0.0000		9999	3450	0	0	0
2017/11/23 13:37:00	BASE	3.83	246	5.04	230	-1.8	96	-2.4	440	1008	977.9	NA	0.0000		9999	2950	0	0	0
2017/11/23 13:38:00	BASE	4.07	242	5.14	243	-1.9	96	-2.4	367	868	977.9	NA	0.0000		9999	2300	2950	22770	0
2017/11/23 13:39:00	BASE	3.83	244	5.14	243	-1.9	96	-2.4	319	771	977.8	NA	0.0000		9999	2300	0	0	0
2017/11/23 13:40:00	BASE	4.10	250	5.45	254	-1.9	97	-2.3	288	706	977.8	NA	0.0000		9999	2300	0	0	0
2017/11/23 13:41:00	BASE	4.34	258	5.45	254	-1.9	97	-2.4	275	678	977.8	NA	0.0000		9999	2460	0	0	0
2017/11/23 13:42:00	BASE	4.30	259	5.50	254	-1.9	97	-2.3	276	678	977.7	NA	0.0000		9999	2490	0	0	0
2017/11/23 13:43:00	BASE	4.38	258	5.50	254	-1.9	97	-2.3	282	688	977.7	NA	0.0000		9999	2530	21880	0	0
2017/11/23 13:44:00	BASE	4.29	258	5.50	254	-2.0	98	-2.3	289	700	977.7	NA	0.0000		9999	2790	0	0	0
2017/11/23 13:45:00	BASE	4.66	253	5.50	254	-2.0	98	-2.3	300	722	977.7	NA	0.0000		9999	2760	0	0	0
2017/11/23 13:46:00	BASE	4.51	250	5.50	254	-2.0	98	-2.2	319	759	977.7	NA	0.0000		9999	2790	0	0	0
2017/11/23 13:47:00	BASE	3.82	255	5.50	254	-2.0	98	-2.3	338	795	977.7	NA	0.0000		9999	2820	3350	0	0
2017/11/23 13:48:00	BASE	3.51	258	5.50	254	-2.0	98	-2.3	360	838	977.7	NA	0.0000		9999	3770	0	0	0
2017/11/23 13:49:00	BASE	3.43	257	5.50	254	-2.0	98	-2.3	375	868	977.7	NA	0.0000		9999	3080	3900	0	0
2017/11/23 13:50:00	BASE	3.73	257	5.50	254	-2.0	98	-2.2	386	888	977.6	NA	0.0000		9999	3180	24380	0	0
2017/11/23 13:51:00	BASE	4.21	257	5.50	254	-1.9	98	-2.2	412	940	977.6	NA	0.0000		9999	4460	5180	22110	0
2017/11/23 13:52:00	BASE	4.14	258	5.45	250	-1.9	98	-2.2	432	980	977.6	NA	0.0000		9999	3310	4590	5180	0
2017/11/23 13:53:00	BASE	3.64	262	5.45	250	-1.9	98	-2.2	533	1193	977.6	NA	0.0000		9999	3770	4200	0	0
2017/11/23 13:54:00	BASE	3.57	263	5.45	250	-1.9	98	-2.2	540	1195	977.5	NA	0.0000		9999	3250	0	0	0
2017/11/23 13:55:00	BASE	3.75	260	5.04	251	-1.9	98	-2.2	495	1112	977.5	NA	0.0000		9999	3280	6400	0	0
2017/11/23 13:56:00	BASE	4.23	257	5.71	252	-1.8	98	-2.1	435	990	977.5	NA	0.0000		9999	6370	22510	0	0
2017/11/23 13:57:00	BASE	4.83	254	5.71	252	-1.8	97	-2.1	417	955	977.4	NA	0.0000		9999	4460	6560	0	0
2017/11/23 13:58:00	BASE	4.39	253	5.71	252	-1.8	97	-2.2	419	966	977.4	NA	0.0000		9999	4430	0	0	0
2017/11/23 13:59:00	BASE	3.89	257	5.71	252	-1.8	97	-2.3	383	886	977.4	NA	0.0000		9999	6730	0	0	0
2017/11/23 14:00:00	BASE	3.87	260	5.71	252	-1.9	97	-2.3	381	883	977.4	NA	0.0000		9999	4170	0	0	0
2017/11/23 14:01:00	BASE	3.69	258	5.71	252	-1.9	97	-2.3	400	924	977.4	NA	0.0000		9999	3900	0	0	0
2017/11/23 14:02:00	BASE	3.47	259	5.71	252	-1.9	97	-2.3	409	942	977.3	NA	0.0000		9999	3640	4070	0	0
2017/11/23 14:03:00	BASE	3.32	261	5.71	252	-1.8	97	-2.3	395	919	977.3	NA	0.0000		9999	3020	0	0	0
2017/11/23 14:04:00	BASE	3.84	259	5.71	252	-1.8	97	-2.2	365	858	977.3	NA	0.0000		9999	1940	3870	0	0
2017/11/23 14:05:00	BASE	4.51	257	5.71	252	-1.8	97	-2.2	324	776	977.3	NA	0.0000		9999	1710	3150	0	0
2017/11/23 14:06:00	BASE	4.57	258	5.92	260	-1.8	97	-2.2	304	727	977.3	NA	0.0000		9999	1610	3250	0	0
2017/11/23 14:07:00	BASE	4.94	257	5.92	260	-1.8	97	-2.2	326	768	977.3	NA	0.0000		9999	3410	3900	0	0
2017/11/23 14:08:00	BASE	5.06	257	5.92	260	-1.9	97	-2.3	351	815	977.3	NA	0.0000		9999	3410	0	0	0
2017/11/23 14:09:00	BASE	4.89	258	5.92	260	-1.9	97	-2.3	376	867	977.3	NA	0.0000		9999	1020	3580	0	0
2017/11/23 14:10:00	BASE	4.75	261	5.92	260	-1.9	97	-2.3	401	923	977.3	NA	0.0000		9999	980	3540	0	0
2017/11/23 14:11:00	BASE	4.95	260	6.28	256	-1.9	97	-2.3	421	958	977.3	NA	0.0000		9999	1180	3580	0	0
2017/11/23 14:12:00	BASE	5.42	257	6.28	256	-1.9	97	-2.3	438	990	977.2	NA	0.0000		9999	1310	0	0	0
2017/11/23 14:13:00	BASE	4.96	255	6.28	256	-1.9	97	-2.3	447	1017	977.3	NA	0.0000		9999	3580	0	0	0
2017/11/23 14:14:00	BASE	4.58	257	6.28	256	-1.9	97	-2.3	392	901	977.3	NA	0.0000		9999	1310	3610	0	0
2017/11/23 14:15:00	BASE	4.60	255	6.28	256	-2.0	97	-2.4	411	942	977.2	NA	0.0000		9999	3640	0	0	0
2017/11/23 14:16:00	BASE	4.17	255	6.28	256	-2.0	97	-2.4	437	992	977.2	NA	0.0000		9999	3670	0	0	0
2017/11/23 14:17:00	BASE	4.11	264	6.28	256	-2.0	97	-2.4	409	942	977.2	NA	0.0000		9999	1050	3740	0	0
2017/11/23 14:18:00	BASE	4.49	263	6.28	256	-1.9	97	-2.3	348	817	977.2	NA	0.0000		9999	980	1870	0	0
2017/11/23 14:19:00	BASE	4.79	264	6.28	256	-1.9	97	-2.3	376	875	977.2	NA	0.0000		9999	1020	1670	3900	0
2017/11/23 14:20:00	BASE	5.07	266	6.28	256	-1.8	97	-2.2	357	837	977.1	NA	0.0000		9999	1180	0	0	0
2017/11/23 14:21:00	BASE	4.84	263	6.12	261	-1.8	97	-2.2	342	803	977.1	NA	0.0000		9999	1540	0	0	0
2017/11/23 14:22:00	BASE	4.63	266	6.12	261	-1.8	97	-2.2	365	847	977.1	NA	0.0000		9999	3710	0	0	0
2017/11/23 14:23:00	BASE	4.48	264	6.12	261	-1.8	97	-2.2	373	863	977.1	NA	0.0000		9999	3770	0	0	0
2017/11/23 14:24:00	BASE	4.73	259	6.12	261	-1.8	97	-2.2	387	894	977.1	NA	0.0000		9999	3640	0	0	0
2017/11/23 14:25:00	BASE	5.02	259	6.12	261	-1.8	97	-2.3	434	990	977.1	NA	0.0000		9999	3540	0	0	0
2017/11/23 14:26:00	BASE	4.51	260	6.12	261	-1.8	96	-2.3	476	1069	977.1	NA	0.0000		9999	3640	0	0	0
2017/11/23 14:27:00	BASE	4.30	260	6.12	261	-1.8	96	-2.4	558	1243	977.1	NA	0.0000		9999	3670	0	0	0
2017/11/23 14:28:00	BASE	4.35	261	6.12	261	-1.9	96	-2.4	550	1210	977.1	NA	0.0000		9999	3740	0	0	0
2017/11/23 14:29:00	BASE	4.38	261	5.92	261	-1.9	96	-2.5	702	1515	977.1	NA	0.0000		9999	3670	0	0	0
2017/11/23 14:30:00	BASE	4.31	262	5.92	261	-1.8	95	-2.4	598	1330	977.1	NA	0.0000		9999	3510	0	0	0
2017/11/23 14:31:00	BASE	4.15	267	5.71	263	-1.8	95	-2.4	732	1515	977.1	NA	0.0000		9999	2000	4270	0	0
2017/11/23 14:32:00	BASE	4.44	269	5.71	263	-1.7	95	-2.4	586	1300	977.1	NA	0.0000		9999	1710	0	0	0
2017/11/23 14:33:00	BASE	4.54	269	5.71	263	-1.7	95	-2.4	437	1010	977.0	NA	0.0000		9999	1410	0	0	0
2017/11/23 14:34:00	BASE	4.50	268	5.71	263	-1.7	95	-2.4	340	819	977.0	NA	0.0000		9999	1480	1970	2720	0
2017/11/23 14:35:00	BASE	4.49	268	5.25	254	-1.7	95	-2.4	310	757	977.0	NA	0.0000		9999	1870	2430	23100	0
2017/11/23 14:36:00	BASE	4.52	267	5.25	260	-1.7	95	-2.4	309	755	977.1	NA	0.0000		9999	1480	2400	0	0
2017/11/23 14:37:00	BASE	4.20	263	5.25	260	-1.7	95	-2.4	307	757	977.0	NA	0.0000		9999	1180	0	0	0
2017/11/23 14:38:00	BASE	4.12	265	5.25	260	-1.8	96	-2.4	290	727	977.0	NA	0.0000		9999	1120	2100	0	0
2017/11/23 14:39:00	BASE	4.85	273	5.56	269	-1.7	96	-2.3	258	655	977.0	NA	0.0000		9999	1020	1570	1940	0
2017/11/23 14:40:00	BASE	5.15	273	5.76	268	-1.7	96	-2.3	247	625	977.0	NA	0.0000		9999	1020	0	0	0
2017/11/23 14:41:00	BASE	5.05	266	5.76	268	-1.8	96	-2.3	271	671	977.0	NA	0.0000		9999	1180	2460	3580	0
2017/11/23 14:42:00	BASE	4.30	262	5.76	268	-1.7	96	-2.3	293	722	977.0	NA	0.0000		9999	1020	3610	0	0
2017/11/23 14:43:00	BASE	3.98	266	5.76	268	-1.7	96	-2.3	283	705	977.0	NA	0.0000		9999	980	0	0	0
2017/11/23 14:44:00	BASE	4.61	266	5.76	268	-1.7	96	-2.3	263	657	976.9	NA	0.0000		9999	980	0	0	0
2017/11/23 14:45:00	BASE	4.73	259	5.76	268	-1.7	96	-2.3	277	675	976.9	NA	0.0000		9999	1770	2560	3350	0
2017/11/23 14:46:00	BASE	4.70	254	5.76	268	-1.7	96	-2.3	370	862	976.9	NA	0.0000		9999	3380	0	0	0
2017/11/23 14:47:00	BASE	4.28	248	5.76	268	-1.8	96	-2.3	711	1515	976.9	NA	0.0000		9999	3480	0	0	0
2017/11/23 14:48:00	BASE	3.50	248	5.76	268	-1.8	96	-2.4	436	993	976.8	NA	0.0000		9999	2950	3540	0	0
2017/11/23 14:49:00	BASE	2.99	251	5.76	268	-1.8	96	-2.4	404	924	976.8	NA	0.0000		9999	1020	3480	0	0
2017/11/23 14:50:00	BASE	3.08	246	5.71	261	-1.9	96	-2.4	549	1233	976.8	NA	0.0000		9999	920	0	0	0
2017/11/23 14:51:00	BASE	3.48	239	5.66	257	-1.9	97	-2.3	424	972	976.8	NA	0.0000		9999	950	3580	0	0
2017/11/23 14:52:00	BASE	3.46	237	5.66	257	-1.8	97	-2.3	592	1312	976.8	NA	0.0000		9999	1050	3670	0	0
2017/11/23 14:53:00	BASE	3.62	237	5.66	257	-1.8	97	-2.2	999	1515	976.8	NA	0.0000		9999	1020	0	0	0
2017/11/23 14:54:00	BASE	3.65	239	5.66	257	-1.8	97	-2.2	591	1304	976.8	NA	0.0000		9999	950	0	0	0
2017/11/23 14:55:00	BASE	3.28	238	5.20	247	-1.8	97	-2.2	587	1309	976.8	NA	0.0000		9999	1020	0	0	0
2017/11/23 14:56:00	BASE	3.17	240	4.99	249	-1.7	97	-2.2	524	1173	976.8	NA	0.0000		9999	950	0	0	0
2017/11/23 14:57:00	BASE	3.25	244	4.89	237	-1.7	97	-2.1	661	1461	976.8	NA	0.0000		9999	1280	0	0	0
2017/11/23 14:58:00	BASE	3.45	242	4.89	237	-1.7	97	-2.1	525	1194	976.8	NA	0.0000		9999	950	0	0	0
2017/11/23 14:59:00	BASE	3.55	237	4.89	237	-1.7	97	-2.1	442	1029	976.7	NA	0.0000		9999	920	0	0	0
2017/11/23 15:00:00	BASE	3.73	236	4.89	237	-1.7	97	-2.1	391	928	976.7	NA	0.0000		9999	950	1570	0	0
2017/11/23 15:01:00	BASE	3.94	237	4.89	237	-1.7	97	-2.1	341	831	976.7	NA	0.0000		9999	920	0	0	0
2017/11/23 15:02:00	BASE	4.20	231	4.89	237	-1.8	97	-2.2	303	753	976.7	NA	0.0000		9999	890	0	0	0
2017/11/23 15:03:00	BASE	4.24	229	4.99	220	-1.8	97	-2.2	260	666	976.7	NA	0.0000		9999	890	0	0	0
2017/11/23 15:04:00	BASE	3.74	232	4.99	220	-1.8	97	-2.2	226	593	976.7	NA	0.0000		9999	850	0	0	0
2017/11/23 15:05:00	BASE	3.63	235	5.14	234	-1.9	97	-2.2	216	569	976.7	NA	0.0000		9999	890	0	0	0
2017/11/23 15:06:00	BASE	4.42	239	5.56	245	-1.9	98	-2.2	228	587	976.7	NA	0.0000		9999	850	0	0	0
2017/11/23 15:07:00	BASE	4.67	238	5.56	245	-1.9	98	-2.3	275	681	976.7	NA	0.0000		9999	850	0	0	0
2017/11/23 15:08:00	BASE	3.86	241	5.56	245	-1.9	98	-2.2	382	895	976.7	NA	0.0000		9999	890	0	0	0
2017/11/23 15:09:00	BASE	3.68	250	5.56	245	-1.9	98	-2.2	1013	1515	976.6	NA	0.0000		9999	1020	0	0	0
2017/11/23 15:10:00	BASE	3.94	254	5.56	245	-1.9	98	-2.2	1085	1515	976.6	NA	0.0000		9999	1020	1610	0	0
2017/11/23 15:11:00	BASE	4.18	256	5.56	245	-1.9	98	-2.2	524	1180	976.6	NA	0.0000		9999	1280	0	0	0
2017/11/23 15:12:00	BASE	4.49	260	5.56	245	-1.9	98	-2.2	464	1068	976.6	NA	0.0000		9999	1150	0	0	0
2017/11/23 15:13:00	BASE	4.61	263	5.56	245	-1.9	98	-2.2	428	996	976.6	NA	0.0000		9999	920	0	0	0
2017/11/23 15:14:00	BASE	5.00	260	5.66	264	-1.9	97	-2.2	435	1010	976.6	NA	0.0000		9999	920	23390	0	0
2017/11/23 15:15:00	BASE	5.17	260	5.71	262	-1.9	97	-2.3	439	1006	976.6	NA	0.0000		9999	3670	0	0	0
2017/11/23 15:16:00	BASE	4.89	261	5.71	262	-2.0	97	-2.4	731	1515	976.5	NA	0.0000		9999	1570	0	0	0
2017/11/23 15:17:00	BASE	4.79	262	5.71	262	-1.9	97	-2.4	1085	1515	976.5	NA	0.0000		9999	1050	0	0	0
2017/11/23 15:18:00	BASE	4.67	261	5.71	262	-1.9	97	-2.3	503	1128	976.5	NA	0.0000		9999	1280	0	0	0
2017/11/23 15:19:00	BASE	4.42	263	5.71	262	-1.9	97	-2.3	515	1157	976.5	NA	0.0000		9999	1280	0	0	0
2017/11/23 15:20:00	BASE	4.36	264	5.71	262	-1.8	97	-2.3	510	1148	976.5	NA	0.0000		9999	1210	16800	22020	0
2017/11/23 15:21:00	BASE	4.30	262	5.71	262	-1.8	97	-2.3	514	1163	976.5	NA	0.0000		9999	1080	0	0	0
2017/11/23 15:22:00	BASE	4.70	260	5.86	262	-1.8	96	-2.3	484	1097	976.5	NA	0.0000		9999	1120	0	0	0
2017/11/23 15:23:00	BASE	4.98	263	5.86	271	-1.9	96	-2.4	520	1173	976.5	NA	0.0000		9999	950	0	0	0
2017/11/23 15:24:00	BASE	5.07	267	6.12	266	-1.9	96	-2.5	570	1273	976.5	NA	0.0000		9999	1120	0	0	0
2017/11/23 15:25:00	BASE	5.16	266	6.12	266	-2.0	96	-2.5	478	1098	976.5	NA	0.0000		9999	1210	0	0	0
2017/11/23 15:26:00	BASE	4.57	265	6.12	266	-2.0	96	-2.6	399	939	976.5	NA	0.0000		9999	1310	20110	21690	0
2017/11/23 15:27:00	BASE	4.30	264	6.12	266	-2.1	96	-2.6	380	902	976.5	NA	0.0000		9999	1050	0	0	0
2017/11/23 15:28:00	BASE	4.76	262	6.12	266	-2.1	96	-2.7	385	912	976.5	NA	0.0000		9999	1120	0	0	0
2017/11/23 15:29:00	BASE	4.95	265	6.12	266	-2.1	95	-2.8	399	942	976.5	NA	0.0000		9999	1210	0	0	0
2017/11/23 15:30:00	BASE	4.73	267	6.12	266	-2.1	95	-2.8	391	927	976.4	NA	0.0000		9999	1180	0	0	0
2017/11/23 15:31:00	BASE	4.88	268	6.12	266	-2.1	95	-2.8	383	908	976.4	NA	0.0000		9999	1150	0	0	0
2017/11/23 15:32:00	BASE	4.87	267	6.12	266	-2.2	95	-2.9	371	885	976.4	NA	0.0000		9999	1150	0	0	0
2017/11/23 15:33:00	BASE	4.76	262	6.12	266	-2.2	95	-3.0	375	890	976.4	NA	0.0000		9999	1080	21620	0	0
2017/11/23 15:34:00	BASE	4.92	261	5.92	263	-2.2	94	-3.0	379	900	976.4	NA	0.0000		9999	1280	0	0	0
2017/11/23 15:35:00	BASE	4.60	264	5.92	263	-2.3	94	-3.1	375	892	976.4	NA	0.0000		9999	1440	3410	0	0
2017/11/23 15:36:00	BASE	4.13	267	5.92	263	-2.3	94	-3.1	363	868	976.4	NA	0.0000		9999	1310	0	0	0
2017/11/23 15:37:00	BASE	3.98	262	5.92	263	-2.3	94	-3.1	338	814	976.4	NA	0.0000		9999	1120	0	0	0
2017/11/23 15:38:00	BASE	3.90	258	5.81	255	-2.2	94	-3.1	333	801	976.4	NA	0.0000		9999	1210	0	0	0
2017/11/23 15:39:00	BASE	3.66	259	5.81	255	-2.2	94	-3.1	343	823	976.3	NA	0.0000		9999	1180	1900	0	0
2017/11/23 15:40:00	BASE	3.67	263	5.81	255	-2.2	94	-3.0	338	813	976.3	NA	0.0000		9999	1050	0	0	0
2017/11/23 15:41:00	BASE	4.22	268	5.81	255	-2.1	94	-2.9	335	809	976.3	NA	0.0000		9999	1050	0	0	0
2017/11/23 15:42:00	BASE	4.27	267	5.81	255	-2.1	95	-2.8	344	829	976.2	NA	0.0000		9999	1050	0	0	0
2017/11/23 15:43:00	BASE	3.83	262	5.81	255	-2.0	95	-2.7	352	848	976.2	NA	0.0000		9999	980	0	0	0
2017/11/23 15:44:00	BASE	3.63	264	5.45	267	-2.0	95	-2.7	343	832	976.2	NA	0.0000		9999	1080	0	0	0
2017/11/23 15:45:00	BASE	3.79	269	5.45	267	-2.0	95	-2.7	336	820	976.2	NA	0.0000		9999	1080	0	0	0
2017/11/23 15:46:00	BASE	4.79	272	6.17	280	-2.0	95	-2.7	349	847	976.2	NA	0.0000		9999	1050	0	0	0
2017/11/23 15:47:00	BASE	5.44	275	6.17	280	-2.0	95	-2.7	380	914	976.2	NA	0.0000		9999	1150	0	0	0
2017/11/23 15:48:00	BASE	5.03	274	6.17	280	-2.1	95	-2.7	410	979	976.2	NA	0.0000		9999	1150	20010	0	0
2017/11/23 15:49:00	BASE	4.68	272	6.17	280	-2.0	95	-2.8	458	1076	976.2	NA	0.0000		9999	1210	0	0	0
2017/11/23 15:50:00	BASE	4.43	269	6.17	280	-2.0	95	-2.8	527	1215	976.2	NA	0.0000		9999	1250	0	0	0
2017/11/23 15:51:00	BASE	4.64	269	6.17	280	-2.0	94	-2.8	554	1263	976.1	NA	0.0000		9999	1280	0	0	0
2017/11/23 15:52:00	BASE	5.00	268	6.17	280	-2.0	94	-2.8	509	1171	976.1	NA	0.0000		9999	1350	0	0	0
2017/11/23 15:53:00	BASE	4.56	265	6.17	280	-1.9	93	-2.9	534	1221	976.1	NA	0.0000		9999	1440	0	0	0
2017/11/23 15:54:00	BASE	4.48	265	6.17	280	-1.9	93	-2.9	653	1450	976.0	NA	0.0000		9999	1310	0	0	0
2017/11/23 15:55:00	BASE	4.34	262	6.17	280	-1.9	93	-2.9	885	1515	976.1	NA	0.0000		9999	1510	0	0	0
2017/11/23 15:56:00	BASE	3.91	254	5.81	276	-1.8	93	-2.9	1060	1515	976.0	NA	0.0000		9999	1640	0	0	0
2017/11/23 15:57:00	BASE	3.78	250	5.81	276	-1.8	92	-2.9	537	1192	976.0	NA	0.0000		9999	1640	0	0	0
2017/11/23 15:58:00	BASE	3.80	250	5.81	276	-1.8	92	-2.9	1085	1515	976.0	NA	0.0000		9999	1610	0	0	0
2017/11/23 15:59:00	BASE	3.67	250	5.81	276	-1.8	92	-3.0	859	1515	976.0	NA	0.0000		9999	1310	0	0	0
2017/11/23 16:00:00	BASE	3.37	258	5.81	276	-1.9	91	-3.1	1075	1515	976.0	NA	0.0000		9999	1410	22800	0	0
2017/11/23 16:01:00	BASE	3.35	266	5.81	276	-1.8	91	-3.1	956	1515	976.0	NA	0.0000		9999	1410	23330	0	0
2017/11/23 16:02:00	BASE	3.33	264	5.14	258	-1.8	91	-3.0	393	900	976.0	NA	0.0000		9999	1410	0	0	0
2017/11/23 16:03:00	BASE	3.29	263	5.14	258	-1.7	91	-3.0	601	1335	976.0	NA	0.0000		9999	0	0	0	0
2017/11/23 16:04:00	BASE	3.04	259	4.89	240	-1.7	91	-3.0	376	873	976.0	NA	0.0000		9999	1410	0	0	0
2017/11/23 16:05:00	BASE	2.86	258	4.89	240	-1.7	91	-3.0	387	896	976.0	NA	0.0000		9999	1310	0	0	0
2017/11/23 16:06:00	BASE	2.76	258	4.73	245	-1.7	91	-3.0	477	1071	976.0	NA	0.0000		9999	1350	0	0	0
2017/11/23 16:07:00	BASE	2.56	257	4.53	253	-1.7	91	-3.0	680	1499	976.0	NA	0.0000		9999	1310	0	0	0
2017/11/23 16:08:00	BASE	2.52	258	4.01	233	-1.7	91	-3.0	390	904	975.9	NA	0.0000		9999	1350	0	0	0
2017/11/23 16:09:00	BASE	2.67	252	3.91	276	-1.8	91	-3.1	341	808	975.9	NA	0.0000		9999	1250	0	0	0
2017/11/23 16:10:00	BASE	2.61	248	3.86	262	-1.8	91	-3.0	315	753	975.9	NA	0.0000		9999	1380	0	0	0
2017/11/23 16:11:00	BASE	2.47	246	3.86	262	-1.9	91	-3.1	1085	1515	975.9	NA	0.0000		9999	1440	0	0	0
2017/11/23 16:12:00	BASE	2.51	245	3.50	255	-1.9	91	-3.2	591	1314	975.9	NA	0.0000		9999	1640	0	0	0
2017/11/23 16:13:00	BASE	2.76	261	3.45	274	-1.9	91	-3.1	1085	1515	975.9	NA	0.0000		9999	1640	0	0	0
2017/11/23 16:14:00	BASE	2.68	269	3.45	274	-1.8	92	-3.0	893	1515	975.9	NA	0.0000		9999	1440	0	0	0
2017/11/23 16:15:00	BASE	2.73	263	3.65	257	-1.8	92	-2.9	538	1192	975.9	NA	0.0000		9999	1610	0	0	0
2017/11/23 16:16:00	BASE	2.98	258	3.65	257	-1.7	91	-2.9	843	1514	975.9	NA	0.0000		9999	1640	0	0	0
2017/11/23 16:17:00	BASE	2.45	248	3.65	257	-1.7	91	-3.0	665	1454	975.9	NA	0.0000		9999	1540	0	0	0
2017/11/23 16:18:00	BASE	2.04	250	3.65	257	-1.8	91	-3.1	520	1174	975.8	NA	0.0000		9999	1410	0	0	0
2017/11/23 16:19:00	BASE	2.57	264	3.65	257	-1.8	90	-3.1	480	1084	975.8	NA	0.0000		9999	1410	0	0	0
2017/11/23 16:20:00	BASE	3.28	271	3.86	269	-1.7	90	-3.1	840	1515	975.8	NA	0.0000		9999	1350	0	0	0
2017/11/23 16:21:00	BASE	3.73	271	4.37	270	-1.6	90	-3.1	465	1052	975.8	NA	0.0000		9999	1410	0	0	0
2017/11/23 16:22:00	BASE	3.55	265	4.37	270	-1.6	90	-3.1	409	946	975.8	NA	0.0000		9999	1480	21950	0	0
2017/11/23 16:23:00	BASE	3.04	262	4.37	270	-1.5	89	-3.0	397	922	975.8	NA	0.0000		9999	1510	0	0	0
2017/11/23 16:24:00	BASE	2.90	262	4.37	270	-1.5	89	-3.1	410	948	975.8	NA	0.0000		9999	1440	0	0	0
2017/11/23 16:25:00	BASE	3.13	262	4.37	270	-1.5	88	-3.2	431	991	975.8	NA	0.0000		9999	1380	0	0	0
2017/11/23 16:26:00	BASE	3.32	266	4.37	270	-1.6	88	-3.3	442	1016	975.8	NA	0.0000		9999	1710	0	0	0
2017/11/23 16:27:00	BASE	3.14	266	4.37	270	-1.6	88	-3.3	448	1033	975.7	NA	0.0000		9999	1610	0	0	0
2017/11/23 16:28:00	BASE	2.88	263	4.37	270	-1.6	88	-3.3	468	1078	975.7	NA	0.0000		9999	1640	0	0	0
2017/11/23 16:29:00	BASE	2.75	255	4.37	270	-1.6	89	-3.3	479	1104	975.6	NA	0.0000		9999	1480	0	0	0
2017/11/23 16:30:00	BASE	2.66	254	4.37	270	-1.7	89	-3.3	485	1117	975.6	NA	0.0000		9999	1710	0	0	0
2017/11/23 16:31:00	BASE	2.30	256	3.76	261	-1.7	89	-3.3	465	1078	975.6	NA	0.0000		9999	1540	21690	0	0
2017/11/23 16:32:00	BASE	2.52	261	3.70	253	-1.7	89	-3.3	449	1047	975.6	NA	0.0000		9999	1480	0	0	0
2017/11/23 16:33:00	BASE	3.02	266	3.70	253	-1.8	89	-3.3	396	940	975.6	NA	0.0000		9999	1380	0	0	0
2017/11/23 16:34:00	BASE	3.10	271	3.70	253	-1.7	89	-3.3	395	929	975.6	NA	0.0000		9999	1350	0	0	0
2017/11/23 16:35:00	BASE	3.19	274	3.70	253	-1.7	89	-3.3	990	1515	975.6	NA	0.0000		9999	1410	0	0	0
2017/11/23 16:36:00	BASE	2.94	273	3.65	263	-1.7	89	-3.3	477	1099	975.6	NA	0.0000		9999	1510	0	0	0
2017/11/23 16:37:00	BASE	2.51	275	3.65	263	-1.6	89	-3.2	744	1515	975.6	NA	0.0000		9999	0	0	0	0
2017/11/23 16:38:00	BASE	2.35	268	3.65	263	-1.5	89	-3.1	675	1506	975.6	NA	0.0000		9999	1670	0	0	0
2017/11/23 16:39:00	BASE	2.49	260	3.65	263	-1.5	89	-3.1	1085	1515	975.6	NA	0.0000		9999	1710	0	0	0
2017/11/23 16:40:00	BASE	2.53	258	3.65	263	-1.5	89	-3.1	1085	1515	975.5	NA	0.0000		9999	1380	0	0	0
2017/11/23 16:41:00	BASE	2.41	262	3.65	263	-1.5	89	-3.1	1085	1515	975.5	NA	0.0000		9999	1410	0	0	0
2017/11/23 16:42:00	BASE	2.44	269	3.65	263	-1.5	88	-3.1	1085	1515	975.5	NA	0.0000		9999	1350	0	0	0
2017/11/23 16:43:00	BASE	2.74	281	3.50	269	-1.4	88	-3.2	1085	1515	975.4	NA	0.0000		9999	1350	0	0	0
2017/11/23 16:44:00	BASE	3.00	286	3.50	269	-1.4	88	-3.1	1085	1515	975.4	NA	0.0000		9999	1410	0	0	0
2017/11/23 16:45:00	BASE	2.92	277	3.45	267	-1.2	88	-2.9	1009	1515	975.4	NA	0.0000		9999	1440	0	0	0
2017/11/23 16:46:00	BASE	3.08	272	3.65	275	-1.1	87	-2.9	707	1514	975.4	NA	0.0000		9999	1410	0	0	0
2017/11/23 16:47:00	BASE	3.26	272	3.81	273	-1.1	87	-3.0	915	1515	975.4	NA	0.0000		9999	1410	0	0	0
2017/11/23 16:48:00	BASE	3.16	273	3.81	273	-1.1	87	-3.1	1085	1515	975.4	NA	0.0000		9999	1380	0	0	0
2017/11/23 16:49:00	BASE	2.91	276	3.81	273	-1.1	86	-3.2	1085	1515	975.4	NA	0.0000		9999	1380	19160	21360	0
2017/11/23 16:50:00	BASE	2.58	280	3.81	273	-1.3	86	-3.3	1076	1515	975.4	NA	0.0000		9999	1510	0	0	0
2017/11/23 16:51:00	BASE	2.68	291	3.81	273	-1.3	86	-3.3	517	1165	975.4	NA	0.0000		9999	1410	0	0	0
2017/11/23 16:52:00	BASE	3.00	303	3.81	273	-1.2	87	-3.1	1085	1515	975.4	NA	0.0000		9999	1380	0	0	0
2017/11/23 16:53:00	BASE	2.91	305	3.81	273	-1.1	87	-3.1	740	1515	975.3	NA	0.0000		9999	1410	2030	2760	0
2017/11/23 16:54:00	BASE	2.79	305	3.81	273	-1.1	87	-3.0	1085	1515	975.3	NA	0.0000		9999	1440	0	0	0
2017/11/23 16:55:00	BASE	3.11	303	3.91	286	-1.0	87	-2.9	1085	1515	975.3	NA	0.0000		9999	1540	0	0	0
2017/11/23 16:56:00	BASE	3.07	282	3.91	286	-1.0	86	-3.0	950	1514	975.3	NA	0.0000		9999	1380	1770	0	0
2017/11/23 16:57:00	BASE	2.61	264	3.91	286	-1.1	86	-3.1	474	1079	975.3	NA	0.0000		9999	1350	0	0	0
2017/11/23 16:58:00	BASE	2.70	270	3.91	286	-1.1	87	-3.0	579	1299	975.3	NA	0.0000		9999	1410	2360	19260	0
2017/11/23 16:59:00	BASE	2.94	282	3.91	286	-1.1	87	-3.0	482	1093	975.3	NA	0.0000		9999	1350	0	0	0
2017/11/23 17:00:00	BASE	2.82	283	3.91	286	-1.1	87	-2.9	755	1514	975.3	NA	0.0000		9999	1410	0	0	0
2017/11/23 17:01:00	BASE	2.71	278	3.91	286	-1.1	87	-2.9	1085	1515	975.2	NA	0.0000		9999	1380	0	0	0
2017/11/23 17:02:00	BASE	2.79	274	3.91	286	-1.1	87	-2.9	759	1515	975.2	NA	0.0000		9999	1350	0	0	0
2017/11/23 17:03:00	BASE	2.66	272	3.91	286	-1.1	87	-2.9	1053	1515	975.2	NA	0.0000		9999	1610	0	0	0
2017/11/23 17:04:00	BASE	2.62	280	3.91	286	-1.0	87	-2.9	1072	1515	975.2	NA	0.0000		9999	2100	0	0	0
2017/11/23 17:05:00	BASE	2.73	284	3.55	295	-1.0	87	-2.9	1079	1515	975.2	NA	0.0000		9999	1770	0	0	0
2017/11/23 17:06:00	BASE	2.80	289	3.76	299	-1.0	87	-2.9	1085	1515	975.2	NA	0.0000		9999	1770	0	0	0
2017/11/23 17:07:00	BASE	2.88	293	3.76	299	-1.0	87	-2.9	1074	1514	975.2	NA	0.0000		9999	2130	22740	0	0
2017/11/23 17:08:00	BASE	2.78	292	3.76	299	-1.0	87	-3.0	316	757	975.2	NA	0.0000		9999	1440	0	0	0
2017/11/23 17:09:00	BASE	2.61	289	3.76	299	-1.0	87	-2.9	296	720	975.2	NA	0.0000		9999	1570	18280	22440	0
2017/11/23 17:10:00	BASE	2.41	286	3.76	299	-0.9	86	-2.9	309	744	975.2	NA	0.0000		9999	1610	0	0	0
2017/11/23 17:11:00	BASE	2.35	281	3.76	299	-1.0	86	-3.0	436	1017	975.2	NA	0.0000		9999	1410	0	0	0
2017/11/23 17:12:00	BASE	2.44	276	3.76	299	-1.1	86	-3.2	446	1013	975.1	NA	0.0000		9999	1440	0	0	0
2017/11/23 17:13:00	BASE	2.31	277	3.76	299	-1.1	86	-3.2	375	877	975.1	NA	0.0000		9999	1540	0	0	0
2017/11/23 17:14:00	BASE	2.48	277	3.76	299	-1.2	86	-3.3	370	868	975.1	NA	0.0000		9999	1640	2100	0	0
2017/11/23 17:15:00	BASE	2.70	274	3.76	299	-1.3	86	-3.3	366	864	975.1	NA	0.0000		9999	1540	0	0	0
2017/11/23 17:16:00	BASE	2.86	276	3.60	274	-1.3	86	-3.3	386	905	975.1	NA	0.0000		9999	1640	0	0	0
2017/11/23 17:17:00	BASE	2.80	277	3.60	274	-1.3	86	-3.3	427	992	975.1	NA	0.0000		9999	1510	0	0	0
2017/11/23 17:18:00	BASE	2.56	282	3.60	274	-1.3	86	-3.3	393	921	975.1	NA	0.0000		9999	1440	0	0	0
2017/11/23 17:19:00	BASE	2.94	289	3.60	288	-1.3	86	-3.3	381	898	975.0	NA	0.0000		9999	1410	0	0	0
2017/11/23 17:20:00	BASE	3.24	289	3.60	288	-1.3	86	-3.3	390	919	975.0	NA	0.0000		9999	0	0	0	0
2017/11/23 17:21:00	BASE	3.17	286	3.60	288	-1.4	86	-3.4	401	946	975.0	NA	0.0000		9999	1570	2030	2760	0
2017/11/23 17:22:00	BASE	3.25	285	3.76	271	-1.3	86	-3.3	454	1053	974.9	NA	0.0000		9999	1410	0	0	0
2017/11/23 17:23:00	BASE	3.41	285	3.81	283	-1.2	86	-3.2	488	1119	974.9	NA	0.0000		9999	1480	0	0	0
2017/11/23 17:24:00	BASE	3.36	285	3.96	285	-1.2	86	-3.2	506	1154	974.9	NA	0.0000		9999	1710	0	0	0
2017/11/23 17:25:00	BASE	3.18	282	3.96	285	-1.1	86	-3.1	611	1380	974.9	NA	0.0000		9999	2130	0	0	0
2017/11/23 17:26:00	BASE	2.99	281	3.96	285	-1.2	86	-3.1	787	1514	974.9	NA	0.0000		9999	1440	2200	18800	0
2017/11/23 17:27:00	BASE	3.17	284	3.96	285	-1.1	86	-3.1	1085	1515	974.8	NA	0.0000		9999	1440	17130	20440	0
2017/11/23 17:28:00	BASE	3.48	288	4.32	292	-1.1	86	-3.1	1085	1515	974.8	NA	0.0000		9999	1440	0	0	0
2017/11/23 17:29:00	BASE	3.83	290	4.53	296	-1.1	86	-3.1	1085	1515	974.8	NA	0.0000		9999	1510	0	0	0
2017/11/23 17:30:00	BASE	3.81	289	4.53	296	-1.1	86	-3.1	1085	1515	974.8	NA	0.0000		9999	1710	0	0	0
2017/11/23 17:31:00	BASE	3.70	286	4.53	296	-0.9	86	-3.0	1032	1514	974.8	NA	0.0000		9999	2300	0	0	0
2017/11/23 17:32:00	BASE	3.96	289	4.53	296	-0.9	85	-3.0	969	1514	974.8	NA	0.0000		9999	2300	0	0	0
2017/11/23 17:33:00	BASE	3.66	293	4.53	296	-1.0	84	-3.3	916	1515	974.8	NA	0.0000		9999	2260	0	0	0
2017/11/23 17:34:00	BASE	3.14	297	4.53	296	-1.0	84	-3.4	872	1514	974.8	NA	0.0000		9999	2460	0	0	0
2017/11/23 17:35:00	BASE	2.99	301	4.53	296	-1.1	84	-3.5	877	1515	974.7	NA	0.0000		9999	0	0	0	0
2017/11/23 17:36:00	BASE	3.54	303	4.58	303	-1.2	84	-3.6	856	1514	974.7	NA	0.0000		9999	0	0	0	0
2017/11/23 17:37:00	BASE	3.96	300	4.58	303	-1.2	84	-3.6	848	1515	974.7	NA	0.0000		9999	0	0	0	0
2017/11/23 17:38:00	BASE	3.95	290	4.58	303	-1.1	84	-3.6	830	1515	974.7	NA	0.0000		9999	1640	0	0	0
2017/11/23 17:39:00	BASE	3.70	286	4.58	303	-1.1	83	-3.5	818	1514	974.7	NA	0.0000		9999	0	0	0	0
2017/11/23 17:40:00	BASE	3.26	287	4.58	303	-1.0	83	-3.6	811	1514	974.7	NA	0.0000		9999	0	0	0	0
2017/11/23 17:41:00	BASE	3.08	288	4.58	303	-1.1	83	-3.7	808	1515	974.7	NA	0.0000		9999	0	0	0	0
2017/11/23 17:42:00	BASE	2.92	288	4.58	303	-1.1	82	-3.7	820	1514	974.6	NA	0.0000		9999	0	0	0	0
2017/11/23 17:43:00	BASE	2.76	296	4.58	303	-1.0	82	-3.7	807	1515	974.6	NA	0.0000		9999	0	0	0	0
2017/11/23 17:44:00	BASE	2.89	296	4.58	303	-0.9	82	-3.7	868	1515	974.6	NA	0.0000		9999	0	0	0	0
2017/11/23 17:45:00	BASE	3.27	284	4.58	303	-0.8	81	-3.7	891	1514	974.6	NA	0.0000		9999	1900	0	0	0
2017/11/23 17:46:00	BASE	3.45	290	4.37	284	-0.8	81	-3.7	460	1066	974.6	NA	0.0000		9999	0	0	0	0
2017/11/23 17:47:00	BASE	3.30	303	4.37	284	-0.8	81	-3.7	540	1230	974.6	NA	0.0000		9999	1770	0	0	0
2017/11/23 17:48:00	BASE	3.15	303	4.01	304	-0.8	81	-3.7	980	1515	974.6	NA	0.0000		9999	2200	0	0	0
2017/11/23 17:49:00	BASE	3.28	292	4.17	282	-0.8	80	-3.8	984	1514	974.6	NA	0.0000		9999	2330	0	0	0
2017/11/23 17:50:00	BASE	3.60	288	4.27	291	-0.9	80	-3.8	867	1515	974.6	NA	0.0000		9999	2400	0	0	0
2017/11/23 17:51:00	BASE	3.71	291	4.27	291	-0.9	81	-3.8	972	1515	974.6	NA	0.0000		9999	2530	0	0	0
2017/11/23 17:52:00	BASE	3.48	287	4.27	291	-0.8	80	-3.8	902	1515	974.6	NA	0.0000		9999	0	0	0	0
2017/11/23 17:53:00	BASE	3.45	285	4.27	291	-0.8	80	-3.8	354	814	974.6	NA	0.0000		9999	0	0	0	0
2017/11/23 17:54:00	BASE	3.26	285	4.27	291	-0.8	81	-3.7	483	1087	974.6	NA	0.0000		9999	0	0	0	0
2017/11/23 17:55:00	BASE	3.02	283	4.27	291	-0.8	81	-3.7	864	1515	974.5	NA	0.0000		9999	1740	0	0	0
2017/11/23 17:56:00	BASE	3.11	292	4.27	291	-0.8	80	-3.7	1085	1515	974.5	NA	0.0000		9999	1610	0	0	0
2017/11/23 17:57:00	BASE	3.08	304	4.27	291	-0.8	81	-3.7	487	1106	974.5	NA	0.0000		9999	1610	19360	23850	0
2017/11/23 17:58:00	BASE	3.32	310	4.27	316	-0.8	81	-3.6	508	1155	974.5	NA	0.0000		9999	1870	0	0	0
2017/11/23 17:59:00	BASE	3.70	311	4.37	313	-0.7	81	-3.6	385	895	974.5	NA	0.0000		9999	0	0	0	0
2017/11/23 18:00:00	BASE	3.68	305	4.37	313	-0.8	81	-3.7	663	1466	974.5	NA	0.0000		9999	0	0	0	0
2017/11/23 18:01:00	BASE	3.44	298	4.37	313	-0.9	81	-3.7	953	1515	974.5	NA	0.0000		9999	1770	0	0	0
2017/11/23 18:02:00	BASE	2.97	291	4.37	313	-1.0	81	-3.8	615	1363	974.4	NA	0.0000		9999	1640	0	0	0
2017/11/23 18:03:00	BASE	2.84	297	4.37	313	-1.1	81	-3.9	442	1005	974.4	NA	0.0000		9999	1570	0	0	0
2017/11/23 18:04:00	BASE	3.26	306	4.37	313	-1.1	81	-4.0	386	898	974.3	NA	0.0000		9999	1570	0	0	0
2017/11/23 18:05:00	BASE	3.46	308	4.37	313	-1.1	81	-4.0	372	869	974.3	NA	0.0000		9999	1770	0	0	0
2017/11/23 18:06:00	BASE	3.32	302	4.37	313	-1.1	81	-3.9	409	941	974.3	NA	0.0000		9999	1570	0	0	0
2017/11/23 18:07:00	BASE	3.10	289	4.37	313	-1.1	82	-3.8	888	1514	974.3	NA	0.0000		9999	1480	0	0	0
2017/11/23 18:08:00	BASE	3.37	283	4.37	313	-1.1	82	-3.7	856	1515	974.3	NA	0.0000		9999	1510	0	0	0
2017/11/23 18:09:00	BASE	3.49	286	4.27	282	-1.1	83	-3.7	672	1481	974.3	NA	0.0000		9999	1610	2070	0	0
2017/11/23 18:10:00	BASE	3.55	296	4.27	304	-1.1	83	-3.7	1085	1515	974.2	NA	0.0000		9999	1610	0	0	0
2017/11/23 18:11:00	BASE	3.70	303	4.27	304	-1.1	83	-3.7	824	1515	974.2	NA	0.0000		9999	1540	0	0	0
2017/11/23 18:12:00	BASE	3.56	301	4.27	304	-1.2	83	-3.8	454	1023	974.2	NA	0.0000		9999	1800	0	0	0
2017/11/23 18:13:00	BASE	3.80	300	4.32	296	-1.3	82	-3.9	849	1515	974.2	NA	0.0000		9999	1610	2260	0	0
2017/11/23 18:14:00	BASE	4.04	293	4.73	291	-1.3	82	-3.9	1037	1515	974.2	NA	0.0000		9999	2300	0	0	0
2017/11/23 18:15:00	BASE	4.03	293	4.73	291	-1.3	82	-3.9	815	1515	974.2	NA	0.0000		9999	20310	0	0	0
2017/11/23 18:16:00	BASE	3.74	295	4.73	291	-1.3	82	-3.9	343	800	974.2	NA	0.0000		9999	0	0	0	0
2017/11/23 18:17:00	BASE	3.78	292	4.73	291	-1.2	82	-3.9	400	919	974.2	NA	0.0000		9999	0	0	0	0
2017/11/23 18:18:00	BASE	4.04	288	4.73	291	-1.2	83	-3.7	942	1515	974.2	NA	0.0000		9999	0	0	0	0
2017/11/23 18:19:00	BASE	3.67	291	4.73	291	-1.2	83	-3.7	897	1515	974.2	NA	0.0000		9999	0	0	0	0
2017/11/23 18:20:00	BASE	3.14	291	4.73	291	-1.2	83	-3.8	854	1514	974.2	NA	0.0000		9999	2000	0	0	0
2017/11/23 18:21:00	BASE	3.07	291	4.73	291	-1.2	83	-3.7	827	1515	974.1	NA	0.0000		9999	1970	0	0	0
2017/11/23 18:22:00	BASE	3.41	301	4.73	291	-1.1	83	-3.7	812	1515	974.1	NA	0.0000		9999	0	0	0	0
2017/11/23 18:23:00	BASE	3.58	308	4.73	291	-1.2	82	-3.8	801	1515	974.1	NA	0.0000		9999	0	0	0	0
2017/11/23 18:24:00	BASE	3.69	310	4.37	303	-1.1	82	-3.9	597	1306	974.1	NA	0.0000		9999	0	0	0	0
2017/11/23 18:25:00	BASE	3.66	309	4.37	303	-1.0	81	-3.8	789	1515	974.1	NA	0.0000		9999	0	0	0	0
2017/11/23 18:26:00	BASE	3.51	306	4.37	303	-1.0	81	-3.9	771	1515	974.0	NA	0.0000		9999	2200	0	0	0
2017/11/23 18:27:00	BASE	3.50	303	4.37	303	-1.0	80	-4.0	759	1514	974.0	NA	0.0000		9999	0	0	0	0
2017/11/23 18:28:00	BASE	3.23	303	4.37	303	-1.0	79	-4.1	755	1514	974.0	NA	0.0000		9999	1870	0	0	0
2017/11/23 18:29:00	BASE	3.10	311	4.37	303	-1.0	79	-4.2	747	1515	974.0	NA	0.0000		9999	0	0	0	0
2017/11/23 18:30:00	BASE	3.36	317	4.37	303	-1.1	78	-4.4	740	1515	974.0	NA	0.0000		9999	0	0	0	0
2017/11/23 18:31:00	BASE	3.43	310	4.37	303	-1.2	78	-4.6	734	1515	973.9	NA	0.0000		9999	0	0	0	0
2017/11/23 18:32:00	BASE	3.05	303	4.37	303	-1.3	78	-4.6	731	1515	973.9	NA	0.0000		9999	0	0	0	0
2017/11/23 18:33:00	BASE	2.53	303	4.37	303	-1.2	78	-4.5	728	1515	973.9	NA	0.0000		9999	0	0	0	0
2017/11/23 18:34:00	BASE	2.33	300	4.06	315	-1.1	77	-4.6	725	1515	973.9	NA	0.0000		9999	0	0	0	0
2017/11/23 18:35:00	BASE	2.61	297	4.06	315	-1.0	77	-4.6	721	1515	973.9	NA	0.0000		9999	0	0	0	0
2017/11/23 18:36:00	BASE	2.65	300	4.06	315	-1.0	77	-4.6	721	1515	973.9	NA	0.0000		9999	0	0	0	0
2017/11/23 18:37:00	BASE	2.45	305	4.06	315	-1.0	77	-4.6	716	1515	973.8	NA	0.0000		9999	0	0	0	0
2017/11/23 18:38:00	BASE	2.42	303	4.06	315	-1.1	76	-4.7	713	1515	973.7	NA	0.0000		9999	0	0	0	0
2017/11/23 18:39:00	BASE	2.54	294	4.06	315	-1.0	77	-4.6	715	1514	973.7	NA	0.0000		9999	0	0	0	0
2017/11/23 18:40:00	BASE	2.87	288	3.86	302	-1.0	77	-4.5	725	1514	973.7	NA	0.0000		9999	0	0	0	0
2017/11/23 18:41:00	BASE	2.79	291	3.24	289	-1.0	77	-4.5	726	1515	973.7	NA	0.0000		9999	0	0	0	0
2017/11/23 18:42:00	BASE	2.51	294	3.24	289	-1.0	77	-4.5	732	1515	973.7	NA	0.0000		9999	0	0	0	0
2017/11/23 18:43:00	BASE	2.72	299	3.29	300	-1.0	77	-4.4	728	1515	973.7	NA	0.0000		9999	0	0	0	0
2017/11/23 18:44:00	BASE	2.83	311	3.29	300	-1.0	77	-4.4	723	1515	973.7	NA	0.0000		9999	0	0	0	0
2017/11/23 18:45:00	BASE	2.49	319	3.29	300	-1.0	77	-4.5	719	1515	973.7	NA	0.0000		9999	1970	0	0	0
2017/11/23 18:46:00	BASE	2.46	309	3.29	300	-0.9	78	-4.3	722	1515	973.7	NA	0.0000		9999	0	0	0	0
2017/11/23 18:47:00	BASE	2.60	304	3.29	300	-0.9	77	-4.4	722	1514	973.7	NA	0.0000		9999	0	0	0	0
2017/11/23 18:48:00	BASE	2.79	304	3.70	291	-0.9	77	-4.3	714	1515	973.7	NA	0.0000		9999	0	0	0	0
2017/11/23 18:49:00	BASE	3.14	293	3.81	289	-0.9	77	-4.4	710	1506	973.7	NA	0.0000		9999	1940	0	0	0
2017/11/23 18:50:00	BASE	2.91	292	3.81	289	-0.9	77	-4.4	699	1489	973.7	NA	0.0000		9999	0	0	0	0
2017/11/23 18:51:00	BASE	2.29	304	3.81	289	-0.9	77	-4.4	696	1481	973.6	NA	0.0000		9999	0	0	0	0
2017/11/23 18:52:00	BASE	2.20	318	3.81	289	-0.9	77	-4.4	693	1476	973.6	NA	0.0000		9999	0	0	0	0
2017/11/23 18:53:00	BASE	2.77	329	4.01	336	-0.9	77	-4.4	702	1492	973.6	NA	0.0000		9999	0	0	0	0
2017/11/23 18:54:00	BASE	3.39	334	4.01	336	-0.9	77	-4.4	706	1500	973.5	NA	0.0000		9999	0	0	0	0
2017/11/23 18:55:00	BASE	3.28	335	4.01	336	-0.9	77	-4.4	701	1490	973.5	NA	0.0000		9999	1900	0	0	0
2017/11/23 18:56:00	BASE	3.09	336	4.01	336	-1.0	77	-4.4	699	1484	973.5	NA	0.0000		9999	1900	0	0	0
2017/11/23 18:57:00	BASE	3.06	337	4.01	336	-1.0	78	-4.4	688	1467	973.5	NA	0.0000		9999	1970	0	0	0
2017/11/23 18:58:00	BASE	2.74	336	4.01	336	-1.0	78	-4.4	683	1455	973.5	NA	0.0000		9999	0	0	0	0
2017/11/23 18:59:00	BASE	2.72	330	4.01	336	-1.0	78	-4.4	678	1444	973.5	NA	0.0000		9999	1970	0	0	0
2017/11/23 19:00:00	BASE	2.92	325	4.01	336	-1.1	78	-4.4	674	1437	973.5	NA	0.0000		9999	0	0	0	0
2017/11/23 19:01:00	BASE	2.79	321	4.01	336	-1.0	78	-4.3	675	1438	973.5	NA	0.0000		9999	0	0	0	0
2017/11/23 19:02:00	BASE	2.64	317	4.01	336	-0.9	78	-4.3	675	1436	973.5	NA	0.0000		9999	0	0	0	0
2017/11/23 19:03:00	BASE	2.70	319	3.96	336	-0.9	78	-4.3	678	1444	973.4	NA	0.0000		9999	0	0	0	0
2017/11/23 19:04:00	BASE	2.73	322	3.45	316	-0.8	78	-4.2	681	1447	973.4	NA	0.0000		9999	1970	0	0	0
2017/11/23 19:05:00	BASE	2.99	321	3.55	321	-0.8	78	-4.2	679	1444	973.4	NA	0.0000		9999	2070	0	0	0
2017/11/23 19:06:00	BASE	3.29	323	3.91	330	-0.9	78	-4.3	677	1443	973.4	NA	0.0000		9999	2170	0	0	0
2017/11/23 19:07:00	BASE	3.46	331	4.01	335	-0.9	78	-4.3	680	1447	973.3	NA	0.0000		9999	0	0	0	0
2017/11/23 19:08:00	BASE	3.24	336	4.01	335	-1.0	77	-4.4	681	1448	973.3	NA	0.0000		9999	2100	0	0	0
2017/11/23 19:09:00	BASE	3.19	333	4.06	330	-1.1	77	-4.5	676	1439	973.3	NA	0.0000		9999	2000	0	0	0
2017/11/23 19:10:00	BASE	3.40	332	4.06	330	-1.0	78	-4.5	669	1427	973.3	NA	0.0000		9999	2000	0	0	0
2017/11/23 19:11:00	BASE	3.45	331	4.73	334	-1.0	78	-4.4	667	1421	973.2	NA	0.0000		9999	0	0	0	0
2017/11/23 19:12:00	BASE	4.09	329	4.89	335	-1.0	78	-4.4	664	1414	973.2	NA	0.0000		9999	0	0	0	0
2017/11/23 19:13:00	BASE	4.21	329	4.89	335	-0.9	78	-4.3	657	1403	973.2	NA	0.0000		9999	0	0	0	0
2017/11/23 19:14:00	BASE	3.70	330	4.89	335	-0.9	77	-4.4	655	1398	973.2	NA	0.0000		9999	0	0	0	0
2017/11/23 19:15:00	BASE	3.68	332	4.89	335	-1.0	77	-4.5	650	1389	973.2	NA	0.0000		9999	0	0	0	0
2017/11/23 19:16:00	BASE	3.75	331	4.89	335	-1.0	77	-4.6	647	1384	973.2	NA	0.0000		9999	0	0	0	0
2017/11/23 19:17:00	BASE	3.51	332	4.89	335	-1.0	77	-4.6	645	1381	973.1	NA	0.0000		9999	0	0	0	0
2017/11/23 19:18:00	BASE	3.36	337	4.89	335	-1.1	76	-4.7	642	1374	973.1	NA	0.0000		9999	0	0	0	0
2017/11/23 19:19:00	BASE	3.42	337	4.89	335	-1.0	77	-4.6	636	1362	973.0	NA	0.0000		9999	0	0	0	0
2017/11/23 19:20:00	BASE	3.24	339	4.89	335	-1.0	77	-4.6	637	1364	973.0	NA	0.0000		9999	0	0	0	0
2017/11/23 19:21:00	BASE	2.99	340	4.89	335	-0.9	77	-4.5	634	1358	973.0	NA	0.0000		9999	0	0	0	0
2017/11/23 19:22:00	BASE	3.04	335	4.48	326	-0.9	77	-4.4	631	1352	973.0	NA	0.0000		9999	0	0	0	0
2017/11/23 19:23:00	BASE	3.18	337	4.06	331	-0.9	77	-4.4	629	1347	972.9	NA	0.0000		9999	0	0	0	0
2017/11/23 19:24:00	BASE	3.06	339	4.06	331	-0.9	77	-4.4	628	1346	972.9	NA	0.0000		9999	0	0	0	0
2017/11/23 19:25:00	BASE	2.86	340	4.01	335	-0.9	77	-4.4	629	1346	972.9	NA	0.0000		9999	0	0	0	0
2017/11/23 19:26:00	BASE	2.98	345	4.01	335	-0.9	77	-4.5	625	1340	972.9	NA	0.0000		9999	0	0	0	0
2017/11/23 19:27:00	BASE	3.36	351	4.01	335	-1.0	76	-4.6	627	1343	972.9	NA	0.0000		9999	0	0	0	0
2017/11/23 19:28:00	BASE	3.48	352	3.86	353	-0.9	76	-4.6	623	1335	972.9	NA	0.0000		9999	0	0	0	0
2017/11/23 19:29:00	BASE	3.44	350	3.91	352	-0.9	76	-4.6	623	1334	972.9	NA	0.0000		9999	0	0	0	0
2017/11/23 19:30:00	BASE	3.55	346	4.06	345	-1.0	76	-4.7	621	1330	972.8	NA	0.0000		9999	0	0	0	0
2017/11/23 19:31:00	BASE	3.46	345	4.06	345	-1.1	76	-4.8	620	1329	972.8	NA	0.0000		9999	0	0	0	0
2017/11/23 19:32:00	BASE	3.17	346	4.06	345	-1.1	76	-4.8	616	1319	972.8	NA	0.0000		9999	0	0	0	0
2017/11/23 19:33:00	BASE	2.99	344	4.06	345	-1.1	76	-4.8	614	1316	972.8	NA	0.0000		9999	0	0	0	0
2017/11/23 19:34:00	BASE	2.92	343	4.06	345	-1.1	76	-4.8	614	1315	972.8	NA	0.0000		9999	0	0	0	0
2017/11/23 19:35:00	BASE	2.96	347	4.06	345	-0.9	76	-4.7	612	1311	972.7	NA	0.0000		9999	0	0	0	0
2017/11/23 19:36:00	BASE	2.98	352	4.06	345	-0.9	75	-4.7	610	1308	972.7	NA	0.0000		9999	0	0	0	0
2017/11/23 19:37:00	BASE	3.10	349	4.06	345	-0.8	75	-4.7	608	1302	972.7	NA	0.0000		9999	0	0	0	0
2017/11/23 19:38:00	BASE	3.36	348	4.06	345	-0.8	75	-4.7	605	1297	972.7	NA	0.0000		9999	0	0	0	0
2017/11/23 19:39:00	BASE	3.52	347	4.06	345	-0.7	74	-4.8	604	1294	972.6	NA	0.0000		9999	0	0	0	0
2017/11/23 19:40:00	BASE	3.38	347	3.81	345	-0.8	74	-4.9	601	1288	972.6	NA	0.0000		9999	0	0	0	0
2017/11/23 19:41:00	BASE	3.06	351	3.76	342	-0.8	74	-4.9	597	1281	972.6	NA	0.0000		9999	0	0	0	0
2017/11/23 19:42:00	BASE	3.10	352	3.76	342	-0.9	74	-4.9	596	1280	972.5	NA	0.0000		9999	0	0	0	0
2017/11/23 19:43:00	BASE	3.24	346	3.76	342	-0.9	74	-5.0	595	1276	972.5	NA	0.0000		9999	0	0	0	0
2017/11/23 19:44:00	BASE	3.18	342	3.76	342	-1.0	75	-4.9	595	1275	972.4	NA	0.0000		9999	0	0	0	0
2017/11/23 19:45:00	BASE	3.47	345	4.12	347	-1.0	75	-4.8	593	1271	972.4	NA	0.0000		9999	0	0	0	0
2017/11/23 19:46:00	BASE	3.70	346	4.12	347	-0.9	75	-4.7	593	1271	972.4	NA	0.0000		9999	0	0	0	0
2017/11/23 19:47:00	BASE	3.36	344	4.12	347	-0.9	75	-4.7	592	1268	972.4	NA	0.0000		9999	0	0	0	0
2017/11/23 19:48:00	BASE	3.01	347	4.12	347	-0.9	75	-4.8	590	1263	972.4	NA	0.0000		9999	0	0	0	0
2017/11/23 19:49:00	BASE	3.10	351	4.12	347	-0.9	74	-4.9	587	1258	972.3	NA	0.0000		9999	0	0	0	0
2017/11/23 19:50:00	BASE	3.24	345	4.12	347	-0.9	74	-4.9	586	1255	972.3	NA	0.0000		9999	0	0	0	0
2017/11/23 19:51:00	BASE	3.19	341	4.12	347	-0.9	74	-5.0	583	1250	972.3	NA	0.0000		9999	0	0	0	0
2017/11/23 19:52:00	BASE	3.04	341	4.12	347	-1.0	74	-5.0	581	1246	972.3	NA	0.0000		9999	0	0	0	0
2017/11/23 19:53:00	BASE	2.81	342	4.12	347	-1.0	74	-5.0	579	1244	972.3	NA	0.0000		9999	0	0	0	0
2017/11/23 19:54:00	BASE	2.66	348	4.12	347	-0.9	75	-4.8	576	1237	972.2	NA	0.0000		9999	0	0	0	0
2017/11/23 19:55:00	BASE	2.84	351	3.81	340	-0.8	74	-4.8	570	1224	972.2	NA	0.0000		9999	0	0	0	0
2017/11/23 19:56:00	BASE	3.13	351	3.81	340	-0.8	74	-4.9	566	1217	972.2	NA	0.0000		9999	0	0	0	0
2017/11/23 19:57:00	BASE	3.26	346	3.81	340	-0.8	74	-4.9	566	1214	972.1	NA	0.0000		9999	0	0	0	0
2017/11/23 19:58:00	BASE	3.35	349	3.81	340	-0.8	73	-5.0	568	1219	972.1	NA	0.0000		9999	0	0	0	0
2017/11/23 19:59:00	BASE	3.12	354	3.81	340	-0.9	72	-5.2	568	1218	972.1	NA	0.0000		9999	0	0	0	0
2017/11/23 20:00:00	BASE	3.22	349	4.27	352	-0.9	72	-5.3	567	1217	972.1	NA	0.0000		9999	0	0	0	0
2017/11/23 20:01:00	BASE	3.88	350	4.32	353	-0.9	71	-5.4	568	1217	972.1	NA	0.0000		9999	0	0	0	0
2017/11/23 20:02:00	BASE	4.02	352	4.32	353	-0.8	71	-5.4	569	1218	972.0	NA	0.0000		9999	0	0	0	0
2017/11/23 20:03:00	BASE	3.83	349	4.32	353	-0.8	71	-5.5	566	1212	972.0	NA	0.0000		9999	0	0	0	0
2017/11/23 20:04:00	BASE	3.67	345	4.32	353	-0.8	71	-5.4	561	1203	972.0	NA	0.0000		9999	0	0	0	0
2017/11/23 20:05:00	BASE	3.49	344	4.32	353	-0.9	71	-5.4	558	1197	972.0	NA	0.0000		9999	0	0	0	0
2017/11/23 20:06:00	BASE	3.45	346	4.32	353	-0.8	72	-5.3	556	1193	972.0	NA	0.0000		9999	0	0	0	0
2017/11/23 20:07:00	BASE	3.37	350	4.32	353	-0.8	72	-5.2	554	1187	971.9	NA	0.0000		9999	0	0	0	0
2017/11/23 20:08:00	BASE	3.34	349	4.32	353	-0.8	72	-5.1	553	1184	971.8	NA	0.0000		9999	0	0	0	0
2017/11/23 20:09:00	BASE	3.41	348	4.32	353	-0.7	73	-5.0	549	1177	971.8	NA	0.0000		9999	0	0	0	0
2017/11/23 20:10:00	BASE	3.53	349	4.32	352	-0.7	73	-5.0	550	1177	971.8	NA	0.0000		9999	0	0	0	0
2017/11/23 20:11:00	BASE	3.70	348	4.32	352	-0.7	73	-4.9	547	1173	971.8	NA	0.0000		9999	0	0	0	0
2017/11/23 20:12:00	BASE	3.70	351	4.32	352	-0.7	73	-4.9	545	1168	971.7	NA	0.0000		9999	0	0	0	0
2017/11/23 20:13:00	BASE	3.80	352	4.32	352	-0.7	73	-5.0	543	1163	971.7	NA	0.0000		9999	0	0	0	0
2017/11/23 20:14:00	BASE	3.88	350	4.32	352	-0.8	73	-5.1	543	1163	971.7	NA	0.0000		9999	0	0	0	0
2017/11/23 20:15:00	BASE	3.79	349	4.32	352	-0.8	73	-5.2	543	1162	971.7	NA	0.0000		9999	0	0	0	0
2017/11/23 20:16:00	BASE	3.67	349	4.32	352	-0.9	72	-5.2	540	1156	971.7	NA	0.0000		9999	0	0	0	0
2017/11/23 20:17:00	BASE	3.58	352	4.32	352	-0.9	72	-5.3	540	1155	971.7	NA	0.0000		9999	0	0	0	0
2017/11/23 20:18:00	BASE	3.31	350	4.32	352	-0.9	73	-5.2	538	1150	971.7	NA	0.0000		9999	0	0	0	0
2017/11/23 20:19:00	BASE	3.04	346	4.32	352	-0.8	73	-5.1	533	1141	971.7	NA	0.0000		9999	0	0	0	0
2017/11/23 20:20:00	BASE	2.96	343	4.12	352	-0.8	73	-5.1	533	1139	971.7	NA	0.0000		9999	0	0	0	0
2017/11/23 20:21:00	BASE	3.04	345	4.12	352	-0.8	73	-5.0	532	1131	971.6	NA	0.0000		9999	0	0	0	0
2017/11/23 20:22:00	BASE	3.24	352	4.12	352	-0.7	73	-5.0	494	931	971.6	NA	0.0000		9999	0	0	0	0
2017/11/23 20:23:00	BASE	3.34	351	4.01	344	-0.8	73	-5.1	366	803	971.6	NA	0.0000		9999	0	0	0	0
2017/11/23 20:24:00	BASE	3.44	345	3.91	354	-0.8	73	-5.1	321	775	971.6	NA	0.0000		9999	0	0	0	0
2017/11/23 20:25:00	BASE	3.54	345	3.91	354	-0.9	73	-5.2	354	894	971.5	NA	0.0000		9999	0	0	0	0
2017/11/23 20:26:00	BASE	3.51	346	3.81	344	-0.8	73	-5.2	447	1115	971.5	NA	0.0000		9999	0	0	0	0
2017/11/23 20:27:00	BASE	3.44	344	3.81	344	-0.8	72	-5.2	523	1117	971.5	NA	0.0000		9999	0	0	0	0
2017/11/23 20:28:00	BASE	3.27	340	3.81	344	-0.8	73	-5.1	523	1116	971.5	NA	0.0000		9999	0	0	0	0
2017/11/23 20:29:00	BASE	3.10	339	3.81	344	-0.9	73	-5.2	523	1114	971.5	NA	0.0000		9999	0	0	0	0
2017/11/23 20:30:00	BASE	3.02	343	3.81	344	-0.8	73	-5.1	523	1112	971.4	NA	0.0000		9999	0	0	0	0
2017/11/23 20:31:00	BASE	3.01	345	3.81	344	-0.8	73	-5.1	521	1108	971.4	NA	0.0000		9999	0	0	0	0
2017/11/23 20:32:00	BASE	3.13	346	3.81	347	-0.8	73	-5.0	519	1104	971.4	NA	0.0000		9999	0	0	0	0
2017/11/23 20:33:00	BASE	3.23	349	3.81	347	-0.8	73	-5.0	517	1100	971.3	NA	0.0000		9999	0	0	0	0
2017/11/23 20:34:00	BASE	3.22	348	3.81	347	-0.7	73	-4.9	516	1097	971.2	NA	0.0000		9999	0	0	0	0
2017/11/23 20:35:00	BASE	3.22	346	3.81	347	-0.7	73	-5.0	518	1098	971.2	NA	0.0000		9999	0	0	0	0
2017/11/23 20:36:00	BASE	3.10	347	3.81	347	-0.8	73	-5.0	517	1096	971.2	NA	0.0000		9999	0	0	0	0
2017/11/23 20:37:00	BASE	3.22	351	3.81	352	-0.7	73	-5.0	516	1093	971.2	NA	0.0000		9999	0	0	0	0
2017/11/23 20:38:00	BASE	3.47	353	3.91	355	-0.7	73	-5.0	518	1095	971.2	NA	0.0000		9999	0	0	0	0
2017/11/23 20:39:00	BASE	3.80	350	4.37	349	-0.8	73	-5.0	516	1091	971.2	NA	0.0000		9999	0	0	0	0
2017/11/23 20:40:00	BASE	4.01	349	4.37	349	-0.7	73	-5.0	518	1092	971.1	NA	0.0000		9999	0	0	0	0
2017/11/23 20:41:00	BASE	3.88	352	4.37	349	-0.7	72	-5.1	525	1104	971.1	NA	0.0000		9999	0	0	0	0
2017/11/23 20:42:00	BASE	3.87	350	4.37	346	-0.7	72	-5.1	476	1018	971.1	NA	0.0000		9999	0	0	0	0
2017/11/23 20:43:00	BASE	3.96	349	4.37	348	-0.7	72	-5.1	372	827	971.1	NA	0.0000		9999	0	0	0	0
2017/11/23 20:44:00	BASE	4.12	352	4.37	360	-0.7	72	-5.1	420	917	971.1	NA	0.0000		9999	0	0	0	0
2017/11/23 20:45:00	BASE	3.96	348	4.37	360	-0.7	72	-5.1	313	715	971.0	NA	0.0000		9999	0	0	0	0
2017/11/23 20:46:00	BASE	3.80	344	4.68	341	-0.6	73	-4.9	392	864	971.0	NA	0.0000		9999	0	0	0	0
2017/11/23 20:47:00	BASE	4.17	342	4.94	341	-0.6	72	-5.0	348	785	971.0	NA	0.0000		9999	0	0	0	0
2017/11/23 20:48:00	BASE	4.30	341	4.94	341	-0.7	72	-5.0	187	469	971.0	NA	0.0000		9999	0	0	0	0
2017/11/23 20:49:00	BASE	3.89	342	4.94	341	-0.7	72	-5.1	172	432	971.0	NA	0.0000		9999	0	0	0	0
2017/11/23 20:50:00	BASE	4.04	345	4.94	341	-0.7	72	-5.1	168	425	970.9	NA	0.0000		9999	0	0	0	0
2017/11/23 20:51:00	BASE	4.35	348	4.94	341	-0.8	72	-5.2	174	434	970.9	NA	0.0000		9999	0	0	0	0
2017/11/23 20:52:00	BASE	4.37	350	4.94	341	-0.9	72	-5.3	175	431	970.9	NA	0.0000		9999	0	0	0	0
2017/11/23 20:53:00	BASE	4.24	348	4.94	341	-0.9	72	-5.3	190	462	970.9	NA	0.0000		9999	0	0	0	0
2017/11/23 20:54:00	BASE	4.07	349	4.94	341	-0.9	72	-5.3	208	498	970.8	NA	0.0000		9999	0	0	0	0
2017/11/23 20:55:00	BASE	4.28	351	4.94	347	-1.0	73	-5.3	232	546	970.8	NA	0.0000		9999	0	0	0	0
2017/11/23 20:56:00	BASE	4.28	350	4.94	347	-1.1	73	-5.3	227	532	970.8	NA	0.0000		9999	0	0	0	0
2017/11/23 20:57:00	BASE	4.16	349	4.94	347	-1.1	73	-5.2	233	542	970.8	NA	0.0000		9999	0	0	0	0
2017/11/23 20:58:00	BASE	4.23	350	4.94	347	-1.1	74	-5.2	237	548	970.8	NA	0.0000		9999	0	0	0	0
2017/11/23 20:59:00	BASE	4.42	349	4.99	348	-1.1	74	-5.2	242	560	970.7	NA	0.0000		9999	0	0	0	0
2017/11/23 21:00:00	BASE	4.45	348	4.99	348	-1.1	74	-5.2	252	581	970.7	NA	0.0000		9999	16600	0	0	0
2017/11/23 21:01:00	BASE	4.21	349	4.99	348	-1.1	74	-5.2	255	587	970.6	NA	0.0000		9999	16470	0	0	0
2017/11/23 21:02:00	BASE	4.24	349	4.99	348	-1.1	74	-5.2	244	565	970.6	NA	0.0000		9999	16500	0	0	0
2017/11/23 21:03:00	BASE	4.25	352	4.99	348	-1.1	74	-5.2	230	533	970.6	NA	0.0000		9999	16470	0	0	0
2017/11/23 21:04:00	BASE	4.32	354	5.04	360	-1.1	74	-5.2	229	535	970.6	NA	0.0000		9999	16310	0	0	0
2017/11/23 21:05:00	BASE	4.89	0	5.56	1	-1.1	74	-5.2	216	506	970.6	NA	0.0000		9999	16440	0	0	0
2017/11/23 21:06:00	BASE	5.24	4	5.61	1	-1.1	74	-5.1	209	492	970.6	NA	0.0000		9999	16370	0	0	0
2017/11/23 21:07:00	BASE	5.16	356	5.61	1	-1.1	74	-5.1	210	492	970.6	NA	0.0000		9999	16500	0	0	0
2017/11/23 21:08:00	BASE	5.13	349	5.61	1	-1.1	74	-5.2	216	502	970.5	NA	0.0000		9999	16440	0	0	0
2017/11/23 21:09:00	BASE	4.99	351	5.61	1	-1.2	74	-5.3	223	516	970.4	NA	0.0000		9999	16500	0	0	0
2017/11/23 21:10:00	BASE	4.99	351	5.61	354	-1.2	73	-5.4	229	526	970.4	NA	0.0000		9999	16500	0	0	0
2017/11/23 21:11:00	BASE	5.14	354	5.61	354	-1.3	74	-5.3	234	537	970.4	NA	0.0000		9999	16540	0	0	0
2017/11/23 21:12:00	BASE	5.39	357	6.07	360	-1.3	74	-5.4	238	543	970.4	NA	0.0000		9999	16470	0	0	0
2017/11/23 21:13:00	BASE	5.44	357	6.07	360	-1.3	74	-5.4	241	550	970.4	NA	0.0000		9999	16470	0	0	0
2017/11/23 21:14:00	BASE	5.47	360	6.07	360	-1.3	74	-5.3	247	562	970.4	NA	0.0000		9999	16500	0	0	0
2017/11/23 21:15:00	BASE	5.60	4	6.07	360	-1.2	74	-5.3	245	558	970.4	NA	0.0000		9999	16370	0	0	0
2017/11/23 21:16:00	BASE	5.36	3	6.07	360	-1.2	74	-5.3	243	553	970.3	NA	0.0000		9999	16440	0	0	0
2017/11/23 21:17:00	BASE	5.32	3	6.07	360	-1.2	74	-5.3	242	551	970.3	NA	0.0000		9999	16410	0	0	0
2017/11/23 21:18:00	BASE	5.40	5	6.07	3	-1.2	74	-5.3	245	556	970.3	NA	0.0000		9999	16310	0	0	0
2017/11/23 21:19:00	BASE	5.36	2	6.07	3	-1.2	73	-5.4	249	564	970.3	NA	0.0000		9999	16470	0	0	0
2017/11/23 21:20:00	BASE	5.55	3	6.07	360	-1.2	73	-5.4	255	579	970.2	NA	0.0000		9999	16310	0	0	0
2017/11/23 21:21:00	BASE	5.74	4	6.17	4	-1.3	73	-5.5	265	597	970.2	NA	0.0000		9999	16410	0	0	0
2017/11/23 21:22:00	BASE	5.75	4	6.22	2	-1.3	73	-5.5	279	627	970.2	NA	0.0000		9999	16310	0	0	0
2017/11/23 21:23:00	BASE	5.77	3	6.22	2	-1.3	73	-5.5	323	717	970.2	NA	0.0000		9999	16310	0	0	0
2017/11/23 21:24:00	BASE	5.63	1	6.22	2	-1.3	73	-5.5	286	637	970.2	NA	0.0000		9999	16310	0	0	0
2017/11/23 21:25:00	BASE	5.40	358	6.22	2	-1.2	73	-5.5	275	616	970.1	NA	0.0000		9999	16370	0	0	0
2017/11/23 21:26:00	BASE	5.43	359	6.22	2	-1.2	73	-5.5	265	600	970.1	NA	0.0000		9999	16410	0	0	0
2017/11/23 21:27:00	BASE	5.30	0	6.22	2	-1.2	72	-5.5	267	606	970.1	NA	0.0000		9999	16540	0	0	0
2017/11/23 21:28:00	BASE	5.02	1	6.22	2	-1.2	72	-5.5	260	587	970.0	NA	0.0000		9999	16630	0	0	0
2017/11/23 21:29:00	BASE	5.22	2	6.22	2	-1.2	72	-5.5	266	597	970.0	NA	0.0000		9999	16670	0	0	0
2017/11/23 21:30:00	BASE	5.44	360	6.22	2	-1.3	73	-5.6	281	626	969.9	NA	0.0000		9999	16700	0	0	0
2017/11/23 21:31:00	BASE	5.36	5	6.22	2	-1.3	73	-5.5	368	801	969.9	NA	0.0000		9999	16700	0	0	0
2017/11/23 21:32:00	BASE	5.05	4	6.17	6	-1.3	73	-5.4	294	657	969.9	NA	0.0000		9999	16770	0	0	0
2017/11/23 21:33:00	BASE	4.96	355	6.17	6	-1.2	73	-5.4	244	556	969.8	NA	0.0000		9999	16960	0	0	0
2017/11/23 21:34:00	BASE	5.14	351	5.81	354	-1.2	73	-5.3	299	667	969.8	NA	0.0000		9999	17000	0	0	0
2017/11/23 21:35:00	BASE	5.26	355	5.81	354	-1.1	73	-5.3	272	609	969.8	NA	0.0000		9999	17260	0	0	0
2017/11/23 21:36:00	BASE	5.08	356	5.81	354	-1.1	73	-5.2	274	614	969.8	NA	0.0000		9999	16900	0	0	0
2017/11/23 21:37:00	BASE	5.21	350	5.86	349	-1.1	73	-5.3	243	556	969.8	NA	0.0000		9999	16930	0	0	0
2017/11/23 21:38:00	BASE	5.32	353	5.86	349	-1.1	73	-5.4	194	460	969.8	NA	0.0000		9999	17060	0	0	0
2017/11/23 21:39:00	BASE	5.02	357	5.86	349	-1.1	72	-5.5	191	455	969.8	NA	0.0000		9999	17000	0	0	0
2017/11/23 21:40:00	BASE	4.83	358	5.86	349	-1.2	72	-5.5	430	897	969.8	NA	0.0000		9999	16900	17490	0	0
2017/11/23 21:41:00	BASE	4.84	359	5.86	349	-1.2	73	-5.5	440	911	969.7	NA	0.0000		9999	16930	0	0	0
2017/11/23 21:42:00	BASE	5.11	355	5.86	349	-1.2	73	-5.4	208	493	969.7	NA	0.0000		9999	0	0	0	0
2017/11/23 21:43:00	BASE	5.02	348	5.86	349	-1.2	73	-5.4	155	387	969.7	NA	0.0000		9999	0	0	0	0
2017/11/23 21:44:00	BASE	5.06	349	5.86	349	-1.1	73	-5.4	229	528	969.6	NA	0.0000		9999	0	0	0	0
2017/11/23 21:45:00	BASE	5.63	0	6.28	360	-1.2	73	-5.4	272	603	969.6	NA	0.0000		9999	0	0	0	0
2017/11/23 21:46:00	BASE	5.78	1	6.28	360	-1.2	72	-5.5	190	446	969.5	NA	0.0000		9999	0	0	0	0
2017/11/23 21:47:00	BASE	5.60	353	6.28	360	-1.2	72	-5.6	196	455	969.5	NA	0.0000		9999	0	0	0	0
2017/11/23 21:48:00	BASE	5.62	350	6.28	360	-1.2	72	-5.7	217	493	969.5	NA	0.0000		9999	0	0	0	0
2017/11/23 21:49:00	BASE	5.50	349	6.28	360	-1.2	71	-5.7	293	634	969.5	NA	0.0000		9999	0	0	0	0
2017/11/23 21:50:00	BASE	5.25	353	6.28	360	-1.2	71	-5.8	182	436	969.5	NA	0.0000		9999	0	0	0	0
2017/11/23 21:51:00	BASE	4.72	356	6.28	360	-1.2	71	-5.8	366	766	969.4	NA	0.0000		9999	0	0	0	0
2017/11/23 21:52:00	BASE	4.40	359	6.28	360	-1.2	71	-5.8	353	739	969.3	NA	0.0000		9999	0	0	0	0
2017/11/23 21:53:00	BASE	4.80	5	6.28	360	-1.1	71	-5.7	369	767	969.3	NA	0.0000		9999	13350	0	0	0
2017/11/23 21:54:00	BASE	5.19	355	6.28	360	-1.1	71	-5.6	377	781	969.3	NA	0.0000		9999	0	0	0	0
2017/11/23 21:55:00	BASE	5.27	347	6.28	360	-1.1	71	-5.6	371	771	969.3	NA	0.0000		9999	0	0	0	0
2017/11/23 21:56:00	BASE	4.83	352	6.28	360	-1.1	71	-5.6	354	741	969.3	NA	0.0000		9999	0	0	0	0
2017/11/23 21:57:00	BASE	4.70	350	6.17	353	-1.1	71	-5.6	352	736	969.3	NA	0.0000		9999	0	0	0	0
2017/11/23 21:58:00	BASE	4.94	354	5.86	7	-1.1	71	-5.7	359	749	969.2	NA	0.0000		9999	0	0	0	0
2017/11/23 21:59:00	BASE	4.72	352	5.86	7	-1.1	71	-5.7	362	752	969.2	NA	0.0000		9999	0	0	0	0
2017/11/23 22:00:00	BASE	4.47	348	5.86	7	-1.1	71	-5.6	356	743	969.2	NA	0.0000		9999	0	0	0	0
2017/11/23 22:01:00	BASE	4.42	351	5.86	7	-1.1	72	-5.6	346	723	969.2	NA	0.0000		9999	0	0	0	0
2017/11/23 22:02:00	BASE	4.76	351	5.86	7	-1.1	72	-5.5	353	733	969.2	NA	0.0000		9999	0	0	0	0
2017/11/23 22:03:00	BASE	4.98	354	5.66	182	-1.1	72	-5.5	341	709	969.2	NA	0.0000		9999	0	0	0	0
2017/11/23 22:04:00	BASE	4.77	0	5.66	182	-1.1	72	-5.5	352	729	969.2	NA	0.0000		9999	0	0	0	0
2017/11/23 22:05:00	BASE	4.70	360	5.61	360	-1.0	71	-5.6	319	670	969.2	NA	0.0000		9999	0	0	0	0
2017/11/23 22:06:00	BASE	4.67	1	5.61	360	-1.0	71	-5.7	291	624	969.2	NA	0.0000		9999	0	0	0	0
2017/11/23 22:07:00	BASE	4.71	3	5.61	360	-1.0	71	-5.7	158	385	969.1	NA	0.0000		9999	0	0	0	0
2017/11/23 22:08:00	BASE	4.85	3	5.50	360	-1.1	71	-5.7	110	289	969.1	NA	0.0000		9999	0	0	0	0
2017/11/23 22:09:00	BASE	5.09	6	5.66	11	-1.1	71	-5.7	98	261	969.1	NA	0.0000		9999	0	0	0	0
2017/11/23 22:10:00	BASE	5.25	8	5.66	5	-1.2	71	-5.8	96	254	969.1	NA	0.0000		9999	0	0	0	0
2017/11/23 22:11:00	BASE	5.11	8	5.66	5	-1.2	71	-5.9	97	253	969.1	NA	0.0000		9999	0	0	0	0
2017/11/23 22:12:00	BASE	4.78	8	5.66	5	-1.3	70	-6.0	100	258	969.1	NA	0.0000		9999	0	0	0	0
2017/11/23 22:13:00	BASE	4.56	5	5.66	5	-1.4	70	-6.1	109	273	969.0	NA	0.0000		9999	0	0	0	0
2017/11/23 22:14:00	BASE	4.49	6	5.66	5	-1.4	70	-6.2	116	285	969.0	NA	0.0000		9999	0	0	0	0
2017/11/23 22:15:00	BASE	4.54	10	5.66	5	-1.5	70	-6.2	124	298	969.0	NA	0.0000		9999	0	0	0	0
2017/11/23 22:16:00	BASE	4.80	14	5.66	5	-1.5	70	-6.2	142	329	968.9	NA	0.0000		9999	0	0	0	0
2017/11/23 22:17:00	BASE	4.80	13	5.66	5	-1.5	70	-6.2	145	336	968.9	NA	0.0000		9999	0	0	0	0
2017/11/23 22:18:00	BASE	4.95	10	5.81	10	-1.5	70	-6.2	167	376	968.9	NA	0.0000		9999	0	0	0	0
2017/11/23 22:19:00	BASE	5.03	11	5.81	10	-1.5	70	-6.2	152	349	968.9	NA	0.0000		9999	0	0	0	0
2017/11/23 22:20:00	BASE	5.00	15	5.81	10	-1.6	71	-6.2	150	348	968.8	NA	0.0000		9999	0	0	0	0
2017/11/23 22:21:00	BASE	5.27	12	5.81	10	-1.6	70	-6.3	149	346	968.7	NA	0.0000		9999	0	0	0	0
2017/11/23 22:22:00	BASE	5.29	10	5.81	10	-1.6	70	-6.3	153	353	968.7	NA	0.0000		9999	0	0	0	0
2017/11/23 22:23:00	BASE	4.86	12	5.81	10	-1.6	70	-6.3	151	348	968.7	NA	0.0000		9999	16210	0	0	0
2017/11/23 22:24:00	BASE	4.56	13	5.81	10	-1.6	70	-6.3	158	359	968.7	NA	0.0000		9999	16180	0	0	0
2017/11/23 22:25:00	BASE	4.95	13	5.97	6	-1.6	70	-6.3	159	360	968.6	NA	0.0000		9999	16140	0	0	0
2017/11/23 22:26:00	BASE	5.22	13	6.28	15	-1.6	70	-6.3	149	339	968.6	NA	0.0000		9999	16210	0	0	0
2017/11/23 22:27:00	BASE	5.15	15	6.28	15	-1.7	70	-6.3	140	321	968.6	NA	0.0000		9999	16270	0	0	0
2017/11/23 22:28:00	BASE	5.03	16	6.28	15	-1.7	70	-6.4	131	302	968.6	NA	0.0000		9999	16310	0	0	0
2017/11/23 22:29:00	BASE	4.79	17	6.28	15	-1.8	70	-6.5	125	291	968.5	NA	0.0000		9999	0	0	0	0
2017/11/23 22:30:00	BASE	4.53	14	6.28	15	-1.8	70	-6.6	121	283	968.5	NA	0.0000		9999	16440	0	0	0
2017/11/23 22:31:00	BASE	4.12	17	6.28	15	-1.9	70	-6.6	118	278	968.5	NA	0.0000		9999	16470	0	0	0
2017/11/23 22:32:00	BASE	3.47	11	6.28	15	-1.9	70	-6.6	116	273	968.4	NA	0.0000		9999	16570	0	0	0
2017/11/23 22:33:00	BASE	3.22	353	6.28	15	-1.9	70	-6.7	114	269	968.4	NA	0.0000		9999	22700	0	0	0
2017/11/23 22:34:00	BASE	2.20	345	6.28	15	-1.9	70	-6.7	112	263	968.3	NA	0.0000		9999	16600	0	0	0
2017/11/23 22:35:00	BASE	0.96	341	6.28	15	-1.9	69	-6.8	109	256	968.3	NA	0.0000		9999	16700	0	0	0
2017/11/23 22:36:00	BASE	0.84	9	5.56	19	-1.9	69	-6.8	104	248	968.3	NA	0.0000		9999	0	0	0	0
2017/11/23 22:37:00	BASE	1.74	32	5.45	24	-1.9	69	-6.9	100	238	968.3	NA	0.0000		9999	0	0	0	0
2017/11/23 22:38:00	BASE	2.30	23	5.14	19	-2.0	69	-6.9	96	229	968.2	NA	0.0000		9999	0	0	0	0
2017/11/23 22:39:00	BASE	2.67	26	5.04	32	-2.0	69	-6.9	92	222	968.2	NA	0.0000		9999	0	0	0	0
2017/11/23 22:40:00	BASE	4.70	31	7.15	30	-2.0	70	-6.8	90	217	968.1	NA	0.0000		9999	0	0	0	0
2017/11/23 22:41:00	BASE	6.56	33	7.97	39	-2.0	70	-6.8	90	215	968.1	NA	0.0000		9999	0	0	0	0
2017/11/23 22:42:00	BASE	6.60	31	7.97	39	-1.9	69	-6.8	90	216	968.1	NA	0.0000		9999	0	0	0	0
2017/11/23 22:43:00	BASE	6.13	37	7.97	39	-1.7	68	-6.8	92	219	968.0	NA	0.0000		9999	9120	0	0	0
2017/11/23 22:44:00	BASE	5.50	45	7.97	39	-1.6	66	-7.1	94	222	968.0	NA	0.0000		9999	0	0	0	0
2017/11/23 22:45:00	BASE	4.57	40	7.97	39	-1.4	64	-7.4	97	227	968.0	NA	0.0000		9999	0	0	0	0
2017/11/23 22:46:00	BASE	4.13	39	7.97	39	-1.3	61	-7.9	100	233	967.9	NA	0.0000		9999	0	0	0	0
2017/11/23 22:47:00	BASE	3.96	45	7.97	39	-1.2	59	-8.2	104	239	967.9	NA	0.0000		9999	0	0	0	0
2017/11/23 22:48:00	BASE	3.65	52	7.97	39	-1.2	57	-8.6	107	246	967.9	NA	0.0000		9999	0	0	0	0
2017/11/23 22:49:00	BASE	2.87	63	7.97	39	-1.2	56	-8.8	111	252	967.9	NA	0.0000		9999	11020	0	0	0
2017/11/23 22:50:00	BASE	3.51	50	7.97	39	-1.2	56	-8.8	114	258	967.9	NA	0.0000		9999	0	0	0	0
2017/11/23 22:51:00	BASE	4.76	33	7.05	39	-1.3	57	-8.7	117	263	967.9	NA	0.0000		9999	9250	0	0	0
2017/11/23 22:52:00	BASE	4.75	31	7.05	39	-1.4	58	-8.6	120	267	967.8	NA	0.0000		9999	10010	0	0	0
2017/11/23 22:53:00	BASE	5.34	27	7.00	28	-1.4	59	-8.4	121	270	967.8	NA	0.0000		9999	9940	0	0	0
2017/11/23 22:54:00	BASE	6.15	25	7.15	29	-1.5	61	-8.1	123	272	967.7	NA	0.0000		9999	10700	0	0	0
2017/11/23 22:55:00	BASE	6.30	25	7.72	31	-1.6	62	-7.9	123	273	967.7	NA	0.0000		9999	10830	0	0	0
2017/11/23 22:56:00	BASE	6.96	26	7.97	27	-1.7	63	-7.8	123	273	967.7	NA	0.0000		9999	10110	0	0	0
2017/11/23 22:57:00	BASE	6.65	20	7.97	27	-1.8	65	-7.6	123	273	967.7	NA	0.0000		9999	9970	0	0	0
2017/11/23 22:58:00	BASE	6.14	15	7.97	27	-1.8	66	-7.4	123	272	967.6	NA	0.0000		9999	16010	0	0	0
2017/11/23 22:59:00	BASE	5.67	25	7.97	27	-1.9	66	-7.3	123	271	967.6	NA	0.0000		9999	11580	0	0	0
2017/11/23 23:00:00	BASE	4.18	29	7.97	27	-1.9	66	-7.4	123	271	967.7	NA	0.0000		9999	11980	0	0	0
2017/11/23 23:01:00	BASE	3.00	25	7.97	27	-1.8	65	-7.5	123	270	967.6	NA	0.0000		9999	12800	0	0	0
2017/11/23 23:02:00	BASE	3.00	32	7.97	27	-1.7	64	-7.5	127	277	967.5	NA	0.0000		9999	12760	16180	0	0
2017/11/23 23:03:00	BASE	4.02	35	7.97	27	-1.6	63	-7.6	133	287	967.5	NA	0.0000		9999	12630	16080	0	0
2017/11/23 23:04:00	BASE	5.29	28	7.97	27	-1.5	62	-7.7	127	275	967.5	NA	0.0000		9999	16010	0	0	0
2017/11/23 23:05:00	BASE	6.20	25	7.97	27	-1.4	62	-7.7	127	275	967.4	NA	0.0000		9999	15980	0	0	0
2017/11/23 23:06:00	BASE	5.93	26	7.56	23	-1.5	63	-7.7	123	266	967.4	NA	0.0000		9999	15950	0	0	0
2017/11/23 23:07:00	BASE	5.17	26	7.56	23	-1.5	63	-7.7	121	262	967.4	NA	0.0000		9999	16040	0	0	0
2017/11/23 23:08:00	BASE	4.51	24	7.41	31	-1.6	63	-7.7	120	259	967.4	NA	0.0000		9999	16080	0	0	0
2017/11/23 23:09:00	BASE	4.00	31	7.41	31	-1.6	63	-7.7	118	254	967.4	NA	0.0000		9999	16040	0	0	0
2017/11/23 23:10:00	BASE	3.14	52	7.41	31	-1.6	63	-7.7	116	250	967.4	NA	0.0000		9999	16040	0	0	0
2017/11/23 23:11:00	BASE	1.83	52	7.41	31	-1.6	62	-7.9	115	248	967.4	NA	0.0000		9999	16080	0	0	0
2017/11/23 23:12:00	BASE	0.63	11	7.41	31	-1.6	61	-8.1	115	247	967.4	NA	0.0000		9999	16210	0	0	0
2017/11/23 23:13:00	BASE	0.19	34	7.41	31	-1.6	60	-8.4	123	259	967.3	NA	0.0000		9999	16210	0	0	0
2017/11/23 23:14:00	BASE	1.79	44	7.05	22	-1.5	59	-8.6	123	258	967.3	NA	0.0000		9999	16140	0	0	0
2017/11/23 23:15:00	BASE	3.46	29	6.07	31	-1.5	59	-8.6	109	233	967.3	NA	0.0000		9999	16040	0	0	0
2017/11/23 23:16:00	BASE	3.95	22	6.07	31	-1.5	59	-8.4	114	240	967.3	NA	0.0000		9999	16180	0	0	0
2017/11/23 23:17:00	BASE	3.43	17	6.07	31	-1.5	60	-8.3	132	268	967.3	NA	0.0000		9999	16310	0	0	0
2017/11/23 23:18:00	BASE	2.15	39	6.07	31	-1.5	61	-8.0	146	289	967.3	NA	0.0000		9999	16410	0	0	0
2017/11/23 23:19:00	BASE	1.13	56	6.07	31	-1.5	62	-7.9	132	265	967.3	NA	0.0000		9999	0	0	0	0
2017/11/23 23:20:00	BASE	0.33	66	6.07	31	-1.6	62	-8.0	127	256	967.3	NA	0.0000		9999	0	0	0	0
2017/11/23 23:21:00	BASE	0.20	67	6.07	31	-1.6	61	-8.1	128	257	967.3	NA	0.0000		9999	13810	0	0	0
2017/11/23 23:22:00	BASE	0.48	79	6.07	31	-1.6	61	-8.2	123	248	967.2	NA	0.0000		9999	0	0	0	0
2017/11/23 23:23:00	BASE	1.24	91	6.07	31	-1.7	60	-8.4	119	243	967.2	NA	0.0000		9999	8730	0	0	0
2017/11/23 23:24:00	BASE	2.24	60	6.07	31	-1.7	60	-8.4	102	215	967.1	NA	0.0000		9999	0	0	0	0
2017/11/23 23:25:00	BASE	2.20	14	5.92	41	-1.6	61	-8.2	108	225	967.1	NA	0.0000		9999	8600	0	0	0
2017/11/23 23:26:00	BASE	1.95	309	3.45	25	-1.6	61	-8.2	101	213	967.1	NA	0.0000		9999	8300	0	0	0
2017/11/23 23:27:00	BASE	2.52	295	3.65	335	-1.5	61	-8.1	105	219	967.0	NA	0.0000		9999	7970	0	0	0
2017/11/23 23:28:00	BASE	3.98	330	5.61	4	-1.4	61	-8.0	124	249	967.0	NA	0.0000		9999	0	0	0	0
2017/11/23 23:29:00	BASE	4.68	4	5.61	4	-1.5	61	-8.0	141	274	967.0	NA	0.0000		9999	0	0	0	0
2017/11/23 23:30:00	BASE	4.32	23	5.61	4	-1.5	62	-7.9	145	280	967.0	NA	0.0000		9999	0	0	0	0
2017/11/23 23:31:00	BASE	3.94	27	5.61	4	-1.6	63	-7.7	150	288	967.0	NA	0.0000		9999	8300	0	0	0
2017/11/23 23:32:00	BASE	4.84	4	7.31	341	-1.6	64	-7.6	154	293	966.9	NA	0.0000		9999	0	0	0	0
2017/11/23 23:33:00	BASE	4.59	347	7.31	341	-1.6	65	-7.4	137	266	967.0	NA	0.0000		9999	0	0	0	0
2017/11/23 23:34:00	BASE	2.71	347	7.31	341	-1.6	65	-7.4	126	248	967.0	NA	0.0000		9999	0	0	0	0
2017/11/23 23:35:00	BASE	1.66	342	7.31	341	-1.7	65	-7.4	124	244	966.9	NA	0.0000		9999	0	0	0	0
2017/11/23 23:36:00	BASE	1.50	353	7.31	341	-1.7	65	-7.4	113	226	966.9	NA	0.0000		9999	0	0	0	0
2017/11/23 23:37:00	BASE	3.01	22	7.31	341	-1.7	65	-7.4	103	210	966.8	NA	0.0000		9999	12530	0	0	0
2017/11/23 23:38:00	BASE	3.94	11	7.31	341	-1.7	65	-7.4	101	206	966.8	NA	0.0000		9999	12110	0	0	0
2017/11/23 23:39:00	BASE	2.51	11	7.31	341	-1.7	66	-7.2	100	203	966.8	NA	0.0000		9999	0	0	0	0
2017/11/23 23:40:00	BASE	0.87	57	7.31	341	-1.8	67	-7.2	94	193	966.8	NA	0.0000		9999	0	0	0	0
2017/11/23 23:41:00	BASE	0.71	58	7.31	341	-1.8	67	-7.2	89	184	966.7	NA	0.0000		9999	0	0	0	0
2017/11/23 23:42:00	BASE	0.83	111	5.45	33	-1.8	67	-7.1	85	177	966.7	NA	0.0000		9999	0	0	0	0
2017/11/23 23:43:00	BASE	2.03	141	5.45	33	-1.8	66	-7.3	81	170	966.7	NA	0.0000		9999	0	0	0	0
2017/11/23 23:44:00	BASE	3.36	136	5.45	33	-1.8	65	-7.5	77	163	966.6	NA	0.0000		9999	0	0	0	0
2017/11/23 23:45:00	BASE	2.78	148	5.45	33	-1.8	64	-7.7	74	158	966.7	NA	0.0000		9999	0	0	0	0
2017/11/23 23:46:00	BASE	2.01	175	5.45	33	-1.8	63	-7.9	72	154	966.7	NA	0.0000		9999	0	0	0	0
2017/11/23 23:47:00	BASE	1.31	177	4.89	352	-1.8	63	-8.0	71	151	966.7	NA	0.0000		9999	0	0	0	0
2017/11/23 23:48:00	BASE	0.68	172	4.22	127	-1.9	63	-8.0	69	148	966.7	NA	0.0000		9999	0	0	0	0
2017/11/23 23:49:00	BASE	0.40	181	4.22	127	-1.9	63	-8.0	68	145	966.7	NA	0.0000		9999	0	0	0	0
2017/11/23 23:50:00	BASE	0.05	185	4.22	127	-1.9	64	-7.8	67	143	966.7	NA	0.0000		9999	0	0	0	0
2017/11/23 23:51:00	BASE	0.65	150	4.22	127	-1.8	64	-7.7	65	140	966.6	NA	0.0000		9999	0	0	0	0
2017/11/23 23:52:00	BASE	1.63	43	4.22	127	-1.8	64	-7.7	64	137	966.7	NA	0.0000		9999	10960	0	0	0
2017/11/23 23:53:00	BASE	1.99	7	4.22	127	-1.8	64	-7.7	62	134	966.6	NA	0.0000		9999	11190	0	0	0
2017/11/23 23:54:00	BASE	2.07	343	3.65	53	-1.8	65	-7.6	61	131	966.6	NA	0.0000		9999	11160	0	0	0
2017/11/23 23:55:00	BASE	1.76	8	3.65	53	-1.9	65	-7.6	59	128	966.6	NA	0.0000		9999	10860	0	0	0
2017/11/23 23:56:00	BASE	1.41	27	3.65	53	-2.0	66	-7.5	58	124	966.5	NA	0.0000		9999	12140	0	0	0
2017/11/23 23:57:00	BASE	1.76	70	3.65	53	-2.1	66	-7.5	56	121	966.5	NA	0.0000		9999	12300	0	0	0
2017/11/23 23:58:00	BASE	2.26	114	3.65	53	-2.1	66	-7.5	55	118	966.5	NA	0.0000		9999	12630	0	0	0
2017/11/23 23:59:00	BASE	1.75	119	3.65	53	-2.1	66	-7.6	53	114	966.5	NA	0.0000		9999	11320	0	0	0